GFSSW_850_thetae_000.txt.gz
Theta_e
306 306 307 307 307 307 308 308 308 308 308 309 309 309 308 309 309 309 311 316 317 317 317 324 323 327 328 328 328 330 328 328 328 328 327 329 325 329 326 326 326 326 326 327 328
309 308 306 305 305 305 306 306 307 308 308 308 308 308 308 309 309 311 318 314 315 315 316 322 325 326 328 329 330 328 327 331 330 327 326 328 326 326 324 324 325 325 326 325 327
305 306 307 308 309 308 306 305 305 305 306 307 307 308 308 308 308 315 315 315 315 314 316 315 326 326 327 328 329 329 330 329 329 329 328 327 327 327 324 323 325 324 326 325 327
304 305 304 305 305 306 308 309 308 306 304 304 305 307 307 307 308 314 316 316 318 317 315 316 319 328 327 327 328 328 329 330 330 329 328 326 327 326 326 326 326 325 326 326 327
297 299 301 301 302 303 304 305 307 309 310 306 304 304 305 306 308 317 317 317 316 318 316 317 318 319 322 329 329 328 329 329 329 328 328 328 326 325 325 329 327 325 325 325 325
301 298 296 296 299 300 302 301 304 305 306 309 308 304 302 306 310 312 312 311 312 316 317 317 318 319 319 322 324 329 330 329 329 329 329 328 327 325 326 328 327 326 325 325 325
303 303 302 299 298 299 301 303 301 303 306 306 308 307 306 304 309 310 310 311 311 312 317 317 318 318 319 317 321 322 326 327 328 326 324 326 325 325 327 327 327 325 325 324 324
306 304 303 303 302 301 300 299 299 301 305 307 307 308 310 310 308 308 310 313 314 315 319 317 318 318 318 319 320 320 320 322 322 323 324 324 326 325 327 327 326 326 325 324 324
302 302 302 303 303 302 301 302 300 299 302 308 308 308 307 308 310 314 310 310 314 315 317 319 320 317 318 317 317 318 321 321 321 322 325 323 326 326 327 326 325 327 326 325 325
301 302 302 302 303 303 302 301 302 300 304 309 310 309 307 309 311 312 311 309 311 315 315 319 321 315 314 315 319 320 320 322 324 324 324 325 325 325 325 325 325 327 327 326 326
302 302 302 302 302 303 303 305 313 313 310 311 308 308 313 313 313 314 313 310 312 315 315 319 318 317 317 318 320 321 321 322 323 324 325 325 326 326 325 325 324 325 327 327 327
302 302 302 303 303 302 307 308 309 308 307 308 311 311 310 311 310 314 315 313 312 314 315 317 316 316 319 320 319 319 322 322 322 323 323 324 325 326 325 324 324 325 326 326 326
302 302 302 303 305 304 309 310 309 308 308 310 311 312 312 311 312 312 315 315 313 314 314 315 319 318 317 318 320 320 320 323 323 324 323 323 325 325 326 326 326 326 326 325 326
303 302 303 304 303 305 308 310 310 309 308 309 311 312 313 313 315 312 314 316 315 313 315 314 317 318 317 316 319 320 322 323 325 325 324 323 325 322 324 324 323 323 325 326 326
302 303 303 303 304 304 303 308 310 309 302 307 308 311 313 314 316 316 313 315 316 315 315 315 315 316 316 316 319 321 321 322 324 325 322 323 322 321 322 324 324 322 324 326 326
302 303 304 303 303 304 305 308 309 307 307 306 312 312 314 314 316 317 316 315 316 315 314 314 316 315 315 317 319 321 322 322 323 323 324 324 323 326 323 324 324 322 324 325 324
302 302 303 303 303 304 304 307 309 310 308 309 308 308 309 316 316 318 315 314 314 315 315 316 315 315 316 316 318 321 321 322 322 324 326 322 323 324 323 323 323 320 324 324 324
302 302 302 302 303 304 305 308 312 307 307 308 309 309 311 315 316 317 316 315 314 314 314 316 316 316 317 317 316 316 317 323 325 324 324 323 324 324 322 322 324 323 324 325 325
302 302 302 303 304 305 305 308 305 307 307 308 308 310 310 310 311 317 317 315 315 314 315 315 316 318 317 317 317 317 320 319 322 323 323 323 324 324 323 322 325 325 326 326 326
302 302 303 304 305 305 305 306 306 306 307 307 308 309 309 309 313 313 317 318 315 315 314 315 317 318 317 317 316 316 318 321 319 323 325 323 324 324 322 323 327 326 325 326 326
302 304 303 306 305 305 304 304 305 305 307 308 308 307 308 310 311 313 315 316 317 316 315 315 316 319 318 317 316 315 317 321 320 320 324 322 322 320 321 321 327 325 326 327 327
302 301 304 306 304 303 305 304 304 305 306 306 307 307 308 309 310 312 314 316 314 313 316 315 314 317 318 319 317 316 317 320 323 322 320 321 322 322 321 322 326 325 327 327 327
302 303 304 305 301 305 303 304 304 305 305 307 306 307 308 309 309 313 314 314 314 313 315 316 316 319 322 318 319 317 319 320 318 319 321 321 321 324 324 326 327 326 326 326 327
302 301 304 303 304 304 305 305 305 304 304 305 306 307 308 310 308 310 312 312 312 312 314 313 315 317 319 321 320 320 320 322 320 320 321 322 324 326 327 329 327 327 326 327 327
302 301 304 300 300 302 302 304 304 305 304 304 305 308 307 309 310 310 309 311 311 312 310 310 319 317 318 320 323 323 321 323 323 321 323 322 323 323 324 329 328 328 326 326 327
301 302 302 302 302 301 302 303 304 305 305 306 305 306 307 308 309 312 310 309 311 310 309 309 317 318 319 319 319 320 324 324 324 322 322 323 324 322 325 329 328 327 326 325 326
301 301 301 302 300 301 302 305 305 305 306 305 306 305 305 307 309 310 310 308 309 309 309 309 315 319 321 321 320 320 322 324 323 324 323 323 321 321 322 328 328 327 327 326 326

GFSSW_850_thetae_003.txt.gz
Theta_e
309 308 307 307 306 306 306 306 307 307 308 308 308 309 309 310 311 311 314 318 315 315 316 315 322 322 326 326 327 329 326 328 327 326 326 328 324 327 327 326 325 325 325 326 327
304 305 306 308 309 309 308 306 305 306 307 308 308 308 308 308 310 314 323 319 318 313 314 314 320 324 327 326 327 327 325 327 326 326 325 326 327 327 325 325 323 326 327 326 326
299 301 302 304 305 305 307 308 309 308 306 305 305 306 307 307 308 317 319 321 319 315 312 311 316 323 327 327 328 326 327 327 326 327 328 327 327 329 324 325 326 324 327 325 326
299 297 297 298 299 301 303 304 305 307 309 309 307 305 304 305 307 315 316 316 317 317 314 310 321 326 325 325 327 327 327 328 327 327 328 326 328 326 326 326 328 328 325 325 327
303 303 302 300 299 298 297 299 302 303 305 307 309 309 305 302 305 315 316 317 316 317 317 311 316 327 325 326 326 325 326 327 327 328 328 328 326 326 327 328 329 328 326 326 326
306 304 303 302 302 302 300 299 298 299 302 307 309 307 308 305 308 311 314 313 310 314 316 313 315 317 319 321 322 326 326 327 328 328 329 327 328 328 328 328 328 327 325 326 326
302 303 303 303 302 302 302 302 301 298 300 304 309 310 311 311 308 308 309 312 312 310 312 316 316 318 318 317 319 319 319 321 323 326 326 328 326 326 326 326 326 326 326 326 325
301 301 301 301 301 301 302 302 302 302 301 301 308 310 311 309 310 312 309 311 312 310 310 312 316 317 318 318 318 317 318 320 321 323 325 324 327 324 325 325 326 326 326 326 326
301 301 301 301 301 301 301 301 302 302 301 302 306 309 310 307 308 312 313 309 311 313 315 312 317 317 317 316 315 315 318 318 319 320 321 321 324 324 326 326 325 326 326 326 325
302 302 302 301 301 301 301 301 304 305 303 304 308 309 307 308 309 310 311 312 308 311 312 313 318 313 311 313 316 315 316 318 320 320 320 322 322 324 325 325 324 325 325 324 325
302 302 302 303 302 302 302 305 308 312 308 309 307 307 308 309 310 311 310 309 307 312 311 315 316 318 317 315 316 316 316 317 318 320 322 322 322 324 324 323 323 324 324 324 325
303 303 302 302 304 304 302 307 308 307 307 308 308 310 309 309 311 311 313 309 311 310 313 314 316 319 318 317 316 317 317 319 320 321 322 321 322 322 322 322 323 324 324 324 324
304 303 303 303 303 303 303 308 306 306 307 308 307 308 308 308 311 311 312 312 309 310 312 313 315 318 320 317 318 317 317 318 319 321 321 321 323 323 323 322 324 325 324 324 325
304 303 302 303 304 304 303 304 305 307 305 305 309 309 309 309 311 310 312 314 313 309 312 313 314 316 318 317 316 318 319 320 320 321 323 322 323 321 321 322 321 323 325 327 326
303 303 302 303 303 303 303 303 307 307 299 304 307 309 312 310 311 310 311 315 315 311 311 312 314 314 316 316 317 318 319 321 321 321 321 322 322 321 320 322 320 319 322 324 325
302 302 302 302 302 302 303 304 307 309 306 305 308 307 309 312 312 313 312 313 315 313 311 311 314 314 315 317 318 317 319 319 318 320 322 322 321 323 321 321 322 321 324 324 324
302 301 301 301 301 301 303 305 306 308 306 306 307 307 306 308 312 313 314 312 314 314 314 313 313 314 315 316 316 315 317 319 318 322 324 321 321 323 322 321 321 321 322 324 324
301 301 301 301 301 302 304 305 306 306 306 307 307 307 309 309 310 314 314 313 313 313 314 314 314 314 315 315 315 316 318 320 323 322 323 321 324 324 321 322 322 323 322 323 323
301 301 303 303 303 304 304 306 305 306 306 306 307 308 308 308 309 311 314 314 313 313 313 314 314 315 315 315 315 315 318 319 319 321 322 322 322 322 321 321 322 321 322 323 323
302 301 304 305 304 304 305 302 305 305 305 306 306 308 307 307 310 310 313 313 316 313 312 314 314 315 315 315 315 314 315 316 314 319 322 323 323 323 323 323 324 323 321 323 324
301 302 304 305 305 304 303 303 304 304 304 306 306 305 307 309 310 310 313 313 313 313 313 312 314 316 315 315 315 312 315 315 317 319 321 322 323 318 320 320 323 322 323 324 324
302 300 303 305 303 302 302 304 304 304 304 305 306 306 306 309 309 308 312 314 311 312 313 313 311 314 316 317 316 315 315 315 317 319 318 321 324 321 318 317 322 322 324 325 325
302 301 303 305 303 302 301 303 304 304 304 304 305 305 306 306 308 308 309 311 310 310 311 313 313 314 315 315 315 314 314 314 315 316 319 321 324 322 320 317 324 323 325 325 326
301 299 302 303 302 303 303 304 304 304 304 303 304 304 305 307 308 308 307 307 308 309 312 309 313 315 315 316 317 317 315 315 316 318 319 320 321 325 324 323 323 324 325 325 326
301 300 302 301 299 300 300 302 303 304 304 303 303 306 305 306 308 309 309 309 308 309 309 307 310 317 315 315 319 319 318 316 317 318 319 320 319 321 324 323 324 325 324 325 326
301 302 302 301 301 300 300 302 304 305 304 304 305 305 305 305 307 308 309 310 309 308 308 306 308 314 320 315 315 316 319 318 319 319 320 319 320 318 323 326 326 325 324 325 326
301 301 300 301 301 298 298 303 303 304 304 305 305 304 304 305 306 306 307 309 309 308 308 308 309 310 318 318 316 316 317 318 320 320 320 320 319 319 324 326 326 326 325 326 326

GFSSW_850_thetae_006.txt.gz
Theta_e
303 304 305 306 308 308 309 308 307 306 307 307 308 308 308 308 309 309 313 321 317 313 312 318 320 320 323 323 329 329 325 326 325 324 324 325 325 326 327 327 325 327 326 326 326
298 298 299 301 303 304 305 305 307 308 308 307 306 306 306 307 308 308 322 319 320 317 313 313 315 318 324 325 326 325 325 325 324 323 324 325 326 328 326 327 325 326 328 327 326
303 302 302 299 298 299 300 301 303 304 305 308 309 308 306 305 305 310 316 317 321 321 316 312 313 319 325 326 325 325 327 326 326 325 325 326 327 328 327 327 327 326 328 328 326
302 303 302 302 302 302 301 300 299 299 301 304 305 307 309 308 305 312 314 316 317 317 316 311 313 324 324 324 326 325 325 326 326 326 326 325 327 327 327 327 328 329 329 328 326
301 301 302 302 302 302 302 302 302 300 299 299 302 307 307 310 305 311 315 316 314 317 316 312 318 324 322 323 324 323 325 326 326 327 326 326 326 326 327 327 328 329 329 328 326
300 300 301 301 301 301 301 301 302 302 301 300 301 307 309 308 310 310 310 312 310 310 312 312 312 321 323 324 323 324 325 325 325 326 326 326 326 327 328 328 329 328 328 327 326
300 300 300 300 300 300 301 301 301 301 302 302 301 305 309 309 309 310 307 309 310 310 310 311 312 315 319 316 318 318 318 317 318 320 321 323 324 325 326 327 327 327 327 326 326
299 300 300 301 301 300 300 300 301 301 302 302 301 309 308 307 308 310 310 309 309 309 310 310 314 315 316 316 316 317 317 317 318 319 320 322 323 323 324 326 325 325 326 327 327
299 300 301 301 301 301 301 301 300 301 304 304 303 306 307 305 307 309 310 310 310 309 311 313 312 317 315 315 315 314 316 316 316 317 318 322 321 322 323 324 324 324 325 326 325
301 303 302 302 301 302 301 301 301 307 308 305 306 305 306 306 308 308 308 308 311 310 309 309 314 313 311 314 317 315 314 315 316 318 318 318 319 320 321 322 323 324 324 324 324
303 304 304 303 302 302 302 301 307 308 307 306 305 305 303 308 309 309 308 307 307 309 307 310 312 315 314 315 315 314 314 314 315 317 318 318 319 320 321 321 320 321 322 323 325
304 304 303 303 303 303 303 304 306 304 305 306 307 307 306 304 309 309 310 307 308 308 309 313 313 313 315 315 315 315 314 314 316 319 319 319 319 319 319 320 321 322 322 323 324
304 303 303 302 302 303 303 304 304 304 305 307 306 307 307 305 309 306 309 308 309 308 310 310 312 314 316 317 316 315 315 316 316 319 319 319 319 319 320 321 321 322 323 325 325
304 302 301 302 303 302 303 303 303 306 306 305 307 307 307 307 308 306 309 310 309 308 308 310 311 313 316 318 317 318 317 317 318 320 319 319 321 319 319 321 319 321 323 324 326
303 302 301 301 302 302 303 303 303 306 305 302 306 309 307 308 308 307 306 311 312 307 309 309 311 312 315 317 319 318 318 318 319 319 318 319 319 319 318 319 320 319 323 324 322
302 301 301 301 301 301 302 303 305 305 306 305 306 306 305 308 310 310 310 310 313 308 308 309 312 311 313 316 317 317 316 317 316 316 319 318 319 319 320 321 320 319 322 322 322
301 301 301 301 301 301 301 303 304 305 305 305 306 306 305 308 309 310 311 310 313 314 311 311 309 312 312 312 315 315 313 314 316 317 320 318 319 319 319 319 319 320 321 323 322
301 301 302 303 302 301 303 303 304 304 304 306 306 305 306 308 308 310 312 312 310 312 313 312 312 310 313 312 314 316 315 314 317 320 322 319 322 322 319 320 321 322 321 322 322
300 301 304 304 303 302 303 302 303 305 305 305 305 305 307 306 307 309 309 313 312 310 312 313 313 313 313 314 314 315 314 315 318 319 320 319 320 321 320 320 319 319 320 321 323
301 301 304 305 304 303 302 301 304 304 304 304 305 306 305 305 307 307 310 311 310 311 310 312 313 313 313 313 314 313 314 316 315 319 321 320 321 322 322 320 321 321 319 321 323
301 301 304 304 304 303 303 302 303 303 304 305 305 306 304 306 308 308 309 312 308 308 311 311 311 314 312 313 313 312 313 313 315 314 319 320 321 317 320 319 320 319 320 322 323
300 297 302 304 303 301 302 303 304 304 303 304 305 305 305 306 308 308 309 307 306 307 308 310 309 312 313 312 313 314 314 313 316 317 317 319 320 319 318 317 317 319 321 322 324
300 300 302 304 303 302 302 302 303 303 304 303 303 303 303 305 306 307 307 307 306 307 309 310 310 312 313 313 313 313 313 314 312 313 317 319 319 319 320 319 318 320 322 323 324
300 299 301 303 301 302 302 301 303 303 303 303 302 302 304 306 306 308 308 306 307 308 311 307 308 313 314 314 313 314 313 313 312 312 315 319 319 319 323 319 320 321 323 324 324
300 298 300 301 298 301 301 300 302 303 304 304 303 304 305 306 306 308 308 309 307 308 309 306 308 312 312 315 315 316 314 314 313 314 315 316 317 317 318 320 320 322 323 324 325
300 301 300 301 301 301 300 300 302 303 303 305 304 304 304 305 305 306 307 309 309 308 308 305 308 309 312 315 316 315 313 314 314 314 314 317 316 315 318 323 322 323 324 324 325
300 301 301 301 300 301 301 302 302 302 303 304 303 302 303 303 304 304 304 306 308 308 309 307 308 308 310 311 314 314 315 314 315 314 315 316 317 318 323 323 322 323 324 325 326

GFSSW_850_thetae_009.txt.gz
Theta_e
300 300 300 301 301 302 303 304 305 306 307 308 308 308 307 308 309 310 312 320 320 315 312 319 316 321 324 320 322 329 330 329 328 327 328 326 327 326 326 328 327 325 328 328 327
303 302 301 301 301 300 300 300 301 301 302 304 306 308 309 308 307 308 316 316 320 315 312 312 317 318 324 325 325 328 330 329 328 327 327 326 326 327 327 327 327 327 327 327 328
301 302 303 302 302 302 302 302 302 301 300 301 302 304 306 308 308 309 311 314 316 315 313 312 311 316 323 325 326 327 330 329 328 327 326 326 327 326 327 328 327 327 327 327 328
300 300 300 301 301 301 301 301 301 302 302 302 300 299 302 305 311 311 313 314 315 316 312 313 317 321 321 324 325 327 326 327 327 327 327 327 326 326 327 328 328 327 327 327 329
299 300 300 300 300 300 300 301 301 301 301 302 302 300 302 308 308 310 312 315 311 317 312 314 319 319 321 322 323 327 326 326 327 327 327 327 327 327 327 325 326 327 328 328 329
298 299 299 300 300 300 300 300 300 301 301 301 302 301 305 307 308 309 310 314 313 309 312 313 318 319 319 321 323 323 324 325 325 326 326 327 326 326 326 326 326 327 327 327 328
298 298 298 299 300 300 300 300 300 300 300 301 302 302 307 306 307 309 309 310 310 308 309 309 313 319 320 321 321 323 325 326 326 325 326 323 323 323 323 324 324 325 326 327 326
298 301 301 300 300 300 300 300 301 301 300 301 303 304 306 303 305 308 308 310 309 308 308 309 310 313 315 316 317 319 319 320 320 320 320 320 323 323 323 323 324 325 326 324 325
300 302 302 302 301 301 301 301 301 301 302 304 305 304 305 304 303 306 307 308 309 309 308 311 314 315 315 317 319 319 320 320 320 319 320 322 323 322 322 322 323 323 324 324 325
303 303 303 303 302 302 302 301 302 306 306 304 305 305 303 306 306 307 309 307 308 309 309 308 313 315 316 317 320 320 319 319 320 320 319 320 321 322 321 322 322 323 324 324 323
304 304 303 303 302 302 302 302 305 307 303 305 305 305 304 304 304 305 309 307 309 308 310 309 313 316 315 316 318 319 321 322 322 319 318 319 320 322 322 322 322 322 322 322 323
303 304 303 301 301 302 302 305 304 303 305 304 304 305 305 305 307 306 306 308 308 310 311 311 313 314 315 315 315 317 319 320 318 317 318 319 320 322 322 322 322 323 324 324 325
302 303 302 301 301 303 301 303 303 304 305 306 306 306 307 306 307 306 308 308 308 309 311 313 314 313 314 315 315 316 317 318 318 318 319 320 320 320 322 323 322 322 322 323 323
302 302 301 301 302 301 302 303 303 304 307 306 306 306 307 308 308 307 306 308 309 310 311 312 313 313 313 314 316 317 317 317 317 318 319 321 322 322 322 322 323 322 324 325 325
301 301 301 301 302 302 301 303 303 305 304 304 308 308 306 308 308 309 308 307 311 310 311 312 312 313 314 314 317 317 317 317 318 320 321 320 321 321 322 322 323 323 323 325 323
301 300 300 302 301 301 301 301 304 307 304 305 306 306 305 307 308 309 309 307 309 312 311 312 312 312 314 315 316 317 318 319 320 320 321 320 321 321 322 322 322 325 325 323 323
301 300 301 302 303 302 301 303 306 305 304 306 306 305 304 306 308 309 310 310 309 314 313 311 311 312 313 315 317 319 320 319 319 320 320 320 321 322 321 321 322 324 326 323 323
301 301 303 304 302 302 303 305 304 302 304 305 305 304 303 306 307 307 309 312 311 313 315 313 312 312 313 314 316 319 319 320 322 322 321 321 321 321 323 323 321 323 324 323 323
300 302 303 304 303 302 303 304 301 303 304 304 304 304 304 305 305 306 308 313 312 311 313 316 315 313 314 314 316 318 319 319 318 322 324 324 324 324 325 325 326 325 322 324 326
300 302 303 303 302 303 304 303 303 304 303 304 304 303 304 304 306 307 307 311 310 310 310 314 316 315 313 314 315 315 317 318 318 318 318 320 324 326 327 327 326 326 325 325 325
300 301 302 303 303 302 304 303 303 303 304 304 304 305 305 304 307 308 307 307 308 309 310 313 314 316 313 315 315 315 318 318 319 318 319 318 319 327 328 328 328 327 326 325 326
299 302 302 303 304 302 304 303 302 304 303 304 305 305 306 305 306 307 308 307 307 307 311 312 315 316 316 316 316 316 317 318 317 319 318 321 321 324 327 326 325 325 324 325 326
300 299 301 303 303 302 301 302 302 304 304 304 304 304 304 305 306 307 308 307 307 307 309 312 315 316 317 316 316 316 317 318 320 321 319 318 320 324 327 326 325 325 324 325 326
300 302 301 302 301 301 301 302 302 302 304 304 304 304 305 305 306 306 308 308 307 307 310 309 311 316 317 317 317 316 316 317 318 319 320 320 319 322 322 326 326 325 325 325 326
300 301 300 302 302 302 300 301 302 303 304 304 305 305 305 306 306 308 307 308 308 308 308 310 312 312 313 313 315 316 316 316 317 318 318 320 320 319 324 323 325 325 325 326 326
300 301 301 301 301 302 302 301 302 303 303 303 305 304 303 303 304 305 306 306 309 309 308 309 312 312 314 314 315 317 317 316 316 316 317 317 319 320 321 322 324 326 325 326 327
301 301 301 301 301 302 303 302 303 303 303 303 304 304 304 304 303 304 304 304 305 308 310 310 311 313 316 314 316 317 318 318 316 316 317 318 319 319 320 324 327 327 326 327 327

GFSSW_850_thetae_012.txt.gz
Theta_e
302 302 302 302 302 302 302 301 302 302 304 306 308 308 309 310 310 309 311 313 315 316 313 316 316 325 321 322 324 327 331 332 332 331 331 329 330 329 329 330 329 329 328 329 329
301 301 301 302 302 302 302 302 302 302 302 302 302 304 306 307 309 309 312 313 313 313 314 321 321 322 324 325 326 330 332 332 331 331 331 330 330 329 329 330 329 329 329 329 329
300 300 300 300 301 301 301 301 301 302 301 302 302 302 302 303 309 312 313 314 315 316 316 318 319 320 322 325 327 329 332 331 331 330 330 330 330 329 329 331 329 330 329 329 329
299 299 299 300 300 300 300 300 300 301 301 301 301 302 302 302 312 314 312 313 313 315 315 315 319 319 321 324 326 330 329 330 330 329 329 330 329 329 329 329 328 329 328 328 328
297 298 298 299 299 299 300 300 300 300 300 300 301 301 303 311 309 310 311 314 315 316 315 317 320 320 324 323 322 327 328 328 328 328 328 328 329 329 329 328 328 328 328 328 328
298 299 300 299 298 299 299 300 300 300 300 300 300 301 308 309 309 309 308 313 313 316 318 317 318 320 324 325 325 324 324 325 327 327 327 328 329 328 328 327 327 328 326 326 325
298 300 302 303 301 300 300 300 300 300 300 300 300 303 307 307 305 308 308 308 310 311 314 316 317 320 323 325 324 324 326 326 326 326 327 326 329 329 327 326 326 325 325 326 325
301 302 303 303 302 302 301 301 301 301 300 300 301 307 307 304 306 303 307 309 311 311 311 313 314 316 321 322 322 324 326 327 327 327 327 327 329 328 326 325 325 325 325 324 324
302 303 303 303 302 302 301 301 301 301 302 304 306 308 308 306 306 306 309 310 311 312 312 311 311 315 316 319 322 324 326 328 328 327 325 325 326 327 326 325 325 325 324 325 325
302 303 303 302 301 301 301 301 302 304 307 307 307 307 306 305 308 309 308 311 311 311 312 310 313 317 318 320 325 325 325 325 327 327 324 325 326 326 326 325 324 324 324 324 325
302 302 303 302 302 301 302 306 307 309 306 306 306 307 305 305 305 306 307 311 311 312 315 312 314 318 320 320 322 323 325 326 327 326 326 326 326 326 326 325 324 325 324 324 325
302 302 302 301 301 301 303 304 306 305 307 305 305 305 305 305 306 306 306 308 312 314 314 315 316 318 319 320 321 322 324 325 326 326 326 326 325 325 325 325 324 324 324 325 326
301 301 301 300 300 304 304 305 305 305 307 306 307 307 308 308 308 308 307 307 312 313 314 316 316 317 318 319 320 321 322 323 323 323 324 324 324 324 324 324 323 323 324 326 325
301 300 300 300 304 304 305 304 305 305 309 307 307 309 308 309 311 309 309 307 312 313 314 315 317 317 318 319 320 321 320 320 321 322 323 323 325 325 325 325 325 324 324 325 325
301 301 300 300 302 304 304 304 304 306 306 305 310 309 308 308 308 311 310 309 309 313 314 315 315 316 318 319 319 320 318 319 320 321 322 322 323 323 324 325 325 326 326 326 325
302 301 300 304 302 303 304 304 305 309 306 306 307 308 308 307 308 309 310 310 309 309 313 314 315 316 317 318 318 319 319 319 320 321 322 322 323 324 325 326 326 327 325 325 329
301 300 302 303 305 303 304 304 308 305 305 306 307 307 306 306 306 308 309 312 312 310 311 315 314 315 316 318 318 318 320 322 324 324 324 323 323 324 327 327 326 326 328 330 331
300 302 303 304 303 302 304 307 305 303 303 305 305 305 304 305 307 308 308 312 313 311 312 314 317 315 316 317 318 319 321 321 322 323 323 324 324 325 325 325 326 324 325 329 331
300 305 306 304 302 302 305 308 305 305 305 305 305 305 305 306 305 307 308 312 315 313 312 316 318 316 316 316 319 320 321 322 321 323 324 325 326 327 326 327 326 328 327 329 331
303 304 305 303 303 303 306 305 305 305 305 305 306 305 305 305 305 307 307 309 309 311 313 317 320 318 315 316 318 321 321 322 321 323 323 322 325 329 328 327 327 327 330 330 331
304 305 305 303 303 305 307 305 305 304 304 305 306 306 306 306 306 308 309 308 308 309 312 315 318 319 316 316 318 320 322 321 322 321 323 323 323 324 327 328 330 331 331 331 331
303 306 303 304 306 305 306 304 303 305 305 306 306 306 306 306 307 307 308 309 307 308 312 314 319 321 317 317 318 319 321 322 322 322 321 321 322 326 328 329 329 330 331 331 330
303 303 303 305 306 305 303 304 304 304 305 305 306 306 306 307 307 308 308 308 307 309 312 312 318 321 320 318 318 319 318 320 322 323 324 321 322 324 328 330 329 331 330 331 330
303 306 304 304 303 304 304 304 304 303 304 305 305 306 307 307 307 308 309 307 308 310 309 312 317 320 320 319 319 319 319 320 322 322 322 322 320 323 328 328 329 330 330 330 330
302 304 303 305 305 303 304 304 304 305 304 304 305 306 306 306 306 308 307 308 307 309 310 312 316 318 318 317 318 320 319 320 321 322 322 321 322 322 326 326 327 327 329 330 330
303 302 302 303 303 304 304 305 305 306 306 306 306 306 306 306 305 306 306 308 309 310 311 313 317 317 318 317 317 319 319 319 320 321 321 320 322 323 323 323 324 327 329 331 330
301 301 301 303 303 304 305 304 306 305 305 305 305 306 307 306 305 305 306 306 307 308 309 314 316 317 318 317 318 319 319 319 319 320 321 321 322 322 323 322 324 326 329 330 331

GFSSW_850_thetae_015.txt.gz
Theta_e
301 301 301 301 301 302 302 302 302 302 302 303 304 305 307 308 309 310 315 315 316 317 317 325 326 328 325 325 322 326 330 332 333 333 332 331 332 331 331 331 331 330 331 331 330
300 300 300 300 300 300 301 301 301 301 302 302 303 303 304 305 306 311 313 314 315 314 316 321 325 323 327 326 325 326 331 332 332 332 332 332 332 331 331 332 331 330 330 331 331
299 299 299 299 300 300 300 300 300 300 300 301 301 302 303 304 312 314 315 314 313 313 313 317 323 324 324 327 328 328 331 332 332 332 331 332 332 331 332 333 331 330 330 331 330
297 297 298 298 299 299 299 300 300 300 300 300 300 301 302 303 315 318 314 314 312 312 312 313 318 325 325 326 326 331 330 331 331 331 331 332 330 332 331 331 330 329 330 330 330
297 297 297 298 298 298 298 299 299 299 300 300 300 300 301 311 312 313 311 313 314 320 318 315 317 322 327 325 326 328 329 329 330 330 330 330 330 331 331 330 330 329 330 330 330
298 299 299 300 299 299 299 299 299 299 299 300 300 300 308 309 311 311 312 312 314 316 321 318 318 321 325 327 327 327 327 327 327 327 329 330 330 330 330 330 329 329 329 329 329
301 302 302 302 302 301 301 300 300 300 300 300 300 302 308 308 308 309 310 311 312 314 315 320 319 321 324 327 326 327 329 329 329 327 328 328 330 330 329 329 329 329 328 328 327
302 302 302 302 302 301 301 301 301 301 300 300 301 306 309 307 307 307 308 309 311 312 314 316 319 320 322 323 326 327 329 330 329 329 328 328 330 330 329 329 329 328 328 328 327
303 303 303 303 302 302 301 301 301 301 301 302 306 309 309 308 308 308 308 308 310 312 313 314 315 318 320 323 326 328 330 330 329 329 329 330 331 330 328 328 329 328 328 327 327
302 302 302 302 301 301 301 303 306 307 309 310 310 310 310 307 307 309 311 310 310 312 314 314 315 318 320 323 326 327 328 328 328 329 329 330 331 330 327 327 327 328 328 327 327
301 301 301 300 300 300 300 307 309 311 312 310 308 310 308 307 306 306 307 308 312 313 317 316 317 318 320 322 324 325 326 327 328 328 328 328 329 330 328 327 328 328 328 328 327
301 301 301 300 300 300 306 306 307 306 308 307 306 307 307 307 307 307 307 309 312 315 315 318 318 319 319 321 322 322 324 326 327 328 329 329 329 330 330 329 327 327 327 327 327
302 301 301 300 300 308 305 306 306 306 308 307 306 307 308 308 309 308 308 308 310 314 316 317 319 318 318 319 321 323 324 325 326 327 328 328 329 329 328 327 326 325 325 325 326
302 302 301 300 304 306 306 306 305 306 309 308 309 308 308 310 311 311 310 309 310 310 315 316 317 319 319 319 320 323 323 324 325 327 328 327 330 328 328 328 327 327 326 326 326
301 301 300 302 305 306 305 305 305 306 309 308 308 310 308 309 309 311 311 311 309 310 311 315 317 317 319 320 320 322 323 325 325 325 325 325 327 326 326 327 327 328 326 326 326
301 300 301 306 307 306 306 305 305 309 309 308 308 309 309 309 309 309 310 311 311 311 312 314 315 317 318 319 320 321 322 324 325 325 327 325 326 327 327 327 327 328 327 327 328
301 302 304 306 306 306 306 306 309 310 307 308 308 307 308 308 307 308 308 311 313 313 311 312 314 317 318 318 320 321 323 325 326 327 328 325 326 327 327 327 328 328 328 327 330
301 304 307 306 306 306 306 309 310 307 307 306 306 306 306 306 307 307 309 310 310 313 314 311 312 315 318 319 320 321 323 325 328 328 326 325 326 327 327 327 326 326 326 332 334
304 307 306 306 306 306 307 310 307 306 306 306 307 308 308 307 307 307 308 309 313 314 319 315 312 314 317 318 319 321 324 323 326 327 328 327 327 327 328 329 327 329 327 332 334
306 306 307 306 307 307 309 307 306 306 306 307 307 308 308 307 308 308 307 312 311 310 312 317 315 314 317 317 318 321 322 323 327 327 327 327 328 326 329 328 328 330 329 331 334
307 307 307 306 307 307 310 307 306 304 305 306 307 307 308 308 308 308 309 311 310 310 311 314 319 320 318 319 318 320 322 323 325 325 327 328 326 327 329 329 329 329 330 334 334
307 309 305 306 309 308 308 306 304 305 305 306 307 308 308 308 308 308 310 310 308 310 313 314 317 324 320 320 319 320 322 324 326 327 325 326 327 329 327 329 331 332 333 334 334
307 307 307 306 309 308 307 306 306 307 306 306 306 307 308 308 309 309 309 310 308 310 314 314 318 321 325 321 319 320 321 324 325 327 325 325 325 328 329 331 331 332 333 334 333
307 309 307 307 305 306 306 307 307 305 307 306 307 307 308 308 308 310 310 309 308 309 309 311 317 321 326 321 319 320 321 324 325 327 326 325 326 328 330 330 331 333 334 333 332
307 307 305 308 307 305 305 307 307 307 307 306 308 307 308 308 308 308 309 309 309 309 309 313 316 317 319 321 322 320 321 322 325 325 326 326 324 327 329 329 329 332 333 333 332
305 305 304 305 305 305 307 308 307 307 307 307 308 308 308 308 307 308 307 309 310 310 313 312 317 315 316 319 322 321 321 321 322 324 324 324 324 324 325 326 327 329 332 333 333
305 305 304 304 306 306 307 306 306 306 307 307 307 308 309 308 307 307 307 307 309 309 310 313 317 317 318 319 322 322 322 321 322 323 324 324 324 325 325 327 329 329 330 332 333

GFSSW_850_thetae_018.txt.gz
Theta_e
300 300 300 300 300 300 300 301 301 301 302 302 303 304 304 305 307 306 310 316 316 317 318 323 325 331 332 333 330 324 326 330 332 332 332 332 332 331 332 332 331 331 331 331 330
299 299 299 299 299 299 299 300 300 300 300 300 301 302 303 305 306 307 313 313 315 316 316 320 325 328 328 328 330 327 327 328 330 331 332 332 332 332 333 332 332 332 332 331 331
298 297 297 298 298 298 298 299 299 299 300 300 300 300 301 302 310 313 315 315 314 314 316 317 322 328 326 327 327 328 328 327 329 330 331 331 332 332 333 334 332 333 332 331 330
298 298 298 298 298 298 298 298 298 299 299 299 300 300 300 301 315 317 313 315 315 314 313 314 315 321 327 327 326 329 328 328 328 329 330 332 332 332 331 332 331 332 332 331 331
298 299 299 299 299 298 298 298 298 299 299 299 300 300 300 307 310 313 314 314 313 314 315 315 315 317 323 327 326 327 329 329 329 330 330 330 331 332 331 331 330 330 331 331 330
300 301 301 301 301 301 300 300 299 299 299 300 300 300 307 309 309 310 312 314 314 315 317 321 317 317 320 323 328 328 326 327 327 328 328 330 329 329 329 329 330 330 331 331 330
302 302 302 302 302 301 301 301 301 301 300 300 300 301 308 307 308 310 311 312 314 315 317 318 322 319 320 322 323 326 329 329 329 328 329 328 330 330 328 328 329 330 330 330 330
302 301 301 301 301 301 301 301 301 302 303 301 301 304 308 305 307 308 309 309 309 311 313 314 317 318 321 321 322 325 326 329 329 329 329 329 331 331 329 328 329 329 330 331 330
301 301 301 301 300 300 300 301 302 306 307 306 303 309 309 309 310 309 309 308 309 310 312 314 315 317 319 322 324 324 328 328 330 329 329 330 331 331 329 329 330 330 330 329 330
302 301 301 301 300 300 300 301 307 308 309 311 311 311 312 311 310 310 310 311 309 310 312 313 315 317 319 321 325 325 327 328 329 329 330 330 331 331 330 330 331 331 328 328 328
302 302 302 301 300 300 302 308 308 310 312 313 314 312 311 309 309 308 308 308 310 312 313 314 317 318 319 320 322 323 325 325 328 328 329 330 330 330 331 329 331 330 329 328 329
301 301 301 300 300 305 309 308 307 307 308 308 308 308 307 307 307 308 308 308 309 311 315 315 318 319 318 319 320 321 323 324 326 326 328 329 330 331 331 331 330 331 331 330 329
301 301 300 300 301 309 308 308 307 306 308 307 307 307 308 308 308 308 308 308 309 311 314 315 317 317 318 318 319 321 322 324 324 325 327 328 329 331 330 330 329 329 328 328 328
300 301 300 302 307 307 308 307 306 306 308 309 308 309 308 309 310 310 310 310 309 309 310 313 315 316 318 319 319 321 321 322 323 325 327 327 330 332 332 332 331 329 329 329 329
300 301 301 307 307 308 307 307 306 306 311 310 311 310 310 311 312 311 311 311 311 311 310 310 313 315 316 319 319 321 320 321 323 324 327 326 328 329 329 330 329 330 328 328 328
300 301 302 308 308 309 307 307 307 310 312 310 310 309 310 310 310 310 312 312 312 313 311 311 310 313 316 317 319 320 320 321 323 325 328 328 328 328 329 328 329 330 328 328 328
301 303 307 308 308 307 307 308 311 311 309 307 306 307 307 308 309 309 309 310 311 313 314 313 311 312 313 316 318 319 323 324 325 326 328 326 328 330 329 328 329 329 328 328 331
301 307 308 308 307 307 307 309 311 309 307 307 307 307 308 309 309 308 308 308 309 312 313 315 318 312 313 315 318 319 323 324 325 325 326 326 328 328 329 329 328 327 327 331 334
303 310 309 308 308 308 308 311 309 307 306 306 307 309 309 309 309 309 308 307 310 313 315 317 317 316 313 315 317 319 320 322 325 325 326 328 328 329 329 329 328 328 328 334 334
306 310 309 309 308 308 310 309 308 307 305 306 306 308 310 309 309 309 310 310 310 312 312 313 313 315 317 314 316 319 320 322 324 327 330 329 329 329 331 330 330 328 332 336 336
309 310 310 307 308 309 310 308 308 306 305 306 306 307 307 309 310 310 310 311 312 310 310 311 312 312 315 317 316 319 320 321 325 326 328 330 329 333 332 329 331 330 329 336 336
309 311 309 308 310 310 309 308 307 308 306 307 307 307 308 308 309 309 310 312 311 311 311 312 314 319 319 319 315 319 319 322 324 327 326 329 329 330 329 331 332 331 334 336 336
310 309 309 308 311 310 308 307 307 308 308 307 309 308 308 308 310 311 311 311 310 310 312 312 316 318 319 319 320 320 320 322 325 328 329 327 329 329 328 330 331 334 336 336 335
310 310 308 307 308 308 307 307 308 307 307 307 308 308 309 310 309 311 310 310 310 309 310 310 314 316 320 321 320 324 320 321 326 326 328 328 328 329 330 332 332 336 336 335 334
309 308 308 308 308 307 307 307 309 307 307 307 308 308 308 308 308 308 309 309 310 310 310 311 316 316 314 314 317 320 322 320 325 325 327 328 326 330 333 332 333 335 335 334 334
307 306 305 306 306 308 308 309 307 307 308 309 308 309 308 308 309 310 308 309 309 311 311 313 315 315 317 314 315 319 321 323 322 324 326 327 326 331 331 329 333 335 334 334 334
307 307 306 307 308 308 309 308 308 308 308 307 308 310 309 309 308 308 308 308 308 309 310 311 316 317 317 316 316 321 323 324 322 326 327 327 329 330 331 332 333 332 333 333 333

GFSSW_850_thetae_021.txt.gz
Theta_e
298 298 298 299 299 299 299 299 300 300 300 301 301 302 303 305 307 307 308 317 316 318 315 323 323 316 328 331 331 326 319 320 323 326 329 330 329 331 332 332 332 332 332 332 332
298 298 298 298 298 298 298 298 298 299 299 300 300 301 301 302 304 307 313 312 313 314 316 318 320 325 330 332 333 332 321 321 322 324 326 329 329 330 331 332 332 332 332 332 332
298 298 298 298 298 299 299 298 298 298 298 299 299 300 300 300 302 309 313 314 314 313 314 317 318 320 328 328 330 332 331 325 324 325 326 328 329 330 331 330 331 331 331 332 332
299 299 299 299 299 299 299 299 299 299 299 299 299 299 300 300 309 315 314 313 314 314 313 315 315 315 316 326 326 327 327 328 327 325 325 326 328 329 330 330 330 330 330 330 330
300 301 301 301 301 300 300 300 300 300 300 300 300 299 299 304 303 312 309 313 313 314 313 314 314 314 313 317 326 325 325 326 327 327 327 327 328 328 329 330 330 329 329 329 330
301 301 301 301 301 301 301 301 301 301 301 300 300 300 304 307 303 306 309 310 312 315 315 314 314 314 315 316 317 324 326 325 326 327 328 328 328 328 328 328 328 328 327 328 328
301 301 301 301 301 301 301 301 301 301 301 303 303 302 307 305 302 308 310 311 312 313 314 316 318 320 317 316 318 319 320 323 326 326 325 326 326 327 327 327 328 328 328 328 328
301 301 301 301 301 300 300 300 301 301 303 306 306 304 307 302 305 306 305 308 311 312 311 313 314 314 316 319 319 318 319 320 321 324 326 326 327 326 327 328 328 328 328 328 329
301 301 301 301 301 300 300 301 301 303 305 307 307 307 308 310 309 310 308 307 309 309 309 310 312 313 315 316 318 319 320 320 321 322 323 325 327 327 328 328 328 328 328 328 329
301 301 301 301 300 300 303 306 307 308 309 312 311 311 310 310 311 310 311 311 311 309 309 310 312 312 312 314 319 320 321 321 321 322 324 325 325 326 327 327 327 328 329 329 330
300 300 301 300 300 300 307 308 308 309 311 309 309 313 313 312 312 309 309 308 309 310 309 311 310 313 313 314 317 319 321 322 322 323 324 325 325 326 326 326 326 327 328 329 329
300 300 301 300 301 307 308 308 307 306 306 306 306 307 307 309 308 308 307 308 308 308 309 311 311 312 315 315 316 317 317 319 321 323 323 324 325 326 327 326 327 326 328 330 330
301 300 300 303 305 306 308 307 307 306 306 306 307 307 307 307 308 308 308 308 308 307 308 309 313 313 314 316 316 316 317 317 318 321 321 321 322 322 323 325 327 328 328 328 329
301 300 301 301 307 309 308 307 307 307 304 308 310 310 309 307 307 307 308 308 308 307 307 307 310 314 313 315 317 316 317 318 320 320 320 321 323 322 323 324 325 327 327 328 329
300 301 302 307 308 309 308 307 307 307 309 309 309 308 308 309 310 311 310 310 310 309 308 308 309 310 312 314 316 317 318 318 319 318 318 320 322 322 324 325 323 324 327 328 327
300 302 305 307 309 307 307 307 308 310 310 309 308 307 307 308 308 309 311 311 311 310 310 309 310 309 309 311 315 315 317 318 317 317 318 320 321 322 322 323 325 324 326 327 327
301 306 306 307 308 307 307 308 310 309 308 307 305 308 308 309 310 309 309 311 310 311 312 313 312 310 310 310 310 313 313 316 318 318 319 319 321 323 323 324 324 324 325 329 331
301 307 308 309 309 307 308 307 311 308 307 307 305 307 307 309 309 309 310 307 308 309 307 311 314 314 314 310 309 310 314 315 318 320 319 320 322 322 323 324 326 326 326 335 335
302 309 310 309 308 308 309 307 309 308 307 306 305 306 306 307 309 309 310 310 310 312 314 315 313 314 312 313 311 310 311 315 316 319 319 320 321 321 321 323 324 324 328 337 338
303 308 310 310 307 309 308 309 309 307 307 307 307 306 307 306 308 309 310 310 311 312 311 312 312 311 311 311 314 312 313 315 315 318 320 321 321 322 325 324 325 325 333 336 337
309 311 311 310 309 310 307 308 307 307 308 308 307 308 307 308 308 309 309 309 311 311 310 310 311 311 311 310 312 313 311 312 315 316 319 321 322 323 325 326 325 326 334 336 336
309 310 309 309 309 309 307 307 306 307 307 308 307 307 309 308 309 308 309 310 309 310 310 311 313 314 312 312 312 314 315 313 316 317 319 321 323 326 328 327 323 328 335 335 336
306 310 310 309 309 308 308 307 306 308 308 307 308 308 308 309 310 309 309 309 310 310 311 311 311 313 313 311 314 316 318 314 315 318 318 321 321 323 323 329 331 334 335 336 336
308 310 308 307 308 307 307 307 307 308 308 307 307 307 309 308 308 309 310 309 310 310 311 310 310 312 315 316 315 317 317 317 318 318 319 323 322 321 325 330 333 334 335 335 335
309 307 306 305 306 307 308 309 309 308 308 308 308 308 308 309 308 308 309 309 310 310 311 310 313 312 314 315 315 314 314 315 316 319 319 320 323 324 330 331 334 334 334 334 335
308 308 307 307 307 307 308 309 309 310 309 309 309 309 308 309 309 309 308 308 308 310 311 311 314 313 314 315 315 313 314 314 315 316 320 319 322 327 329 334 334 334 334 334 335
305 306 306 307 307 307 307 308 309 309 308 308 308 309 309 310 309 309 308 308 308 308 308 309 313 314 317 316 316 315 313 314 315 317 319 319 321 330 331 331 332 333 333 334 335

GFSSW_850_thetae_024.txt.gz
Theta_e
298 298 298 298 298 298 299 299 299 299 299 300 300 300 300 301 302 303 306 315 314 314 316 316 323 317 314 328 330 324 319 318 321 324 325 327 330 332 330 330 331 332 332 332 331
298 298 298 298 299 299 299 299 299 299 299 299 299 300 300 300 301 303 311 311 311 311 313 316 318 323 322 326 331 329 324 320 320 322 323 323 326 330 327 329 330 332 332 331 331
300 300 300 301 301 300 300 300 300 300 299 299 299 299 299 299 300 306 313 313 313 312 310 315 316 317 320 328 330 331 331 325 323 324 324 323 324 325 325 326 329 331 330 330 330
300 300 301 301 301 301 301 301 301 301 300 300 300 300 299 299 300 313 312 312 314 314 310 312 315 315 314 317 326 328 330 332 332 330 327 324 324 324 325 326 328 329 329 330 329
300 300 300 300 300 300 300 301 301 301 300 301 300 300 301 302 302 310 314 310 313 314 313 312 314 314 311 313 316 318 326 326 327 328 328 327 326 325 326 326 327 329 329 328 327
301 301 301 301 301 301 301 300 300 300 300 300 300 303 308 305 302 303 304 303 307 311 314 312 314 314 313 313 314 316 318 323 324 324 324 325 326 327 327 328 328 327 327 327 327
301 300 300 301 301 301 300 300 300 300 300 300 301 305 308 307 304 303 302 305 309 309 312 313 314 313 314 313 315 315 315 316 317 320 323 324 324 325 326 326 326 326 327 327 327
300 300 300 301 300 300 300 304 305 307 302 301 303 306 308 307 307 306 306 304 309 309 309 311 312 312 315 316 317 317 316 317 318 318 319 323 326 326 326 326 325 326 326 327 327
300 300 300 300 300 300 302 306 307 307 308 308 308 310 309 309 310 310 309 307 306 309 309 309 310 310 312 313 315 315 318 317 318 319 320 321 323 324 326 326 326 326 327 327 328
300 300 300 300 300 301 306 307 307 310 307 308 311 311 309 309 311 312 311 309 309 310 310 309 309 308 308 311 317 316 318 318 318 319 320 321 321 322 323 323 324 324 325 326 326
300 300 300 300 302 306 307 307 307 306 306 306 306 306 306 304 304 310 311 309 309 310 307 308 307 308 309 311 313 316 318 319 319 319 320 321 322 322 322 324 323 325 325 326 326
300 300 301 300 304 306 308 307 307 307 306 306 306 307 307 307 306 305 307 307 307 306 308 309 308 309 310 312 313 313 315 316 316 317 320 320 321 322 322 323 324 324 324 325 326
300 300 301 300 306 308 308 307 307 307 306 306 308 309 308 308 307 306 306 307 307 306 307 307 310 311 311 311 313 314 314 315 316 316 316 317 318 319 320 320 321 322 323 325 327
300 300 302 302 307 307 306 306 307 307 304 308 309 307 308 307 307 306 306 307 307 306 306 305 306 307 309 311 311 313 314 315 315 316 317 317 318 318 319 319 320 321 323 324 325
301 300 304 306 308 307 307 307 307 307 306 307 309 308 308 308 309 310 310 309 307 307 306 306 307 307 308 310 313 312 315 315 316 316 315 316 317 318 319 320 320 320 323 325 325
301 301 306 306 307 308 306 308 308 305 305 307 307 306 307 308 308 309 309 310 311 308 307 307 308 307 307 308 309 310 314 314 315 314 315 316 316 317 317 319 320 320 323 324 325
301 303 307 308 308 308 308 308 303 304 307 307 307 307 306 308 308 309 309 310 311 314 312 311 311 310 309 309 309 308 309 311 314 315 317 316 316 318 317 318 319 320 321 323 323
301 302 308 309 308 308 308 304 303 308 309 307 308 307 305 308 307 309 309 309 310 311 308 308 308 312 313 311 308 306 307 311 314 317 316 316 317 317 317 318 319 320 322 324 329
303 303 308 310 308 308 308 303 305 308 307 307 308 306 306 306 308 308 309 310 310 311 312 312 312 311 311 311 310 310 307 308 311 313 315 317 317 317 317 318 318 319 325 332 335
305 309 311 310 308 309 304 307 307 307 307 308 308 306 307 307 307 308 309 310 311 311 308 310 310 310 310 309 310 311 312 310 309 313 314 317 318 318 320 319 320 319 330 335 337
308 310 310 310 308 308 301 306 307 306 307 307 308 307 307 308 307 308 309 309 310 310 309 309 309 309 311 310 309 310 310 309 310 311 315 317 318 316 318 319 322 320 333 336 338
306 307 309 308 306 305 302 307 307 306 307 308 307 307 308 308 308 308 309 309 309 309 310 310 310 312 310 309 311 310 311 312 311 310 313 316 317 318 318 319 321 331 335 336 337
307 309 310 308 301 300 304 307 307 308 308 308 307 307 307 307 308 309 309 309 309 310 310 309 308 309 307 310 313 312 315 315 313 311 313 316 316 317 318 320 326 332 334 335 336
308 305 306 306 305 304 304 307 308 308 308 308 307 307 307 307 307 308 308 308 309 310 310 309 308 309 307 311 312 314 315 314 315 316 314 314 316 317 317 321 332 332 334 334 336
309 304 306 302 305 304 304 307 309 309 309 307 308 308 308 309 308 308 308 308 309 310 309 310 310 310 311 311 312 315 314 314 314 315 317 317 317 317 318 319 331 333 334 335 336
306 306 305 305 307 304 305 307 308 308 308 308 308 308 308 309 309 309 309 308 307 309 309 310 309 312 311 312 313 314 314 313 313 314 314 315 317 317 330 330 332 333 334 335 335
296 303 304 306 306 306 305 308 308 308 308 308 307 307 308 309 309 308 308 308 307 306 306 309 310 312 312 314 315 315 314 314 313 315 316 317 317 318 332 333 330 333 334 334 335

GFSSW_850_thetae_027.txt.gz
Theta_e
299 299 299 300 300 300 299 299 299 299 299 299 299 299 299 300 301 301 304 311 311 311 311 315 318 323 317 328 328 322 317 318 320 322 324 326 328 329 329 330 329 330 332 332 332
299 300 300 300 300 300 300 300 300 300 300 300 299 299 299 299 299 300 306 307 307 306 309 312 315 321 315 316 329 323 317 318 318 320 322 322 323 327 329 329 329 328 329 331 330
300 300 300 300 300 300 300 300 300 300 300 301 300 300 300 300 299 304 311 311 312 313 307 311 314 314 320 325 324 328 329 321 320 320 321 324 324 324 323 324 325 327 327 328 328
300 301 301 301 301 301 301 300 300 300 300 300 300 300 300 301 298 312 310 311 310 312 314 307 315 315 313 319 326 329 328 329 328 325 328 327 327 326 324 324 324 325 326 327 328
301 300 300 300 300 301 301 300 300 300 300 300 300 300 301 305 302 303 303 306 308 307 316 309 313 315 312 312 316 318 324 328 329 329 330 331 331 330 328 327 327 327 327 327 328
300 300 300 300 300 300 300 300 302 305 303 301 301 300 306 306 304 304 305 303 302 305 308 315 313 313 312 312 315 315 318 319 321 324 324 324 324 324 325 326 326 326 327 327 327
300 300 300 300 299 299 300 303 305 307 307 305 303 302 307 306 307 308 307 305 303 304 308 310 312 313 314 312 314 314 313 315 316 316 318 322 323 323 324 324 325 325 325 325 326
300 300 300 300 300 300 305 306 306 306 306 308 308 307 308 307 308 310 311 311 307 304 308 311 310 311 312 313 315 315 313 314 316 316 317 319 323 323 324 325 324 324 325 326 326
300 300 300 300 301 301 305 306 305 309 307 305 308 311 307 304 308 307 311 308 309 305 308 309 309 309 311 311 313 313 317 316 316 317 318 318 322 322 322 323 324 325 325 326 326
300 300 300 300 301 302 306 306 304 306 307 307 308 308 306 306 308 307 308 307 307 307 308 308 308 306 306 310 316 316 316 318 317 316 318 318 319 320 322 322 322 322 323 323 323
300 300 300 300 301 304 307 306 307 306 305 306 305 306 306 308 308 308 307 306 306 308 307 307 305 307 309 310 312 312 314 316 317 316 318 318 318 319 319 320 320 321 322 322 323
300 300 300 301 304 306 308 306 307 306 305 306 306 306 307 308 308 307 307 306 307 305 306 306 307 308 309 310 310 310 311 313 314 315 316 317 318 318 318 319 320 321 321 322 323
301 300 300 302 304 305 305 306 307 307 305 305 307 308 307 307 307 307 307 306 306 306 305 306 307 309 309 309 310 310 312 313 314 315 315 314 316 315 316 318 319 320 321 322 323
301 300 301 303 305 305 305 307 307 307 302 306 308 308 307 307 307 308 308 306 306 305 305 304 305 306 307 308 309 309 311 313 314 314 315 314 316 315 316 315 316 318 319 320 320
301 300 302 305 305 307 307 307 308 307 302 306 307 306 306 307 307 309 309 309 308 307 306 305 305 305 306 307 308 309 310 312 313 313 313 314 314 315 314 315 316 316 318 319 320
301 301 302 307 307 308 307 308 308 302 301 307 306 307 307 306 307 308 309 309 310 311 306 306 307 306 305 307 308 309 311 310 311 311 313 314 314 315 315 315 316 316 319 320 321
302 302 303 306 308 307 308 308 302 303 306 307 307 307 307 306 306 308 309 310 311 311 311 309 307 307 307 306 307 308 306 309 312 313 315 314 315 315 315 315 315 316 318 320 321
303 303 305 307 309 308 308 302 302 308 308 307 307 307 305 305 306 308 308 309 311 311 310 312 310 309 312 308 309 305 305 308 313 315 314 314 315 315 314 315 316 317 317 318 319
306 308 309 309 309 308 307 303 304 307 307 307 307 307 305 306 307 307 307 310 311 311 311 312 311 310 310 310 309 310 305 306 306 310 311 313 314 315 316 316 315 315 316 318 320
307 310 311 310 308 309 303 306 306 307 306 307 307 306 306 306 306 306 308 309 310 310 308 309 309 309 310 309 309 308 309 307 305 311 313 313 314 316 316 316 316 316 315 320 329
306 310 310 309 307 308 301 304 306 307 306 308 307 306 306 307 307 306 309 308 309 309 308 308 308 309 309 308 306 309 310 309 306 308 312 314 315 314 316 316 315 316 318 323 333
307 305 310 308 306 302 300 305 307 307 307 308 307 307 307 307 307 307 308 309 308 308 309 309 308 311 309 308 309 309 310 310 309 309 309 312 313 314 313 314 315 323 322 332 336
307 308 307 306 299 298 302 305 307 308 308 308 308 307 306 306 307 308 308 308 307 309 309 309 307 308 306 310 311 310 312 311 312 311 313 311 312 313 313 313 319 326 333 334 336
308 304 306 305 304 303 304 306 307 307 308 308 307 307 307 307 306 307 308 308 308 309 310 309 306 307 307 308 309 310 312 313 313 313 314 313 312 313 313 314 315 331 333 333 337
307 303 305 301 302 304 304 304 307 307 308 307 307 307 308 310 308 307 307 308 308 309 309 307 309 308 308 309 311 311 312 313 314 313 315 314 314 314 314 316 316 327 333 335 336
297 303 303 302 304 305 305 306 307 307 307 307 309 307 307 307 308 309 309 308 308 308 308 309 308 310 310 310 309 313 312 312 314 313 313 313 314 315 316 324 329 329 333 335 335
298 298 301 303 303 303 304 306 306 307 307 307 308 308 307 307 307 307 307 307 307 308 307 308 309 309 309 308 310 313 313 313 313 312 312 314 315 316 317 320 329 331 334 335 335

GFSSW_850_thetae_030.txt.gz
Theta_e
299 300 300 300 300 300 300 300 300 300 300 300 300 300 300 300 300 301 303 305 305 307 309 310 312 317 322 326 324 321 317 317 319 321 322 324 323 327 329 329 329 330 330 330 331
300 300 300 300 300 300 300 300 300 300 300 300 300 300 300 300 301 302 303 304 304 306 306 307 310 318 319 318 328 319 316 316 317 319 322 322 321 322 324 323 326 328 328 329 331
300 300 300 300 300 300 300 301 300 300 300 300 300 300 300 300 301 305 310 308 307 306 307 307 308 312 320 317 322 326 324 316 316 319 320 321 321 323 324 323 326 325 327 326 328
300 300 300 300 300 300 300 300 300 300 302 302 301 300 300 301 299 305 308 308 306 306 306 313 312 313 312 321 322 326 327 325 323 320 322 321 323 325 325 325 325 326 327 326 326
300 300 300 300 300 299 299 300 304 305 305 306 306 302 303 304 304 304 303 303 303 303 305 315 310 314 311 312 320 325 324 328 328 328 328 328 330 330 330 329 327 328 327 327 326
300 300 300 300 299 299 301 304 305 305 305 306 307 305 305 305 304 307 307 306 306 306 303 309 311 312 312 311 316 315 319 321 326 325 325 325 325 324 326 326 326 326 326 326 325
300 300 300 300 300 300 303 305 306 307 306 307 305 305 306 304 306 309 310 310 308 309 306 304 310 313 311 311 313 313 313 313 314 317 319 322 322 323 324 324 325 325 325 325 324
300 300 300 300 300 301 302 303 304 305 307 307 305 307 307 305 307 308 307 307 308 307 306 303 308 310 311 312 313 314 311 314 316 313 316 320 323 323 324 324 324 324 324 325 325
300 300 300 300 300 301 302 303 303 303 304 307 306 308 307 307 307 307 308 307 309 308 306 305 307 307 310 309 310 312 315 312 314 315 316 318 321 321 323 323 322 322 323 323 324
300 300 300 300 300 301 303 303 303 305 306 306 307 307 307 307 307 308 307 307 308 308 307 306 307 305 305 309 313 313 314 316 315 315 316 316 318 319 320 321 321 321 322 323 323
300 300 300 301 301 303 304 304 306 305 305 306 306 305 306 307 307 307 307 307 307 307 306 306 304 305 308 310 311 310 312 314 314 315 316 316 317 317 317 317 318 319 319 320 321
300 300 300 301 302 304 304 306 307 306 305 306 306 306 307 307 307 307 307 306 306 306 305 304 304 306 307 308 309 309 310 310 312 313 314 314 314 313 314 315 317 318 318 319 320
301 300 300 303 303 304 305 307 307 307 305 306 306 307 307 306 307 307 307 306 305 305 304 304 305 307 308 308 309 309 309 310 312 313 313 313 315 315 314 314 315 316 317 318 319
301 301 301 303 305 306 306 307 307 307 301 304 306 307 306 306 306 308 309 307 306 305 305 304 304 305 306 307 307 307 310 311 313 313 314 313 315 314 314 314 314 315 316 317 318
302 301 301 304 306 307 307 308 308 306 299 304 306 306 306 306 306 307 307 308 307 307 307 306 305 305 304 305 307 308 309 309 309 310 311 312 312 314 313 313 312 313 314 315 316
302 303 302 304 308 307 307 308 307 301 300 307 306 306 306 306 305 306 307 308 308 310 309 307 306 305 304 305 306 307 309 309 310 310 311 311 312 313 312 313 312 313 314 316 317
304 304 302 306 308 307 307 307 302 301 305 307 306 306 306 305 305 307 306 308 310 311 311 310 306 307 306 305 305 305 306 308 310 311 311 311 312 313 312 312 313 313 315 317 318
305 306 307 308 309 308 307 300 300 307 306 306 306 306 305 304 305 306 306 309 310 310 311 312 310 308 309 305 305 304 304 307 313 312 309 313 313 313 312 313 314 314 316 316 317
305 309 309 310 309 308 306 302 302 305 307 306 306 307 304 305 305 305 305 308 309 310 310 312 312 311 310 310 308 307 304 305 305 307 308 310 311 312 313 313 313 313 316 317 320
305 310 310 310 308 308 303 306 304 306 306 306 307 306 305 305 305 305 305 307 309 309 308 309 310 309 311 310 309 307 307 305 303 308 311 311 311 313 313 313 314 313 312 317 320
304 310 310 308 307 307 300 303 305 306 307 308 307 309 306 306 305 306 306 307 308 308 307 307 307 308 308 308 305 308 308 308 304 306 311 313 312 311 312 312 312 312 318 328 321
305 305 308 306 304 299 299 303 305 306 307 308 307 308 307 306 306 306 307 308 307 308 308 308 308 310 309 307 307 307 308 309 308 309 306 308 309 309 311 311 311 314 329 331 330
306 306 307 306 297 296 301 304 305 307 307 308 308 308 307 307 308 307 307 308 307 307 308 308 306 308 307 309 308 309 310 308 309 310 310 309 309 310 310 311 313 313 329 333 337
306 302 305 304 303 302 305 305 306 306 307 307 307 307 308 306 306 307 307 307 307 308 309 308 305 306 305 308 308 309 310 309 312 312 310 309 310 311 311 312 313 316 324 333 336
301 302 304 299 300 300 304 305 305 308 307 307 307 308 309 308 308 307 307 307 307 308 308 305 308 307 307 308 309 309 310 310 311 312 314 313 313 313 312 312 313 317 325 334 336
299 299 301 301 301 301 302 304 306 307 306 307 307 307 308 308 308 308 308 308 309 308 307 306 308 308 308 308 309 311 309 309 310 311 311 313 313 311 312 313 314 320 329 333 335
303 298 300 300 299 299 300 304 304 304 306 306 307 307 307 307 307 307 306 306 307 308 308 308 309 308 307 308 308 307 306 307 308 311 311 313 311 311 313 315 317 322 329 333 335

GFSSW_850_thetae_033.txt.gz
Theta_e
300 300 300 300 300 300 301 300 300 300 300 300 300 300 301 301 302 302 303 302 303 304 306 308 311 316 316 324 321 320 321 321 319 320 319 323 325 327 327 329 328 329 330 329 332
300 300 300 300 300 300 300 300 300 300 300 300 300 300 300 301 302 302 308 306 306 305 305 306 307 314 322 321 326 321 323 321 320 319 321 320 322 325 325 327 327 328 327 328 329
300 300 300 300 300 300 300 300 300 301 302 303 303 302 302 303 302 304 308 308 308 304 305 307 307 313 319 317 324 326 324 322 320 319 319 321 321 322 324 326 326 327 325 325 327
300 300 300 300 300 299 299 301 303 303 303 304 304 305 305 304 303 304 305 306 303 303 304 312 311 310 314 320 320 322 324 324 322 319 319 319 319 320 321 322 324 324 326 326 327
300 300 300 300 299 300 301 304 305 305 305 305 305 305 304 304 304 306 309 306 305 306 306 307 312 311 313 314 318 322 321 323 324 324 322 322 324 324 326 326 327 328 328 328 327
300 300 300 300 300 300 302 303 305 305 305 306 306 304 304 306 304 308 310 308 308 307 307 305 314 311 313 313 315 318 320 321 322 326 327 327 327 327 327 327 327 326 326 326 326
300 300 300 300 300 300 301 302 304 303 303 304 306 305 305 304 307 307 308 308 308 308 307 307 305 312 311 312 313 314 316 317 320 322 325 325 327 327 326 326 325 325 326 325 326
300 300 300 300 300 300 302 302 302 302 304 305 305 306 306 307 307 307 307 307 307 308 308 305 304 305 313 312 312 314 315 317 318 317 319 321 324 325 323 323 324 324 325 325 325
300 300 300 300 300 301 302 302 302 303 305 305 306 306 307 307 307 307 307 307 307 308 307 305 305 306 309 313 313 314 316 317 317 318 318 320 323 323 322 323 324 325 325 325 324
300 300 300 300 301 301 302 302 304 305 305 306 306 307 306 307 306 307 307 307 307 307 307 306 307 309 310 313 315 314 315 315 317 318 318 319 321 322 322 322 323 324 323 323 324
301 300 300 300 302 303 303 303 304 305 305 306 306 306 306 307 305 306 307 307 306 306 309 307 308 308 309 311 313 314 314 316 316 317 318 319 320 320 320 320 321 321 321 321 321
301 301 300 301 303 303 305 305 306 306 307 306 306 306 306 306 306 306 307 307 306 308 308 308 308 308 308 309 311 312 313 314 314 315 316 319 319 319 319 319 319 319 320 320 320
301 301 301 301 303 305 305 306 307 307 306 307 306 306 306 306 306 306 308 307 307 306 307 309 309 307 308 309 310 311 313 313 314 314 315 316 318 319 319 318 318 318 318 319 319
301 302 302 301 305 306 306 307 307 307 308 306 307 306 306 306 306 305 307 307 307 307 307 307 308 307 308 308 309 311 311 312 313 315 317 316 319 319 319 319 319 318 318 318 318
301 303 303 301 305 307 307 307 307 306 306 305 307 306 306 306 306 305 307 307 309 309 309 309 308 306 307 307 308 309 310 311 311 312 314 315 316 317 318 318 318 319 317 317 317
301 305 303 303 307 307 307 307 307 306 304 306 306 306 307 306 305 306 307 306 308 309 310 310 309 308 308 307 307 308 309 310 311 312 314 314 315 317 316 318 317 318 316 317 317
302 305 303 307 308 308 308 307 307 306 305 307 306 307 307 306 306 306 307 307 311 312 312 310 311 310 309 307 307 307 309 310 311 313 314 313 314 316 317 316 316 317 317 317 318
303 306 308 309 309 308 308 304 305 306 306 306 307 307 307 305 306 306 307 307 309 311 313 314 313 308 309 309 308 308 308 310 309 311 312 312 314 315 316 316 316 316 317 318 318
303 309 309 309 308 307 306 307 306 306 307 307 307 307 307 305 306 306 306 307 309 310 310 312 311 310 311 311 309 309 308 309 310 311 312 312 313 313 314 315 316 317 319 322 323
302 310 310 309 307 307 307 307 306 306 307 307 308 308 308 307 308 307 307 307 308 308 309 310 312 310 310 310 311 310 310 309 309 310 311 312 312 314 315 315 317 319 322 324 332
303 309 308 309 307 306 309 306 306 306 306 308 308 308 308 309 307 307 307 306 308 308 308 310 310 309 309 310 310 311 311 310 310 310 312 314 315 316 317 316 317 317 320 329 333
303 309 307 306 307 301 306 305 305 306 307 307 308 309 308 308 308 308 308 307 307 307 308 309 311 310 308 308 309 309 309 312 313 311 310 311 313 315 316 315 316 315 316 324 333
303 304 306 302 308 306 304 305 305 306 307 307 308 308 308 308 309 308 308 307 307 307 308 309 310 310 308 311 310 310 310 311 313 312 313 312 312 314 314 315 315 315 315 318 333
302 306 304 304 302 304 304 305 304 306 307 307 307 307 308 307 308 309 308 307 307 307 308 309 309 309 310 309 309 310 310 310 311 314 313 313 313 313 313 315 315 314 316 319 333
301 303 302 304 302 301 302 304 305 306 307 306 307 307 310 310 307 308 308 308 307 307 308 309 310 309 309 309 309 309 310 310 310 311 313 313 313 313 314 315 314 315 316 318 329
303 300 300 300 300 303 303 304 305 306 304 305 307 307 307 307 308 308 307 308 310 309 309 309 311 309 308 308 308 308 308 309 310 310 311 311 312 313 313 313 314 314 315 317 326
304 301 299 301 302 302 303 303 303 303 303 306 306 307 307 307 307 307 307 307 307 308 309 310 311 310 309 307 308 309 309 309 309 310 311 311 311 311 313 314 315 317 320 320 327

GFSSW_850_thetae_036.txt.gz
Theta_e
300 300 300 300 300 300 300 300 300 300 301 301 301 301 301 302 302 305 307 305 303 302 304 307 309 319 322 326 324 323 326 327 325 324 322 322 323 324 328 331 332 332 334 334 339
300 300 300 300 300 300 300 300 300 302 302 302 302 303 303 303 304 310 308 307 306 305 309 309 310 315 320 322 325 325 328 328 326 325 321 321 323 324 328 331 332 331 331 331 337
300 300 300 300 300 300 300 301 302 302 303 303 303 304 303 304 308 310 307 306 305 305 310 310 312 311 319 323 323 326 328 328 327 325 322 321 322 323 325 330 332 332 330 329 329
300 300 300 300 300 300 301 303 303 303 303 303 304 304 304 304 309 307 307 308 306 305 309 314 314 312 316 321 322 326 327 327 326 326 321 321 322 323 323 324 329 329 329 328 329
300 300 300 300 300 300 301 303 303 303 302 302 304 305 305 309 306 306 309 308 309 308 308 308 314 314 315 317 320 323 324 325 326 326 325 322 322 324 324 323 323 324 324 327 329
300 300 300 300 300 300 301 302 303 303 302 303 305 306 309 309 307 307 308 307 310 309 309 308 311 313 315 316 317 319 321 323 323 324 325 326 326 326 326 326 327 328 329 328 328
300 300 300 300 300 300 301 302 303 302 302 304 306 306 310 308 307 307 309 310 309 309 310 309 308 311 314 315 315 316 318 319 322 323 324 325 328 328 327 328 329 329 329 328 328
300 300 300 300 300 301 302 302 302 303 304 305 306 309 311 307 307 308 309 309 309 309 309 309 308 308 309 313 315 315 317 319 320 321 322 323 327 329 327 327 328 328 328 328 328
301 300 300 300 301 301 302 302 303 304 305 306 309 311 309 308 307 307 308 309 309 309 309 308 308 308 308 312 315 317 317 318 319 320 321 322 326 326 325 326 327 327 327 327 327
301 301 300 300 301 302 303 303 303 304 305 306 307 311 308 307 307 306 308 309 309 309 309 310 309 311 311 311 313 315 317 317 318 320 320 321 323 323 324 325 326 326 326 326 327
300 301 301 300 302 303 305 308 310 309 308 309 309 308 307 307 307 307 308 308 309 309 311 311 311 311 311 311 311 313 316 317 318 318 319 321 322 322 323 323 324 325 325 326 326
299 301 302 301 303 305 306 308 308 308 309 308 308 308 308 307 307 307 307 308 309 310 310 311 312 311 310 310 311 312 314 317 318 317 319 320 321 322 322 323 323 323 324 324 324
298 301 302 301 303 306 307 308 308 308 310 308 308 307 308 307 307 307 306 307 309 310 310 310 310 311 310 310 310 311 312 314 316 317 319 320 321 322 322 322 321 322 322 322 322
299 301 304 301 305 306 309 308 308 308 312 308 309 308 307 307 308 306 307 308 309 309 310 310 309 309 310 310 310 310 311 312 313 316 318 319 321 321 322 322 322 322 321 321 321
302 303 304 301 305 309 308 308 308 308 311 307 308 306 307 307 307 307 307 308 309 309 310 311 310 311 310 310 310 310 311 311 313 315 316 317 319 320 321 322 322 323 321 321 321
304 306 302 305 308 308 308 307 307 311 311 308 308 308 309 308 307 307 307 307 308 311 311 311 311 312 312 311 310 310 310 310 313 315 318 318 319 320 320 321 321 322 320 320 320
304 305 305 307 310 308 308 308 312 310 308 309 308 309 309 309 308 308 308 308 309 311 310 311 312 313 312 311 310 310 309 310 311 315 316 316 317 318 320 320 320 320 319 320 320
305 307 307 309 308 307 309 309 310 308 308 309 309 310 309 308 309 309 309 308 309 311 312 313 311 313 311 311 311 310 310 309 311 313 313 314 316 317 318 319 318 318 319 320 321
306 309 309 309 308 307 309 310 309 309 308 309 309 309 309 309 309 309 309 308 309 310 312 312 311 310 312 313 311 311 312 311 311 311 315 314 316 317 318 318 319 320 322 325 327
304 310 310 309 308 308 309 308 308 308 308 309 310 309 310 309 310 309 309 308 308 308 309 310 313 310 311 310 311 312 311 314 311 313 313 314 315 317 318 317 318 320 323 323 332
307 311 308 308 307 309 309 307 307 307 307 309 309 309 310 309 309 309 309 308 308 309 309 309 310 311 310 310 310 311 313 314 314 311 311 314 315 317 318 319 320 320 320 320 330
307 311 308 306 309 308 308 305 305 308 308 309 309 310 310 310 310 309 309 309 308 308 309 309 311 311 310 310 310 310 313 313 319 314 313 315 318 320 320 319 320 320 319 320 331
306 307 307 303 309 307 305 305 306 308 309 308 309 309 309 309 310 309 309 308 308 309 309 310 311 311 310 312 312 311 311 311 312 315 319 314 317 319 318 318 318 318 317 318 325
304 309 308 305 305 305 306 306 307 306 307 308 309 308 309 309 310 309 310 309 308 308 308 309 312 311 312 311 310 310 311 311 312 314 314 315 316 317 318 317 318 318 316 317 319
303 306 305 308 308 306 307 306 306 307 308 308 308 308 309 310 310 310 309 308 309 308 309 310 313 311 311 310 310 310 310 310 311 312 312 313 315 315 316 317 317 316 315 316 318
305 304 305 306 305 307 306 306 306 306 306 306 307 308 308 309 309 310 309 310 310 309 309 310 314 311 312 310 310 310 310 309 309 311 312 312 312 313 313 313 313 314 315 316 319
303 303 301 304 306 305 306 306 306 306 305 305 306 307 308 308 308 308 308 308 309 308 309 311 310 312 313 311 311 311 310 310 310 310 311 312 312 313 313 313 314 313 314 317 318

GFSSW_850_thetae_039.txt.gz
Theta_e
300 300 300 300 300 300 300 300 300 301 302 302 302 303 303 303 303 310 312 310 309 305 305 309 312 313 321 323 325 327 329 330 329 327 326 326 326 325 327 328 332 334 336 337 338
300 300 300 300 300 300 300 301 302 302 303 303 303 303 303 304 305 313 311 307 307 307 310 312 313 314 319 323 326 329 331 330 329 328 327 326 325 325 326 328 332 334 334 336 340
300 300 300 300 300 300 300 302 303 303 303 303 303 304 305 304 314 315 310 306 306 304 310 311 313 315 316 321 323 327 331 330 329 328 328 327 325 324 326 329 331 334 334 335 340
300 300 300 300 300 300 301 302 302 302 303 302 303 305 304 311 315 310 308 308 308 308 310 312 314 314 317 319 322 326 326 328 329 328 328 328 324 325 325 326 326 333 334 333 334
300 300 300 300 300 300 301 302 302 302 302 302 304 306 310 314 310 309 308 311 311 311 311 310 312 316 318 318 319 324 325 325 326 327 328 328 326 326 325 325 326 329 332 332 331
300 300 300 300 300 300 300 302 302 302 302 303 305 306 315 315 309 310 310 311 311 311 312 311 311 313 316 318 319 319 322 323 324 325 326 328 329 328 327 325 326 325 326 329 330
301 300 300 300 300 300 301 302 302 302 303 304 306 306 314 311 309 310 311 311 311 311 311 312 311 311 313 318 316 318 320 320 322 323 325 326 327 328 327 328 327 326 326 327 328
301 301 300 300 300 301 301 302 302 302 303 305 306 312 315 309 309 309 309 309 310 310 311 311 311 311 311 311 314 317 319 320 321 321 322 323 327 327 326 328 328 328 329 329 331
300 301 301 301 301 301 302 303 303 303 304 305 311 315 314 309 309 308 308 309 309 310 310 311 311 311 312 312 312 314 318 320 319 320 321 322 325 325 325 326 328 329 329 329 330
298 300 301 301 301 302 304 307 308 307 308 312 312 312 313 310 309 308 308 309 309 310 311 311 313 314 314 313 313 314 315 317 318 320 321 321 323 324 324 325 326 327 328 329 329
302 298 301 302 301 303 305 312 313 315 312 310 311 311 309 309 308 309 309 309 310 311 313 313 314 315 315 315 315 314 314 315 317 319 320 320 322 323 323 323 324 326 328 328 328
308 301 301 302 301 304 310 311 310 310 311 310 310 309 309 309 309 309 308 309 310 311 312 312 313 313 314 314 313 313 313 314 315 316 320 321 321 322 323 324 323 324 325 327 328
307 304 303 304 302 309 309 310 309 310 312 312 310 309 310 308 309 309 309 308 310 311 311 312 312 312 312 312 312 312 312 313 314 316 318 320 321 322 322 322 322 322 323 324 325
307 304 305 303 308 309 312 310 310 310 314 313 310 310 308 309 311 309 308 308 310 310 310 311 311 311 311 311 312 313 313 312 313 314 315 318 322 322 323 323 323 323 323 323 323
307 304 303 302 311 312 311 310 309 311 318 311 310 309 309 310 310 310 308 308 310 310 310 310 311 311 312 312 313 312 313 312 312 313 314 315 318 320 322 323 323 324 323 323 323
307 305 303 307 311 311 310 310 311 317 316 311 310 310 311 311 311 310 309 309 309 310 311 312 312 313 312 312 313 313 312 312 313 313 314 315 317 318 320 321 323 324 323 323 323
307 305 305 309 313 310 310 311 316 316 312 311 311 311 312 312 311 311 311 311 310 310 310 311 312 313 313 315 314 313 312 311 312 312 314 315 318 318 320 320 321 323 322 322 323
307 306 308 311 311 311 311 314 315 312 311 311 311 312 312 311 311 310 311 310 309 311 312 312 314 312 311 315 315 314 312 311 311 311 312 314 315 318 320 321 321 320 320 320 322
307 312 312 313 311 310 311 315 314 312 310 310 311 312 312 311 310 310 311 310 309 309 312 312 312 311 312 314 312 314 313 314 314 313 314 313 314 317 318 320 321 321 321 322 324
307 312 314 311 311 310 314 314 312 310 309 311 312 312 312 311 312 311 311 310 310 310 310 310 311 311 312 313 313 313 315 316 315 313 312 313 315 317 317 319 321 322 324 324 324
311 311 312 308 308 311 315 312 309 308 308 311 312 312 311 311 312 311 311 311 311 310 310 310 311 311 311 313 314 314 314 315 316 315 315 313 317 317 320 319 320 322 322 323 328
309 314 311 307 311 313 313 308 306 309 310 311 311 311 312 311 311 311 311 311 311 310 310 311 312 312 311 312 313 311 311 313 315 314 317 316 316 317 321 324 321 322 321 322 331
308 309 310 308 315 313 311 310 308 309 310 310 310 310 311 311 311 313 312 310 310 311 311 313 312 314 312 311 314 314 314 314 315 315 318 319 320 319 322 322 321 321 320 320 324
307 311 310 308 309 310 312 311 309 308 309 309 310 310 311 312 311 311 311 311 310 310 310 310 313 313 313 311 312 313 313 313 316 317 316 316 315 314 317 320 320 320 319 318 321
308 310 308 310 310 310 310 311 310 309 309 308 309 310 309 311 311 311 311 311 311 310 311 311 313 312 312 312 311 311 311 311 311 312 313 313 312 314 316 317 319 318 316 318 320
306 306 305 306 309 308 309 311 311 309 310 309 309 310 309 310 310 311 310 312 313 311 312 311 315 313 313 312 312 311 311 311 311 311 311 311 311 313 314 314 315 316 316 316 320
303 304 304 305 309 309 308 308 308 307 308 308 309 309 311 311 310 310 310 311 312 311 311 313 312 313 314 312 312 313 312 311 311 311 311 311 312 313 314 315 316 315 315 316 318

GFSSW_850_thetae_042.txt.gz
Theta_e
300 300 300 300 300 300 300 300 301 302 303 303 303 303 303 303 304 305 315 313 311 311 310 308 311 314 315 317 323 324 329 331 329 329 328 328 327 327 326 326 328 330 334 337 338
300 300 300 300 300 300 300 301 302 303 302 302 303 303 305 305 304 314 313 311 309 307 305 312 314 314 315 318 321 323 328 329 329 329 329 328 327 326 326 326 328 329 334 337 338
300 300 300 300 300 300 300 301 302 302 302 302 303 304 305 304 318 316 315 307 306 305 307 312 312 315 316 317 320 323 327 328 329 329 329 329 329 327 326 326 327 329 333 335 339
300 300 300 300 300 300 300 301 302 302 302 302 303 305 306 312 317 313 309 308 312 312 313 312 312 314 316 318 318 322 324 326 327 328 328 330 330 329 327 326 326 327 331 335 335
300 300 300 300 300 300 300 301 302 302 302 302 304 306 310 320 315 310 310 311 312 314 313 312 312 314 317 317 318 319 321 323 324 325 326 327 329 329 328 326 326 326 326 333 334
301 301 300 300 300 300 301 301 302 302 302 303 305 306 315 319 311 311 311 312 312 312 312 313 314 313 313 315 318 318 319 320 321 323 325 326 327 328 329 328 327 326 326 333 333
299 300 301 301 300 301 301 301 302 302 302 303 306 306 315 316 311 311 311 311 311 312 312 312 313 313 313 314 315 317 318 319 320 320 322 324 326 327 328 328 329 328 327 327 333
298 298 301 301 301 301 301 302 302 303 303 304 306 307 317 311 309 310 309 310 311 310 311 312 312 312 312 313 313 314 316 318 319 320 321 321 324 325 325 327 328 329 329 329 327
307 302 299 301 302 301 302 303 305 306 305 304 308 315 316 312 311 310 309 310 310 311 311 311 311 312 312 314 314 314 314 314 316 319 320 321 322 324 323 325 327 327 328 329 329
308 308 301 301 302 301 303 305 310 310 312 315 315 314 314 312 310 309 310 310 310 311 312 313 313 315 316 314 313 314 314 315 315 316 318 320 322 323 323 323 325 326 328 328 330
308 308 305 301 302 302 307 313 315 317 317 315 312 313 312 311 310 310 310 310 311 312 313 313 314 315 316 317 316 316 315 315 316 316 316 317 321 322 323 323 324 325 326 326 326
307 308 304 304 303 302 311 314 311 310 312 311 311 311 310 310 310 311 310 310 311 311 312 313 313 314 314 314 315 315 315 315 315 315 316 317 318 320 323 323 324 325 325 325 327
307 308 304 305 303 310 312 312 311 311 312 313 312 311 311 311 310 311 311 310 311 311 312 312 312 313 313 313 313 314 314 314 314 314 314 315 317 320 320 323 322 322 324 325 325
306 308 304 304 312 311 314 312 311 311 314 314 312 311 310 310 312 311 310 309 310 311 311 312 312 311 312 312 312 312 313 313 314 314 313 314 316 319 320 322 324 323 323 324 325
305 307 303 303 305 314 312 311 311 312 322 313 312 310 310 311 311 313 311 310 311 311 311 310 311 312 312 312 313 313 314 314 313 314 314 313 314 315 317 320 322 325 323 324 324
304 307 304 313 314 313 310 311 314 319 321 313 312 312 312 313 313 312 311 311 311 312 312 311 312 312 313 314 314 315 314 314 314 315 314 313 314 315 316 318 320 323 324 323 324
303 307 304 308 314 312 311 313 317 320 314 313 313 312 313 313 313 312 311 312 312 311 310 311 312 313 313 314 313 316 315 316 314 315 314 313 314 316 317 317 318 321 322 322 322
305 307 306 309 312 312 311 315 318 316 315 312 312 312 313 314 313 312 311 312 312 310 310 311 311 312 313 312 313 314 315 318 314 312 312 313 313 314 316 317 318 318 320 321 322
307 313 312 314 313 311 311 317 317 313 312 311 311 314 313 313 312 312 312 312 311 310 310 311 311 311 311 312 314 314 313 315 316 316 317 313 312 313 315 316 317 320 320 322 321
305 312 314 314 312 311 313 317 315 312 311 310 311 313 313 312 312 312 313 312 312 312 311 311 312 311 310 311 313 315 313 315 317 319 314 313 312 313 315 318 317 320 323 322 324
311 314 314 312 310 312 317 315 313 310 308 310 312 313 312 312 313 312 312 312 313 313 313 312 311 312 313 312 312 314 315 315 316 316 315 315 314 316 320 319 317 320 321 324 324
311 314 314 309 310 315 315 312 310 310 310 311 312 312 311 312 311 311 311 312 312 311 312 313 313 314 312 312 312 312 313 315 312 314 315 315 316 318 317 314 314 314 322 323 325
311 312 312 310 316 313 312 313 312 310 310 310 311 312 312 311 312 312 313 312 311 312 313 313 313 314 311 311 313 314 314 313 315 317 317 317 316 315 314 312 313 315 320 320 320
311 314 312 309 311 313 312 312 313 312 310 310 311 310 311 312 311 312 312 312 311 312 311 311 313 313 314 312 313 313 313 313 314 317 316 316 316 316 314 313 314 315 317 319 320
311 311 310 310 310 312 311 310 313 313 311 310 311 310 311 313 311 311 312 312 312 312 313 311 314 313 312 312 311 313 314 313 314 313 314 311 311 313 315 314 313 313 316 318 319
307 307 306 306 310 311 310 311 311 312 311 310 310 311 311 311 311 312 312 313 315 313 314 313 317 313 314 312 311 312 311 312 311 311 311 311 311 312 313 314 314 315 316 317 318
306 305 304 306 310 311 311 310 309 308 309 309 309 310 310 311 310 310 311 312 314 314 312 312 314 314 315 311 314 314 312 314 313 312 311 310 313 314 312 313 316 315 316 316 317

GFSSW_850_thetae_045.txt.gz
Theta_e
300 300 300 300 300 300 300 300 301 302 302 302 302 303 303 304 305 304 305 314 313 312 312 311 309 311 314 315 320 322 321 330 330 329 328 328 326 327 327 326 326 326 327 336 340
300 300 300 300 300 300 300 301 302 302 302 302 302 303 304 305 305 308 314 314 312 311 307 308 313 313 313 315 315 319 321 323 327 327 327 327 327 327 327 325 326 326 327 336 337
300 300 300 300 300 300 300 300 301 302 302 302 302 303 305 306 318 317 315 309 307 306 305 309 312 311 314 315 315 318 321 322 323 325 327 328 328 328 328 326 325 325 325 335 337
300 300 300 300 300 300 300 300 301 302 302 302 302 304 306 310 318 314 309 310 312 313 313 313 312 311 312 313 316 314 317 321 322 323 323 324 326 327 327 328 327 326 326 326 329
299 300 301 300 300 301 301 301 301 302 302 302 302 305 307 319 319 311 311 312 313 313 313 314 313 312 310 313 314 314 316 317 320 323 323 324 324 325 325 327 328 328 327 327 326
300 299 300 301 301 301 301 301 301 302 302 302 303 305 309 318 312 311 311 312 312 312 312 312 313 313 313 312 310 313 313 315 317 318 319 322 323 324 325 325 327 329 328 328 327
307 306 301 300 301 301 301 301 301 302 303 302 304 306 309 308 311 311 311 310 310 311 312 312 312 312 312 311 313 313 311 313 315 316 317 319 319 321 324 325 325 328 329 329 328
308 308 308 302 301 302 301 302 302 304 306 304 304 306 310 313 311 310 310 309 310 310 310 310 311 312 312 312 312 311 311 310 314 315 317 317 317 319 320 322 324 326 327 327 329
304 308 308 307 301 302 302 302 304 308 309 304 306 313 316 315 312 310 309 310 310 310 311 312 312 311 312 310 309 310 309 310 311 312 314 315 317 318 319 320 323 324 325 327 327
302 306 308 305 302 302 302 307 311 313 312 316 313 315 315 315 311 310 310 310 310 310 312 313 312 310 310 310 310 310 310 311 312 312 312 312 313 316 319 320 321 322 323 326 327
300 306 308 304 304 302 310 314 313 317 312 317 318 316 313 312 311 310 310 310 310 310 309 311 309 309 310 311 313 313 313 314 314 314 313 312 313 314 315 316 318 320 321 322 324
300 305 307 304 303 302 310 313 311 310 311 311 311 311 311 311 310 311 311 311 311 309 309 309 309 311 312 311 312 312 311 312 313 314 313 313 313 313 314 314 316 318 320 321 323
309 303 307 305 311 311 312 313 311 311 310 311 313 312 312 311 311 311 311 310 310 309 309 309 310 311 311 310 310 310 311 311 311 312 313 313 312 312 313 314 315 317 319 322 322
310 303 306 304 314 313 314 312 311 311 310 315 312 311 311 310 311 311 311 310 310 309 309 309 310 310 310 310 311 310 312 313 313 312 310 313 312 312 312 313 314 316 318 321 321
310 304 306 305 310 313 311 311 312 312 321 314 311 311 311 310 312 312 311 310 310 310 310 309 310 309 310 312 313 313 313 313 314 313 312 311 310 311 312 313 313 313 315 316 320
310 305 306 313 314 314 312 311 312 317 321 311 312 312 311 312 313 313 312 312 311 310 310 310 311 312 312 313 314 313 313 313 313 311 313 312 312 312 311 312 313 313 316 316 317
310 305 306 306 313 313 311 312 315 320 315 312 312 312 311 311 313 313 312 310 309 310 309 309 309 310 313 313 312 311 312 316 313 311 313 312 313 312 311 312 313 314 315 316 316
310 309 306 306 312 312 311 312 319 317 313 312 311 311 312 313 312 312 311 310 312 310 308 309 310 310 313 312 311 310 313 313 316 316 317 313 313 311 312 312 315 315 315 316 316
309 309 314 312 312 311 311 315 318 315 311 310 310 311 313 313 312 312 311 312 312 311 311 310 311 311 311 311 311 310 314 315 315 315 316 313 312 312 314 315 314 313 314 314 316
310 315 315 315 313 310 311 315 315 311 310 309 309 312 313 312 312 311 311 312 313 312 311 311 312 311 311 311 311 310 312 313 315 317 315 313 311 314 317 315 313 313 313 315 318
313 315 315 313 310 312 314 315 313 311 310 310 311 312 312 312 311 310 311 311 312 312 311 311 312 312 311 311 310 311 314 314 313 314 314 313 313 318 315 313 313 312 313 314 318
312 313 315 310 310 315 315 313 312 312 310 311 312 312 313 312 311 310 311 313 312 312 313 312 312 312 311 311 311 312 314 313 315 316 315 315 314 314 312 312 313 312 313 314 318
311 313 313 310 313 311 312 311 311 312 311 310 310 311 311 311 311 312 312 312 312 312 313 312 311 313 311 310 311 312 311 311 312 312 314 315 314 314 313 313 312 313 314 316 317
311 312 313 309 308 311 311 311 310 311 313 311 311 310 311 311 310 312 311 311 311 311 312 311 312 312 313 311 310 312 312 312 312 312 313 314 314 314 314 314 314 314 314 316 315
309 310 308 309 307 308 310 311 311 311 311 310 310 309 310 310 310 310 310 310 311 312 313 312 314 312 313 313 313 312 312 312 312 312 313 312 312 311 314 314 314 313 313 314 314
306 305 305 305 308 310 310 312 310 309 309 309 310 310 309 308 309 309 309 310 310 311 312 312 314 313 313 313 313 313 312 312 313 313 314 313 314 314 313 311 312 313 313 313 314
304 305 305 305 308 307 308 309 309 308 308 309 308 308 308 309 309 310 310 310 309 311 311 307 311 313 312 313 313 311 313 315 314 314 314 314 313 314 315 314 312 312 313 313 314

GFSSW_850_thetae_048.txt.gz
Theta_e
300 300 300 300 300 300 300 300 301 302 302 302 302 302 303 304 305 305 305 306 311 313 313 311 311 311 313 314 318 320 318 327 331 331 329 328 326 327 327 327 328 325 329 331 338
300 300 300 300 300 300 300 300 301 301 302 302 302 302 303 305 308 312 311 312 307 307 309 307 309 312 311 314 314 316 317 321 323 327 328 326 326 326 327 326 327 327 326 334 338
299 300 300 300 300 300 300 301 301 301 301 302 302 302 304 307 317 316 313 309 309 311 305 306 312 311 311 313 314 315 316 319 321 322 323 323 324 324 324 325 326 326 326 326 335
301 299 300 300 300 300 300 301 301 301 301 302 302 302 305 312 315 311 310 312 313 313 313 313 312 311 310 311 314 312 314 315 318 319 320 321 321 321 322 324 325 326 326 327 326
307 306 304 300 301 301 301 301 301 301 301 302 302 303 305 316 319 311 311 312 312 312 312 312 313 311 309 310 311 311 312 314 314 316 319 321 321 322 322 323 323 324 325 326 328
307 308 307 307 301 301 301 301 301 301 302 302 302 304 306 314 311 311 311 311 310 311 312 312 312 312 311 311 310 311 311 311 312 313 314 315 317 319 321 322 323 324 324 326 328
302 304 307 307 307 301 302 301 301 302 303 304 303 304 306 306 311 310 310 309 309 310 312 311 311 311 311 309 312 311 310 310 311 313 313 315 316 316 318 319 320 322 323 325 325
300 301 304 307 307 302 302 302 302 303 306 308 304 305 306 313 311 310 310 309 310 310 310 310 310 311 311 312 311 310 309 309 311 311 313 315 316 317 317 317 318 319 320 322 325
307 300 305 307 304 303 302 302 306 306 309 310 307 313 315 315 312 310 310 310 310 310 310 311 311 311 311 309 308 308 308 308 309 309 310 313 313 315 316 317 317 318 319 320 322
309 304 304 307 304 303 304 312 313 314 313 316 311 314 315 314 312 310 310 310 310 310 310 311 311 308 306 308 310 310 308 309 310 311 311 311 310 311 313 314 314 315 317 319 320
309 309 303 307 304 303 312 313 310 315 310 311 314 315 316 313 310 310 310 310 310 310 308 309 306 307 308 309 311 311 311 310 311 311 312 311 311 312 312 313 312 313 314 315 317
309 310 304 305 306 305 311 312 311 310 310 311 311 311 311 311 310 310 311 310 310 308 307 306 307 309 310 309 309 308 308 308 309 311 311 310 311 312 311 311 312 313 314 314 315
309 310 305 306 311 312 313 312 311 311 309 309 312 312 312 312 310 310 311 310 309 308 308 307 308 309 310 309 309 309 308 311 312 313 312 310 310 310 311 312 313 313 313 314 315
309 310 305 304 312 311 311 310 311 312 308 314 311 311 311 310 310 310 310 310 309 308 308 308 308 309 309 309 312 312 313 313 312 312 312 311 312 311 310 311 311 312 312 313 314
309 310 305 308 311 313 313 312 310 313 318 314 311 311 310 310 311 311 311 310 309 309 308 308 309 308 309 312 312 311 313 312 313 312 311 312 309 311 310 310 311 311 312 312 313
310 310 305 307 314 313 312 311 312 315 318 311 311 311 310 310 310 311 311 310 311 308 308 308 310 311 311 312 312 313 311 311 311 311 312 311 311 311 311 310 311 312 313 313 313
310 307 306 307 313 311 310 312 312 316 314 311 310 310 310 310 311 312 312 310 308 308 307 308 308 310 312 311 311 310 308 309 311 309 311 311 311 311 310 312 313 314 313 314 315
307 312 307 307 310 311 311 310 316 315 310 311 309 310 311 311 311 312 310 309 310 308 307 307 309 309 312 311 309 308 308 308 313 313 314 313 312 311 314 314 313 313 312 312 313
311 314 314 313 313 311 311 311 316 311 310 309 310 310 313 312 311 311 310 311 311 310 310 310 311 311 310 310 310 310 311 310 309 315 317 313 311 310 314 313 312 312 312 312 312
315 314 314 313 312 311 308 313 314 312 310 310 309 311 312 311 311 310 310 311 312 310 309 310 311 311 311 310 310 309 309 309 309 314 316 313 311 310 315 313 312 311 311 311 312
313 315 314 312 310 313 310 313 312 311 310 310 310 310 311 311 310 310 310 310 312 311 310 310 310 311 310 310 309 308 310 313 312 314 316 315 310 314 314 312 311 310 311 312 313
312 311 312 310 308 309 310 311 310 310 311 310 309 311 312 311 311 310 309 312 311 311 312 311 310 311 311 311 310 310 311 312 312 316 316 316 313 310 311 311 310 310 312 313 314
311 312 313 311 304 306 308 310 310 310 312 310 309 310 310 309 309 311 311 311 310 311 312 311 308 313 309 309 309 311 311 312 311 311 312 314 311 312 312 312 311 311 313 314 313
310 306 310 309 308 307 307 309 310 310 311 310 309 308 308 309 309 309 309 310 309 310 314 311 311 310 312 312 312 311 311 312 310 310 311 311 311 311 311 312 311 312 313 312 314
306 305 304 303 304 304 306 309 309 309 309 308 308 309 308 308 308 308 308 308 309 309 311 311 314 312 312 312 312 313 313 313 313 310 312 311 311 311 311 312 311 311 312 312 313
305 305 305 304 305 306 305 307 309 309 308 308 308 308 307 307 307 307 307 307 308 308 313 311 313 314 314 312 312 313 313 312 312 312 313 313 312 311 311 314 312 312 311 312 313
303 304 305 303 303 304 303 304 307 305 306 307 306 306 306 306 307 307 307 307 307 308 309 309 311 312 313 311 313 313 314 314 314 313 313 313 311 310 313 313 313 312 314 318 319

GFSSW_850_thetae_051.txt.gz
Theta_e
299 299 300 300 300 300 300 300 300 301 301 302 302 302 302 303 305 307 306 306 308 312 313 312 311 310 311 313 317 319 319 326 328 328 327 327 325 326 325 325 324 326 326 327 337
301 299 300 300 300 300 300 300 300 300 301 301 302 302 302 305 311 316 313 311 307 306 305 308 307 311 310 312 314 313 317 321 323 326 325 324 323 323 324 323 323 324 325 327 340
307 305 304 301 300 300 300 300 300 300 301 301 302 302 303 306 316 311 309 310 312 312 306 306 311 311 311 311 313 312 316 319 320 320 321 321 321 321 320 321 322 322 323 325 327
306 307 307 306 303 300 300 300 300 300 300 301 302 302 304 309 316 311 312 312 312 312 312 313 312 311 308 310 312 311 313 314 315 315 317 318 318 319 319 320 320 322 323 323 325
301 302 305 307 307 305 300 301 301 301 301 301 302 302 304 311 317 311 311 311 312 312 312 312 311 310 308 308 310 310 311 311 312 312 313 314 317 319 319 319 320 321 322 323 324
305 300 301 304 307 307 302 301 301 301 301 302 303 302 305 308 311 311 311 310 310 309 312 311 311 311 310 310 309 310 310 310 311 311 312 313 314 315 316 317 317 318 319 320 323
309 308 301 304 307 307 302 301 301 301 302 306 307 303 304 305 311 311 310 309 309 310 310 310 310 311 310 309 310 310 309 308 310 311 312 314 313 314 316 316 317 317 318 318 322
309 309 305 304 307 305 303 302 302 302 303 308 305 304 305 312 311 310 310 309 309 310 309 310 310 310 311 311 310 308 306 306 308 309 311 313 313 314 316 314 316 316 317 317 318
309 309 308 304 306 303 302 304 308 310 307 310 306 313 313 313 312 310 310 310 310 310 310 310 310 310 310 307 307 306 308 308 308 308 309 311 311 311 313 313 313 314 314 314 314
309 309 309 305 305 303 311 310 313 313 312 315 309 313 314 314 313 310 310 310 310 310 310 310 309 307 304 306 309 309 309 309 309 309 310 309 310 311 312 312 312 313 313 313 314
309 309 309 305 306 308 311 312 310 312 310 310 311 313 314 313 311 310 310 310 310 309 307 307 305 307 308 307 309 309 310 309 308 309 309 308 310 310 310 311 311 312 313 313 313
309 309 309 306 310 311 312 312 311 310 309 310 310 310 310 311 311 310 310 310 309 307 307 305 306 307 308 308 308 308 307 309 309 312 311 311 311 311 309 309 311 312 312 313 313
308 310 309 305 311 312 311 310 311 311 309 308 311 311 311 311 311 311 310 310 308 307 307 306 307 308 309 308 311 310 311 312 312 311 311 310 310 310 310 310 311 312 312 312 312
309 310 309 304 311 311 312 311 311 311 309 314 311 311 311 310 310 311 310 310 308 307 307 307 307 309 308 308 311 310 312 312 311 311 310 311 310 310 310 310 309 310 311 312 312
310 310 308 307 312 313 312 312 311 312 314 315 311 310 310 309 310 311 311 310 308 308 307 308 309 308 308 310 311 309 312 310 311 310 310 310 310 309 308 309 309 309 311 313 314
310 310 305 310 313 312 311 311 312 313 315 311 310 310 310 309 309 310 310 310 309 308 307 307 308 309 309 311 310 311 309 307 308 308 310 309 309 310 308 307 308 312 313 313 313
307 310 306 311 313 310 309 313 311 312 311 310 309 309 310 310 311 311 310 309 308 307 307 307 307 310 311 310 308 308 306 306 308 309 311 309 311 310 310 311 313 313 312 312 312
309 306 306 309 312 311 311 310 315 311 309 309 309 309 311 311 311 312 310 308 310 308 306 306 308 308 311 309 308 308 307 305 308 309 308 309 311 310 313 313 313 312 312 312 311
312 314 314 313 312 311 311 311 312 312 310 309 309 310 311 311 310 310 310 311 311 309 310 309 310 310 310 309 309 309 310 307 305 309 311 310 310 309 312 312 311 311 311 311 311
315 314 313 312 311 312 308 313 313 311 310 310 309 310 310 311 310 309 309 312 311 310 308 309 310 309 310 310 309 307 307 308 306 313 313 311 311 311 309 310 312 311 310 311 311
312 313 312 309 310 313 309 312 311 310 310 310 309 309 310 311 310 309 309 310 311 311 310 310 308 310 310 310 308 307 308 310 309 311 312 312 310 308 310 311 311 310 311 311 311
311 309 313 310 309 305 308 309 310 309 311 310 308 311 310 310 310 310 309 310 310 311 312 310 308 311 311 310 309 308 309 310 311 311 312 313 312 310 309 308 309 310 311 312 313
310 312 312 312 301 303 305 309 309 309 310 310 310 308 307 308 309 309 310 310 309 309 311 309 308 312 309 308 308 310 311 311 311 311 313 311 310 309 308 309 309 310 311 311 312
308 305 308 308 306 305 305 307 309 309 310 308 309 308 308 308 308 308 308 309 307 308 312 310 307 309 311 309 309 311 311 312 312 313 311 311 310 310 310 309 309 311 311 311 312
304 302 302 299 302 302 304 307 307 308 308 307 307 308 308 307 307 307 307 306 307 308 309 308 311 311 311 311 311 312 312 312 313 311 313 311 311 310 309 308 311 312 312 312 316
304 303 303 303 303 303 303 305 307 306 306 306 307 306 306 305 306 307 305 305 306 307 309 309 311 310 311 310 310 312 312 312 312 312 312 312 311 310 310 310 309 309 309 310 317
301 303 304 301 301 302 302 303 304 304 306 306 305 304 305 305 306 306 306 306 305 306 307 305 308 313 312 312 311 313 313 314 313 313 313 314 311 310 309 309 308 308 308 310 312

GFSSW_850_thetae_054.txt.gz
Theta_e
305 303 301 301 300 300 300 300 300 300 300 301 301 302 302 303 305 310 309 305 306 309 312 311 311 311 311 312 316 318 321 325 326 326 325 326 325 325 324 323 322 324 324 323 327
306 307 306 305 303 300 300 300 300 300 300 301 301 302 302 303 310 311 312 309 308 307 306 307 308 310 309 311 314 315 316 320 323 323 322 322 323 322 321 320 321 321 322 322 323
301 302 304 306 306 304 301 300 300 300 300 301 301 302 302 304 315 310 309 312 312 311 307 306 309 311 310 311 312 312 315 317 318 318 319 318 318 319 318 319 320 319 320 320 321
308 303 300 302 305 307 306 301 300 300 300 301 301 302 302 306 316 310 312 312 312 311 312 313 312 309 307 309 310 311 312 314 314 314 314 315 315 316 316 317 318 318 318 320 320
309 309 307 301 303 306 307 303 301 301 300 301 302 302 303 306 315 311 311 311 310 310 311 311 311 310 308 308 310 309 310 311 311 312 312 313 313 314 315 315 316 317 317 318 319
309 309 309 305 304 306 307 303 301 301 301 301 304 304 304 304 311 311 310 309 309 309 310 311 311 311 310 309 309 309 309 309 310 311 311 311 312 313 315 315 315 316 317 317 318
309 309 309 307 304 306 304 302 301 301 301 303 308 305 303 304 311 310 309 309 309 309 309 310 310 310 310 308 309 310 309 307 308 309 309 311 311 312 314 314 315 315 315 316 317
308 309 309 308 305 304 302 302 302 302 302 305 307 304 304 311 311 310 310 309 309 309 309 309 309 310 310 310 308 307 305 305 307 308 310 311 311 312 312 313 314 314 313 313 314
308 309 309 307 305 303 307 310 311 311 307 309 308 311 312 313 311 310 310 309 309 309 309 309 309 309 309 307 306 305 308 308 307 308 307 310 309 310 311 312 312 312 313 313 313
307 309 309 306 306 308 311 310 313 312 311 313 311 312 314 314 313 312 310 309 309 310 309 309 309 305 303 305 307 308 309 308 308 308 309 309 308 309 311 311 311 311 312 312 313
305 309 310 306 306 311 311 311 310 310 310 310 309 311 311 314 311 310 309 309 309 309 306 306 304 306 307 306 308 309 309 308 307 309 309 309 309 309 310 310 310 310 311 312 312
305 309 310 306 310 312 311 312 310 310 309 311 310 310 309 310 311 310 310 309 309 307 306 304 305 306 307 307 307 307 307 310 309 309 310 308 309 309 309 309 310 311 311 312 312
309 310 310 306 312 311 310 310 310 311 308 309 310 311 311 310 311 311 310 309 308 307 306 305 307 307 308 308 309 309 310 311 311 310 309 308 306 308 309 310 310 311 311 311 311
310 310 310 306 312 311 312 311 311 310 308 313 311 311 311 310 310 310 310 310 307 307 306 306 307 308 307 308 309 309 310 311 309 308 308 309 308 307 307 307 308 310 310 311 311
309 310 308 309 312 312 312 310 311 312 311 313 310 310 310 309 309 310 310 310 307 307 306 307 308 308 308 308 309 307 310 310 309 308 309 309 308 307 307 307 306 306 310 310 312
308 307 305 311 312 311 309 310 312 310 314 310 309 309 309 309 309 310 310 309 309 307 307 306 308 307 307 310 309 308 308 305 305 306 308 307 308 307 308 308 308 309 311 312 312
307 306 307 312 311 312 308 312 310 310 309 309 308 308 309 310 311 311 310 309 307 307 307 306 306 310 310 309 307 305 304 305 306 305 308 308 307 307 308 308 308 310 312 312 312
310 307 309 312 312 310 311 308 312 311 309 309 309 308 310 310 310 310 309 309 309 308 306 307 309 309 310 309 308 307 305 303 306 309 306 307 308 307 308 310 312 312 312 312 312
313 311 311 311 311 311 311 310 310 311 311 309 308 309 310 310 309 308 309 310 310 309 310 310 311 309 309 308 308 308 307 305 303 306 309 307 307 308 308 308 311 311 311 311 312
312 312 311 309 309 312 308 312 312 310 309 309 309 309 310 309 310 309 308 311 311 310 308 308 310 309 309 309 308 307 306 306 304 310 312 309 308 309 309 309 309 308 309 311 311
311 312 312 310 310 312 307 309 311 310 310 309 308 308 308 310 309 309 309 310 310 310 309 309 308 309 310 309 307 307 307 308 305 307 313 311 309 307 307 306 308 308 310 309 310
311 308 312 311 307 302 306 308 309 309 310 309 308 309 309 309 309 308 308 308 309 310 310 309 306 310 310 308 308 306 307 307 307 307 311 304 311 310 307 307 308 307 308 312 312
307 311 311 310 302 301 303 307 308 309 309 309 309 308 307 308 308 308 309 308 308 308 309 308 307 309 307 307 307 310 310 310 311 312 313 313 310 307 307 308 309 308 310 311 311
305 303 305 307 304 304 304 306 308 308 309 308 307 307 307 308 307 308 308 308 307 308 309 310 305 308 307 307 306 308 309 309 311 313 312 312 310 309 309 309 308 309 310 309 309
303 301 302 298 300 302 303 304 307 307 306 306 306 306 307 307 306 306 306 306 306 306 308 307 310 309 309 310 310 310 310 311 311 312 314 311 310 310 309 309 309 309 309 308 308
301 302 302 301 301 302 302 303 304 305 305 305 306 304 304 305 305 307 305 304 305 306 309 307 307 309 308 309 309 310 310 310 311 311 312 312 313 311 310 309 309 309 308 308 308
299 301 303 300 300 301 300 303 303 302 304 305 304 303 303 304 305 305 305 305 304 305 307 307 306 308 310 310 309 310 310 311 312 313 313 313 311 309 310 310 309 308 308 308 308

GFSSW_850_thetae_057.txt.gz
Theta_e
302 303 305 306 304 302 300 300 300 300 300 301 301 301 302 302 304 309 311 306 306 305 307 308 311 311 310 312 317 319 326 325 325 324 324 325 325 325 324 324 324 323 323 321 326
308 304 301 302 305 306 303 301 300 300 300 300 301 301 302 303 308 310 311 308 308 309 309 310 310 310 310 312 314 320 321 322 324 325 326 325 323 323 322 322 322 322 321 320 320
309 308 307 302 301 305 306 305 301 300 300 300 301 301 302 304 312 310 310 312 312 311 306 305 309 310 310 311 313 315 318 320 321 318 319 320 322 319 320 322 322 319 319 319 319
309 309 308 307 302 303 306 307 303 301 300 300 301 302 302 305 314 310 311 311 311 311 312 311 311 310 311 312 311 314 314 315 318 315 314 316 318 316 317 319 318 317 318 317 319
309 309 309 308 305 304 306 306 303 301 301 301 301 303 302 305 312 311 311 311 310 310 311 311 311 310 311 311 311 312 312 312 312 312 312 312 315 317 316 315 315 316 316 317 317
308 308 309 309 305 305 306 304 302 301 301 301 302 306 303 306 312 311 311 310 309 309 311 311 311 310 311 311 312 311 311 312 311 312 312 312 313 313 315 314 314 315 316 317 318
308 308 309 309 305 305 303 302 302 301 301 302 306 308 305 304 311 310 310 309 308 309 309 310 310 310 310 311 310 310 311 311 311 311 312 311 312 313 312 313 314 314 314 315 315
305 307 309 309 305 304 303 303 302 302 302 303 308 304 304 308 310 310 310 309 309 309 309 309 309 310 310 309 310 311 310 311 311 310 311 311 312 313 311 312 312 313 314 314 314
301 306 309 307 305 307 310 311 312 310 307 308 310 310 313 312 310 310 310 309 309 309 309 309 309 309 310 311 312 311 311 311 312 311 312 312 312 312 311 311 311 312 312 313 313
307 308 310 306 306 310 310 312 312 311 311 312 312 312 313 313 312 312 309 309 309 309 308 309 309 311 311 312 311 311 311 311 311 311 313 312 312 312 311 311 311 311 311 312 313
309 309 310 307 309 311 311 311 310 309 310 310 310 310 310 312 312 310 310 309 309 309 310 307 311 311 311 311 310 311 311 311 311 311 312 312 312 312 311 311 312 312 311 311 312
309 310 310 308 311 311 311 311 310 311 311 310 309 310 309 309 311 310 310 310 309 310 308 309 310 310 309 309 310 310 311 311 312 311 311 311 311 311 312 312 312 312 312 311 311
310 310 310 308 311 311 310 310 310 310 310 310 310 310 310 310 311 312 310 309 310 310 309 309 309 309 309 310 311 311 311 311 310 311 311 311 310 310 310 311 311 311 311 311 311
308 311 308 309 311 311 312 311 311 311 313 313 311 311 310 310 311 310 310 310 309 310 308 309 308 309 309 310 311 310 312 311 310 310 309 310 308 310 311 311 312 311 312 311 312
309 307 306 311 311 312 311 308 311 311 314 313 311 309 309 309 309 310 310 309 311 309 310 310 310 310 310 310 311 310 311 311 311 311 311 310 311 311 311 311 311 312 312 313 313
306 305 308 311 312 311 309 310 312 315 315 311 310 310 311 310 310 310 310 309 308 309 308 310 308 309 310 311 311 310 310 310 309 310 310 310 311 310 311 311 312 312 313 314 313
308 310 311 311 312 310 309 312 315 316 310 311 310 310 310 312 312 312 311 310 310 310 310 309 308 310 311 311 310 310 311 310 309 309 309 312 310 310 311 311 311 311 312 314 314
313 312 311 311 311 311 311 313 317 312 310 310 310 310 310 311 311 311 311 312 312 309 309 311 311 311 311 311 311 310 311 311 310 309 310 310 310 311 311 311 311 312 313 314 313
312 313 309 309 310 311 311 315 314 312 311 311 310 310 311 311 311 311 311 312 312 311 312 312 312 310 310 311 311 310 312 310 312 311 312 311 311 311 311 312 312 312 313 313 311
309 312 310 310 310 312 313 314 313 311 310 310 310 310 310 310 310 311 311 312 312 311 310 311 313 311 311 310 310 311 311 313 313 313 312 311 311 312 312 311 311 312 312 311 311
311 313 311 311 310 311 314 312 312 310 310 311 310 310 310 310 311 311 310 311 311 311 311 311 312 311 311 311 311 310 311 312 312 313 313 312 312 312 312 312 312 312 311 310 311
309 313 312 311 309 304 311 309 308 310 310 311 310 309 310 311 310 310 310 310 309 311 311 311 312 312 311 310 310 310 311 312 314 314 314 315 313 312 312 311 311 311 310 310 311
304 309 309 308 312 308 306 308 308 310 310 310 311 310 309 310 310 310 310 308 308 310 312 312 312 311 309 311 310 312 311 312 312 313 314 315 313 311 312 312 311 311 311 311 311
302 307 303 306 303 305 306 307 309 308 308 307 308 308 309 309 309 310 310 309 307 308 308 310 312 311 311 309 311 311 311 312 313 314 313 313 313 313 313 313 312 312 311 311 311
300 303 302 303 303 304 304 306 308 308 307 306 307 307 307 309 309 309 308 308 307 307 309 311 312 311 311 310 310 312 312 312 313 313 313 313 313 313 313 313 313 311 311 311 310
299 301 301 301 301 303 304 305 305 306 305 306 307 307 307 307 307 308 306 307 307 308 311 310 312 311 310 311 311 312 312 312 312 312 313 313 315 313 313 312 311 311 310 309 309
296 298 302 299 302 303 303 304 305 303 304 305 305 306 306 306 305 305 305 305 307 308 310 311 311 310 308 311 311 313 312 312 312 313 313 315 314 313 313 312 311 309 309 308 308

GFSSW_850_thetae_060.txt.gz
Theta_e
309 308 306 302 302 305 304 302 301 300 300 300 301 301 302 302 303 308 315 313 308 306 305 310 310 311 311 314 318 322 328 328 327 327 327 325 325 326 327 326 326 326 326 325 324
309 309 308 307 303 303 306 305 303 301 301 301 301 301 302 303 307 315 312 308 308 308 311 311 311 311 313 314 316 321 324 326 326 326 327 326 327 326 326 327 326 325 326 324 323
309 309 309 309 306 302 304 307 306 302 301 301 301 301 302 303 315 314 311 312 312 310 307 308 311 311 313 314 316 319 322 323 323 324 325 326 326 324 325 326 326 326 323 322 322
309 309 309 309 308 304 304 306 307 302 301 301 301 301 303 304 318 315 311 311 311 311 314 311 312 312 313 315 315 317 318 319 320 322 321 323 323 324 324 326 324 321 320 320 321
308 308 309 309 309 304 305 306 305 302 301 301 301 302 303 312 314 312 311 310 310 312 314 313 313 313 314 314 314 315 317 316 317 318 318 319 319 320 319 321 317 317 318 319 319
302 305 308 309 308 305 306 304 303 302 301 301 302 305 310 309 311 311 311 310 313 313 313 313 313 312 313 314 314 314 315 315 315 316 316 316 317 317 317 317 317 318 317 318 318
302 303 308 310 306 305 304 302 302 301 301 301 303 308 311 308 311 311 310 314 312 312 312 311 312 312 313 314 313 313 314 315 315 315 316 315 317 317 316 315 315 317 317 317 317
305 307 309 309 306 304 305 306 303 302 302 303 308 307 311 307 310 310 313 313 311 311 311 311 311 311 312 313 313 314 314 314 315 314 314 313 316 315 314 314 315 314 316 316 317
308 309 310 307 305 309 310 312 312 309 306 308 311 313 313 311 312 312 312 311 310 310 310 310 310 312 312 314 315 315 314 314 315 315 315 315 316 316 314 314 314 314 315 315 316
309 310 311 307 309 311 311 311 312 311 311 311 312 315 313 313 314 312 311 310 310 310 311 311 312 314 314 315 315 316 315 314 315 315 315 315 315 316 314 314 314 313 313 314 315
310 310 310 307 311 311 311 311 314 315 315 314 313 313 313 313 312 312 310 310 310 311 313 312 313 314 314 314 314 313 314 314 314 314 314 315 315 316 315 314 315 314 314 314 314
309 311 309 309 311 311 311 313 312 311 315 313 312 312 312 312 313 312 311 311 312 313 312 312 312 313 313 312 313 313 314 314 314 314 314 314 314 314 315 314 314 314 315 314 314
309 311 308 310 311 311 312 312 311 311 315 313 312 312 312 312 313 313 312 311 312 313 313 313 313 312 312 312 312 313 313 314 313 313 313 313 314 314 314 313 313 314 314 314 313
308 309 305 311 312 311 314 311 309 311 318 315 314 313 312 313 314 312 312 312 312 313 313 313 312 312 312 312 313 314 313 312 312 313 314 313 313 314 314 314 314 313 313 314 314
306 305 307 312 312 314 312 309 311 312 321 314 313 311 311 312 312 312 311 311 313 313 312 313 312 312 312 313 312 312 312 312 312 313 313 314 314 315 313 314 314 314 313 314 315
309 310 311 312 312 311 309 309 313 321 319 314 312 313 313 312 312 312 312 311 312 313 313 312 312 312 313 313 312 312 312 313 314 313 313 314 313 314 315 314 314 314 313 314 315
312 311 311 311 313 310 309 314 320 319 314 314 313 313 313 314 314 314 315 315 314 314 315 314 313 313 312 313 313 313 314 315 314 315 313 314 313 314 315 314 314 314 313 314 316
312 311 309 309 311 311 313 317 320 316 314 313 313 313 314 314 314 314 314 315 315 315 315 315 315 312 313 313 313 314 314 315 314 313 314 314 314 316 314 313 313 313 313 314 315
311 313 312 310 310 311 314 318 317 315 314 313 314 314 314 314 313 313 313 313 314 315 315 314 315 312 312 312 313 313 314 314 314 314 314 314 314 314 315 314 314 313 313 314 315
308 313 314 311 310 313 316 316 316 313 312 313 314 313 314 313 312 312 313 313 313 314 314 314 315 314 313 312 312 313 314 315 314 314 313 314 314 315 315 315 314 314 314 314 314
311 315 313 312 310 314 318 315 314 313 312 313 313 313 313 312 312 313 312 312 312 313 313 313 314 314 313 313 313 314 314 313 314 315 316 316 315 316 315 315 314 314 313 313 313
309 314 312 310 313 312 314 312 308 310 310 312 312 313 313 313 313 313 312 312 311 311 312 313 313 314 312 312 312 312 313 313 316 316 317 317 317 315 315 314 314 314 314 313 313
307 311 309 305 314 310 310 310 309 310 311 312 312 312 312 312 312 312 312 311 310 312 313 313 314 314 311 313 312 313 312 313 314 315 318 320 317 315 315 315 314 314 314 313 313
306 310 307 307 306 308 308 308 310 310 310 310 310 311 311 312 312 311 311 311 310 310 309 311 314 314 314 312 313 313 312 313 314 318 317 316 316 316 315 316 315 314 314 313 313
304 308 305 307 307 307 307 308 308 309 309 309 310 310 310 310 310 310 310 310 309 309 309 312 314 313 312 312 312 312 312 312 313 315 316 315 316 315 316 316 315 314 314 313 313
305 303 304 305 305 307 306 308 307 307 307 307 308 309 309 310 309 309 309 309 309 309 311 313 313 312 313 312 312 313 313 314 314 315 315 315 316 315 315 314 314 313 313 313 311
300 301 304 304 305 305 306 306 305 305 305 306 308 308 307 307 306 306 307 308 309 309 310 312 312 312 312 310 313 315 315 315 315 315 315 316 315 315 315 315 313 313 312 312 311

GFSSW_850_thetae_063.txt.gz
Theta_e
309 309 310 309 306 303 304 305 303 301 301 301 301 301 302 302 303 309 316 317 314 309 306 310 313 313 314 317 320 322 327 329 329 329 329 328 329 327 327 328 329 328 328 328 327
309 309 310 310 309 305 303 305 306 304 301 301 301 301 302 303 305 316 317 311 307 308 313 313 312 313 315 317 319 322 325 326 327 328 329 328 328 327 326 328 329 328 328 327 326
309 309 309 310 310 308 303 304 307 306 302 301 301 301 302 303 318 318 313 311 311 309 312 310 313 314 316 317 319 321 323 324 325 325 326 328 328 328 328 328 327 329 328 327 325
304 306 308 309 310 308 304 305 306 307 302 301 301 301 303 305 323 318 311 311 311 316 315 313 312 315 316 318 318 321 321 321 322 324 324 326 327 328 328 328 326 326 328 326 324
302 302 305 309 310 307 305 305 306 305 302 301 301 302 304 316 315 316 311 309 311 315 316 316 315 315 317 317 318 320 321 320 320 321 322 323 325 325 325 325 325 324 326 326 324
304 305 306 309 310 305 305 305 304 303 301 301 301 304 310 315 314 316 315 314 315 314 315 315 316 315 315 317 317 317 317 318 319 318 319 322 322 321 321 321 321 321 323 325 324
305 308 309 310 307 306 304 303 302 302 302 301 302 306 315 314 312 315 316 315 314 314 314 314 314 314 315 317 316 316 317 318 318 318 319 318 319 319 318 319 320 320 321 323 324
308 309 310 310 306 305 309 310 306 303 302 302 306 313 316 311 310 313 315 315 313 312 312 313 312 313 314 315 316 316 317 317 318 318 317 317 318 319 318 319 319 318 318 320 322
309 310 310 307 307 310 311 311 312 310 307 309 315 317 319 311 310 313 314 313 313 312 312 312 311 313 315 316 317 317 317 318 318 318 317 317 317 319 318 318 318 318 318 318 320
309 310 311 307 310 311 311 310 311 312 311 312 317 317 316 315 313 313 313 313 312 312 312 313 313 316 316 317 317 318 319 318 318 318 317 317 318 319 318 317 317 317 317 317 318
309 311 309 308 311 311 312 316 318 320 318 319 317 317 316 314 314 313 313 312 312 313 315 315 316 316 316 318 317 317 318 318 318 318 317 318 318 318 318 318 317 317 317 317 317
309 311 308 309 311 312 315 316 314 314 317 316 314 314 314 314 314 314 313 313 314 315 316 316 315 315 316 316 316 316 316 316 317 317 317 317 318 318 318 318 317 317 317 317 317
306 311 307 310 311 314 315 314 313 314 317 316 314 314 313 314 315 315 313 313 314 315 315 315 316 315 314 314 314 315 315 316 316 317 317 316 317 317 318 317 316 316 316 316 317
305 307 306 311 314 314 317 314 313 314 319 318 315 315 314 314 315 314 314 314 315 315 315 316 315 313 314 314 315 316 316 316 315 315 316 317 317 319 318 317 317 316 316 316 316
309 306 310 312 317 317 315 313 314 316 326 317 316 314 314 315 315 314 313 314 315 316 315 315 315 314 314 315 315 315 315 315 315 315 316 316 317 317 318 317 317 317 316 316 317
311 311 311 315 315 314 313 313 316 324 324 318 315 315 315 314 314 314 314 313 314 316 316 316 315 315 315 314 315 314 315 315 315 316 317 317 317 317 318 317 317 316 315 315 317
311 312 310 310 315 314 313 315 323 323 318 317 316 316 316 316 316 316 316 317 317 317 317 317 316 316 315 314 314 315 315 316 317 318 318 317 316 317 318 317 317 316 315 315 316
305 312 315 312 314 314 315 319 322 320 318 317 315 316 316 316 317 317 317 317 317 317 317 317 317 318 317 315 315 316 317 319 321 319 317 317 317 317 317 316 315 315 315 315 316
302 313 316 316 313 314 316 321 321 320 316 315 315 316 317 317 316 316 316 316 315 316 319 318 318 316 316 316 315 315 316 316 317 317 318 318 317 318 317 316 316 316 315 315 315
305 315 316 315 313 314 319 319 318 316 315 314 315 316 316 316 316 316 315 315 315 315 315 315 317 317 316 315 315 315 316 319 318 317 317 316 317 317 318 317 317 317 316 316 316
315 315 317 313 313 316 320 319 317 315 314 313 314 315 315 315 315 315 315 315 315 314 315 314 315 316 316 317 316 315 316 316 317 317 320 319 318 318 318 318 317 317 316 315 316
313 315 316 310 314 317 316 315 311 311 311 312 314 314 315 315 315 314 315 315 313 313 313 314 316 316 314 315 316 316 317 318 321 319 316 316 316 317 317 317 316 316 316 316 316
311 312 313 309 317 315 312 312 311 311 312 313 314 314 314 314 314 313 314 313 312 312 314 315 317 319 316 316 314 313 313 314 316 319 318 319 320 318 317 317 316 317 316 316 316
310 314 312 310 310 311 312 312 312 311 311 311 312 312 313 313 313 314 313 312 312 311 311 312 313 314 315 315 315 316 314 315 315 318 315 316 316 317 318 317 317 316 316 316 315
311 313 310 311 311 310 310 311 311 311 311 309 311 312 311 311 311 311 311 312 312 312 311 312 314 314 314 314 314 314 314 314 314 314 315 316 316 316 316 317 317 316 316 316 316
308 309 308 309 310 310 308 311 310 309 309 309 309 309 311 311 311 311 311 311 312 311 312 312 316 314 315 313 312 312 312 312 313 315 315 316 317 317 317 316 317 316 316 316 315
305 306 307 310 310 309 310 309 307 307 307 307 309 310 310 310 309 309 309 310 311 311 312 314 315 314 315 312 313 313 314 315 317 315 315 318 317 316 316 316 316 315 314 314 314

GFSSW_850_thetae_066.txt.gz
Theta_e
309 309 309 310 310 309 304 304 305 303 301 301 301 301 302 302 303 304 310 317 316 316 312 307 314 315 316 317 319 321 323 326 326 327 328 328 329 328 326 328 329 329 329 328 328
307 307 308 309 310 310 307 303 306 305 303 301 301 301 302 302 303 308 316 316 315 312 309 312 313 314 315 317 318 321 323 323 323 326 327 328 328 329 327 327 328 328 329 328 328
302 301 302 306 309 310 308 304 305 307 306 302 301 302 302 303 315 321 318 316 308 308 313 314 314 315 316 317 319 320 322 322 323 323 325 326 327 328 329 329 328 328 329 329 329
304 304 304 304 308 310 307 304 305 307 307 302 301 301 302 303 323 318 314 310 311 312 320 315 313 313 317 318 318 319 320 321 322 321 322 325 325 327 328 329 328 328 327 328 328
305 306 306 307 309 309 305 305 306 306 306 302 301 302 303 318 316 319 313 311 311 316 317 318 317 316 316 318 318 319 320 320 321 321 321 322 324 325 325 328 328 328 326 326 328
306 308 309 309 310 306 306 305 304 303 303 302 301 302 306 318 319 317 313 313 316 316 316 316 317 317 317 317 318 318 318 320 320 320 321 321 321 322 323 325 325 324 325 325 325
309 310 310 310 307 306 305 306 303 302 302 302 302 304 314 316 311 317 315 316 316 315 315 315 315 316 316 317 317 317 318 318 318 318 319 319 319 321 321 323 323 322 322 322 322
309 310 311 309 306 308 310 310 309 304 302 302 303 308 316 315 314 314 317 316 316 314 314 314 314 314 315 316 317 317 318 317 318 318 318 319 319 320 319 319 319 319 320 320 320
309 311 311 307 309 310 311 311 312 311 307 308 312 313 320 313 312 312 315 316 316 315 314 314 313 313 315 315 316 317 317 317 317 319 319 318 318 319 318 319 320 320 320 320 319
310 311 311 308 310 310 310 311 312 311 311 310 315 319 319 317 313 312 315 315 314 313 314 314 314 315 316 316 317 318 317 318 319 320 318 318 318 318 318 319 319 319 319 319 319
307 312 309 309 311 312 314 319 319 321 321 321 320 319 318 317 315 315 314 314 313 314 315 315 316 316 317 317 317 317 317 318 319 320 319 319 319 319 319 319 319 319 319 319 319
306 310 309 310 312 315 317 318 315 315 316 317 319 315 315 316 316 315 314 315 314 315 316 316 317 318 317 316 317 317 318 318 318 319 319 318 318 319 319 320 319 320 319 319 318
308 306 307 310 311 316 317 316 315 315 317 319 317 315 315 314 316 316 315 315 315 315 316 316 317 317 317 316 316 316 316 316 316 317 318 318 318 318 318 319 319 319 318 318 319
310 306 307 312 316 317 319 317 314 317 319 322 317 316 315 315 316 316 316 315 316 316 316 316 317 317 316 315 315 315 316 316 317 317 317 318 318 319 320 320 320 319 318 317 318
310 311 309 310 310 318 317 315 314 318 328 320 318 316 315 316 317 316 315 315 316 316 317 316 316 316 316 315 315 315 316 316 316 316 316 316 317 317 318 318 318 318 317 317 318
302 311 311 316 315 318 315 314 317 325 329 320 317 316 316 316 316 316 315 315 315 316 316 316 316 317 316 316 316 316 315 316 316 315 316 316 317 318 318 320 319 318 317 317 318
305 303 312 310 315 316 315 315 323 327 322 319 318 317 317 317 317 317 317 317 317 317 318 319 317 318 317 316 316 315 315 316 317 319 318 318 320 320 319 319 319 318 316 316 316
307 304 309 313 314 316 315 319 323 322 322 320 317 316 316 317 317 317 318 318 318 318 318 319 320 319 319 319 319 317 316 317 320 321 321 320 320 319 319 318 317 317 316 316 316
306 316 318 318 316 315 316 321 322 322 320 318 316 315 317 317 317 317 317 317 317 318 318 319 319 317 317 318 318 319 317 317 320 320 321 318 320 320 318 318 317 316 316 316 316
310 317 318 319 315 315 318 320 321 320 318 316 316 315 316 317 316 317 317 317 317 317 316 316 317 315 317 318 317 317 317 319 320 320 318 315 317 320 320 318 317 317 316 316 317
312 318 320 317 314 315 319 320 319 317 314 313 314 314 315 316 316 316 316 316 316 316 316 316 318 315 317 319 318 319 316 316 317 321 321 319 319 319 319 319 319 318 317 317 316
311 318 318 312 311 315 320 316 314 314 313 313 313 314 315 316 315 315 314 316 315 315 315 315 317 317 316 316 317 316 318 318 322 322 320 321 319 318 318 317 318 318 316 316 316
311 314 316 312 317 316 314 314 313 313 313 314 314 314 314 314 314 314 314 314 313 313 315 315 316 318 314 316 317 317 316 317 317 320 320 321 320 318 318 318 317 317 317 317 317
313 316 315 313 314 314 314 312 313 312 312 312 313 312 313 313 313 313 313 314 313 313 312 312 313 314 314 313 316 315 315 315 315 320 317 317 316 318 317 316 318 316 317 318 317
313 315 313 313 314 314 313 312 312 314 312 311 311 311 312 312 312 312 312 313 313 314 313 313 313 313 312 313 314 315 316 316 316 315 317 316 315 315 317 317 318 315 316 318 318
310 310 310 311 313 313 313 313 313 312 310 309 309 310 310 312 311 311 311 311 312 313 313 313 316 315 315 315 314 315 314 315 314 314 314 314 314 315 317 316 317 316 316 316 316
307 307 308 310 312 314 313 310 309 308 308 309 309 309 311 312 310 310 310 310 311 312 312 312 315 315 316 314 314 313 315 317 317 316 316 317 316 316 316 317 317 316 316 316 315

GFSSW_850_thetae_069.txt.gz
Theta_e
305 304 305 307 309 310 310 306 304 305 304 302 301 301 301 302 302 302 304 307 316 316 315 312 310 315 315 316 317 318 318 319 321 324 324 325 324 325 326 327 328 327 329 328 327
306 305 304 304 305 309 310 307 303 305 305 304 302 301 301 301 302 304 306 314 314 316 314 310 309 313 316 316 316 315 316 318 319 320 321 322 323 325 325 325 326 328 329 329 328
305 305 306 307 308 309 310 306 303 305 307 306 302 301 301 301 309 321 316 317 316 311 308 314 315 314 314 315 315 316 316 317 320 321 321 321 322 324 326 324 326 328 329 329 328
305 307 308 309 309 310 308 305 304 305 307 306 302 301 301 302 320 318 317 317 310 309 312 317 315 312 312 312 315 314 316 318 319 320 320 320 321 321 322 327 328 328 328 328 328
309 309 310 310 310 309 305 305 306 306 305 304 302 302 302 315 315 318 316 310 311 314 318 319 318 314 310 312 315 314 315 318 318 320 320 321 320 320 321 322 328 328 328 328 327
309 309 310 311 310 306 305 304 303 303 303 302 301 301 303 314 319 318 317 311 311 317 316 316 316 317 316 315 313 316 316 316 318 318 319 318 319 320 320 320 323 328 328 328 327
309 310 311 311 306 306 308 309 306 302 302 302 301 302 305 307 316 317 316 314 315 316 316 316 315 315 315 313 316 316 314 314 315 316 315 318 316 318 319 319 320 324 324 326 325
309 310 311 308 307 309 310 310 310 306 302 302 303 305 308 316 314 315 316 317 316 316 315 314 314 314 314 314 314 313 313 313 313 314 316 317 315 316 319 319 319 320 320 320 321
307 311 311 307 310 310 310 311 311 310 307 305 307 312 317 317 313 313 314 317 317 316 315 314 314 314 313 311 311 312 312 312 314 315 315 314 315 316 319 319 318 319 319 319 320
307 309 310 308 310 311 311 312 317 312 313 310 314 317 320 319 316 312 312 314 315 315 313 314 313 311 309 310 310 312 313 314 315 316 316 315 315 316 318 318 318 319 319 319 319
310 306 311 309 311 314 316 318 319 321 319 317 321 319 320 318 315 313 314 315 315 314 313 314 311 311 312 313 314 314 314 314 315 317 317 316 316 316 317 317 317 318 319 319 318
309 307 308 309 311 314 317 317 315 315 315 316 318 320 320 316 316 316 316 315 314 313 313 312 312 314 316 316 316 315 314 314 316 316 316 316 317 317 317 317 318 318 318 318 318
303 311 307 310 313 315 317 318 316 316 316 316 317 318 318 315 315 316 315 315 314 313 314 313 315 316 317 316 316 314 313 314 314 315 315 315 315 317 317 317 317 317 318 319 318
306 307 309 310 314 315 317 317 315 315 315 319 319 316 315 315 316 315 316 315 314 314 314 314 314 315 315 315 314 313 315 315 316 315 313 315 314 315 316 315 316 317 317 319 319
306 306 310 310 315 316 318 315 315 318 326 320 318 316 315 316 317 317 316 316 315 315 314 314 315 315 315 316 315 314 316 315 315 314 313 314 312 313 315 315 315 316 317 317 318
309 307 305 311 316 317 317 315 315 322 328 320 317 316 315 315 316 316 316 315 315 314 314 314 315 315 315 318 317 315 315 314 313 312 312 313 313 313 314 315 315 316 317 317 317
311 308 306 309 311 316 316 315 318 324 324 320 318 317 315 315 316 316 316 314 314 314 315 317 317 317 318 318 317 317 313 311 312 312 314 316 319 317 317 318 316 315 316 317 317
311 311 314 307 312 316 315 316 321 321 322 321 318 317 315 314 315 317 317 316 317 316 319 320 320 318 317 319 320 319 319 315 316 315 316 319 321 318 318 317 316 316 317 317 318
311 314 317 317 315 315 316 318 320 321 320 318 316 316 315 315 315 315 315 316 317 316 317 318 319 318 317 316 319 320 319 317 318 318 319 317 318 318 318 318 316 315 316 316 318
311 316 320 319 316 314 315 318 318 319 316 314 314 315 314 313 314 314 315 317 317 316 315 316 318 316 316 317 317 318 317 320 317 322 320 316 316 322 319 319 319 316 315 316 316
311 315 319 318 316 315 315 317 318 316 314 313 313 312 313 313 314 314 314 315 316 316 315 316 317 316 315 317 317 316 317 318 317 317 317 318 316 318 318 317 318 316 316 316 317
308 314 319 314 314 313 315 316 313 313 313 314 314 314 314 314 313 313 313 314 315 315 315 315 314 317 314 314 314 315 317 315 319 315 317 316 316 316 316 316 316 316 316 316 316
307 312 315 314 315 314 314 314 313 313 313 313 313 313 312 311 312 314 314 314 313 313 315 313 312 312 313 313 314 314 315 316 315 316 319 318 315 316 316 316 317 316 315 316 315
307 317 314 313 314 313 314 314 313 313 312 312 312 311 311 313 310 311 312 313 313 314 313 312 311 311 311 312 313 315 314 314 314 317 317 317 316 315 315 316 316 316 317 316 316
310 314 310 312 311 312 314 314 314 313 311 309 310 309 309 310 311 311 311 311 312 314 313 312 312 313 314 314 312 313 314 315 315 314 314 315 314 314 314 315 316 316 316 316 317
308 308 306 307 311 312 313 315 312 310 309 308 310 310 309 310 311 311 311 311 312 311 312 313 312 314 314 314 314 315 315 315 314 315 316 315 315 313 313 315 316 315 316 316 316
308 306 305 308 311 310 311 312 310 310 309 308 309 308 308 309 310 309 309 310 310 310 310 311 311 311 313 313 313 312 316 316 316 316 315 315 314 314 314 315 314 315 316 315 315

GFSSW_850_thetae_072.txt.gz
Theta_e
306 305 306 307 306 309 310 309 306 304 305 304 303 301 301 301 302 302 303 306 308 310 311 313 312 313 314 312 315 317 314 316 318 319 320 322 322 323 324 324 326 327 328 328 328
304 305 307 308 308 309 310 309 305 304 305 305 304 302 301 301 302 305 307 306 314 316 316 313 311 309 312 314 315 313 310 315 316 317 318 320 320 321 321 322 323 327 327 327 328
308 309 309 309 310 310 310 307 304 304 305 306 305 302 301 301 309 320 314 313 315 314 315 309 310 313 313 314 315 313 314 314 316 318 319 319 320 320 320 320 324 326 328 327 327
308 309 310 310 310 310 307 304 305 305 306 306 304 301 301 302 318 318 316 312 310 309 307 312 315 315 310 310 313 311 313 314 316 317 317 317 319 319 319 320 322 325 327 327 327
309 310 310 311 311 306 305 305 305 305 305 305 302 301 301 307 308 316 317 311 310 312 311 317 319 318 309 309 311 311 311 314 315 316 317 318 317 318 318 320 321 322 327 326 327
308 310 311 311 306 306 306 306 305 303 303 303 301 301 303 308 318 317 317 314 310 312 315 316 316 314 315 311 312 313 313 313 315 315 316 315 316 317 318 320 320 322 327 327 327
307 310 311 307 307 308 309 310 309 303 302 302 301 301 303 306 316 317 315 314 313 316 316 315 314 314 313 311 313 313 312 311 312 314 313 315 313 315 317 318 319 319 327 328 328
308 309 311 307 309 309 310 310 310 309 304 302 302 304 305 314 312 314 316 316 316 316 316 315 314 314 313 313 312 311 311 310 311 313 314 314 314 314 317 317 318 319 319 325 327
309 307 311 308 310 311 310 311 315 310 309 306 306 318 316 315 317 314 314 315 316 317 316 314 314 314 313 310 307 308 309 310 311 312 312 313 314 314 317 316 317 318 318 319 320
304 309 310 308 310 313 315 316 317 317 313 312 310 315 317 318 317 315 313 312 314 315 314 314 313 310 307 307 308 309 310 310 311 313 313 312 312 314 316 316 316 317 317 319 319
306 309 307 309 310 314 316 316 316 317 314 315 316 317 320 319 316 313 313 313 314 315 312 313 309 309 309 310 311 311 311 311 313 313 314 313 313 313 315 314 314 315 318 319 319
307 305 310 308 310 313 315 316 316 317 313 315 315 316 316 318 319 314 314 314 314 312 311 310 310 311 312 312 313 313 313 312 312 314 314 312 313 312 314 314 315 317 317 317 318
310 309 306 309 316 317 317 317 316 316 314 315 316 316 316 318 319 315 315 315 313 312 312 311 312 314 314 313 314 314 314 312 313 314 313 312 312 312 314 315 316 316 317 317 318
311 310 308 308 309 315 316 317 314 316 314 318 318 318 317 317 315 315 315 315 313 313 312 311 312 313 314 313 313 312 312 314 315 313 312 314 313 312 314 313 313 315 316 316 317
310 311 310 306 310 315 316 316 314 315 321 322 317 316 315 315 316 316 315 315 314 313 312 313 313 313 313 314 317 315 314 314 314 312 311 313 311 312 312 313 312 312 314 316 316
309 310 312 306 308 316 316 315 315 319 325 321 315 315 313 314 315 315 316 316 315 313 312 312 314 314 315 317 317 317 315 311 310 309 311 312 311 313 312 312 312 313 316 315 315
310 311 313 309 308 315 315 316 315 321 322 320 317 316 314 313 313 314 315 313 313 312 312 316 316 316 317 318 317 318 317 316 312 310 313 312 315 313 315 316 316 316 314 316 316
311 311 315 309 312 314 316 314 319 319 319 317 315 315 316 313 313 314 314 313 314 316 317 319 317 318 318 319 319 318 316 315 319 314 314 316 317 315 316 317 317 317 314 316 318
312 312 317 315 313 314 316 315 316 320 318 314 314 314 313 313 313 313 313 316 316 315 317 319 319 316 317 317 318 318 317 316 318 318 320 316 315 315 316 317 317 317 315 315 317
314 311 319 319 316 314 312 315 316 318 314 313 313 313 312 312 313 313 314 316 316 315 313 316 316 316 316 316 316 318 317 315 319 322 322 317 316 315 318 318 317 317 315 315 314
313 309 319 318 316 314 313 314 316 314 313 313 312 312 312 313 312 312 313 313 315 314 313 314 314 314 313 316 316 316 317 316 316 319 321 318 313 315 317 316 318 317 317 316 316
310 307 318 318 313 311 311 314 313 313 312 313 313 312 312 311 312 312 312 313 314 314 314 313 311 312 312 310 314 315 316 315 316 318 318 317 314 314 314 314 315 316 317 317 316
310 308 315 316 312 311 311 313 313 313 313 312 312 312 310 310 310 313 312 312 313 312 313 312 309 309 309 311 312 313 314 314 313 314 316 318 314 314 315 315 315 315 317 316 316
307 312 311 311 311 311 312 314 314 313 310 310 310 310 309 309 309 310 311 313 313 313 314 311 307 308 310 310 309 313 314 314 314 314 317 317 315 315 314 314 314 315 316 316 315
309 309 306 308 308 308 310 312 312 310 309 308 308 309 309 309 309 309 310 310 311 315 312 309 310 311 312 313 313 313 313 314 315 314 314 314 315 314 314 313 313 315 315 316 316
308 306 306 305 307 311 310 312 312 311 308 308 308 309 308 307 308 309 309 309 309 309 308 307 309 312 312 311 312 312 313 314 316 316 316 315 313 313 313 314 314 313 315 315 314
307 307 306 306 308 310 310 309 311 309 307 306 307 307 307 307 309 309 308 309 308 308 307 307 307 308 310 312 312 312 315 315 315 315 315 314 315 313 312 311 311 312 312 311 312

GFSSW_850_thetae_075.txt.gz
Theta_e
307 308 308 308 308 308 309 310 308 305 304 304 303 302 301 301 301 302 304 306 307 306 312 312 312 312 313 314 314 315 313 314 316 317 319 320 319 321 321 321 322 321 324 328 325
308 309 309 310 309 309 309 309 306 304 304 305 304 303 301 302 303 307 312 306 311 309 312 314 315 311 311 313 314 312 310 313 315 317 316 317 317 318 319 319 319 321 323 327 326
309 310 310 310 310 310 309 307 304 304 305 306 305 302 301 302 312 318 314 307 314 315 315 314 309 310 310 312 313 312 312 312 314 316 317 316 317 318 318 317 319 320 320 327 325
308 310 310 310 311 308 305 305 305 305 305 306 306 302 302 302 318 317 314 310 312 310 309 307 312 314 308 310 312 311 312 313 314 315 315 315 317 317 318 318 319 319 320 322 327
307 310 311 311 306 305 305 305 304 303 304 305 304 302 302 304 306 316 315 310 310 310 308 315 317 316 310 308 309 310 310 312 313 313 314 315 314 315 316 317 318 318 319 322 326
308 309 311 307 307 308 309 309 308 304 302 303 301 301 302 306 316 316 316 313 310 313 313 317 316 314 313 311 310 312 312 311 313 314 313 313 314 315 316 316 317 318 321 325 326
307 307 311 307 309 309 309 310 310 307 302 302 301 301 302 305 316 316 315 313 311 311 316 316 314 313 312 311 312 312 311 309 311 313 312 313 312 313 315 317 319 319 319 322 326
304 309 310 308 309 310 309 311 313 310 306 302 302 304 306 308 315 315 316 315 315 315 315 315 315 313 312 312 310 309 309 309 310 312 312 313 313 313 316 315 317 317 318 319 321
307 305 308 309 309 312 313 313 313 316 310 307 305 315 315 311 312 312 313 314 316 316 316 316 315 313 312 308 307 306 307 309 309 310 311 312 311 312 315 315 313 314 316 317 319
310 308 308 308 309 312 314 315 316 317 315 313 311 313 316 318 318 316 314 313 314 314 314 315 313 308 305 306 308 308 308 309 309 310 311 310 311 311 314 314 314 314 314 316 318
310 310 307 309 309 312 314 315 316 315 315 315 315 314 316 319 316 315 313 312 312 313 312 311 309 308 308 308 309 309 309 310 311 312 311 311 312 311 312 313 313 314 313 316 317
310 310 310 307 312 314 316 317 316 316 315 315 315 315 315 315 317 315 312 311 313 311 311 309 309 309 310 310 310 310 310 311 311 312 310 311 311 311 311 312 314 314 313 315 318
313 310 310 311 309 316 317 316 315 315 314 314 315 315 315 315 317 317 312 312 312 311 310 309 311 312 312 311 312 311 311 311 312 313 312 312 311 311 312 313 315 315 315 315 317
312 312 310 311 307 310 315 316 315 314 313 317 316 317 316 317 315 316 315 315 312 311 310 310 311 312 311 312 313 314 313 313 312 313 311 312 312 311 311 311 311 312 314 315 315
313 312 310 311 307 311 316 316 315 315 317 321 316 317 317 316 315 315 316 315 312 312 310 312 312 312 312 312 316 316 315 312 312 311 310 311 310 310 311 311 311 310 313 316 316
314 312 311 314 307 311 315 315 315 318 323 320 315 313 313 313 314 314 314 314 314 312 311 312 314 314 313 316 316 316 315 313 309 308 310 311 310 311 312 310 311 313 316 317 317
313 312 312 314 309 314 315 316 315 319 320 318 315 315 313 313 313 313 314 312 312 311 311 314 316 315 316 317 316 315 316 315 314 312 315 311 311 312 311 312 314 315 315 316 316
314 313 313 310 308 315 315 314 318 317 316 315 314 314 313 312 312 313 313 313 314 314 315 316 316 316 317 318 317 317 316 316 322 319 314 314 315 313 313 315 316 315 314 314 315
315 314 313 313 313 313 315 314 313 318 315 313 313 313 312 311 311 312 312 315 315 314 315 317 318 316 316 317 315 317 317 317 317 316 317 314 314 314 314 315 315 315 315 314 315
314 312 319 317 315 314 312 313 316 317 313 312 312 312 311 311 312 311 312 315 315 314 312 314 315 314 315 315 315 315 316 318 317 320 320 316 315 315 315 316 315 315 313 315 315
314 310 318 319 317 314 312 313 315 314 312 313 312 312 312 312 311 312 312 312 315 313 312 313 312 312 311 313 314 312 316 318 317 318 315 315 315 314 317 315 315 314 315 315 315
312 306 313 318 313 309 311 312 313 313 312 312 312 312 312 310 310 311 312 312 314 313 313 312 310 312 310 309 311 313 314 316 316 317 318 316 313 314 314 313 312 313 316 316 316
309 307 312 315 308 309 311 312 314 313 313 311 310 311 309 309 310 311 311 311 313 312 312 311 308 308 308 306 308 313 314 313 312 312 314 314 313 314 314 314 313 313 315 316 316
309 308 309 310 308 310 310 311 313 311 310 309 308 309 308 308 309 309 310 311 311 312 314 310 305 307 308 309 307 311 312 312 313 314 313 316 315 314 313 313 313 313 313 315 315
308 305 304 304 307 305 310 311 313 313 310 308 308 309 309 308 309 309 310 309 312 312 310 306 309 307 308 310 311 311 312 312 312 313 314 314 314 314 313 312 312 312 311 312 312
308 307 307 306 306 308 310 312 312 312 311 309 307 307 307 306 307 308 309 308 308 308 308 305 309 311 311 311 310 311 313 314 315 315 315 314 314 312 312 312 311 311 310 311 310
307 307 306 306 307 309 310 310 310 309 309 309 309 308 308 307 307 308 308 308 307 307 306 306 306 306 309 310 310 312 314 314 314 314 314 313 313 310 310 310 310 310 309 309 309

GFSSW_850_thetae_078.txt.gz
Theta_e
308 309 309 309 310 309 309 309 309 306 304 304 304 303 302 302 302 302 303 305 306 308 312 311 311 311 312 314 314 315 312 313 315 317 318 319 318 319 320 319 319 320 320 321 322
308 309 310 310 310 310 310 309 306 304 303 304 305 304 302 302 303 310 314 305 306 306 312 312 313 312 312 312 313 312 310 314 313 316 316 316 316 317 317 318 318 319 320 320 323
306 309 310 311 310 309 306 305 304 304 304 305 306 304 302 302 313 316 313 307 309 308 312 314 312 310 309 312 312 310 311 311 313 316 316 315 315 316 317 315 317 318 319 319 324
307 308 310 309 306 305 305 305 305 305 305 305 305 303 302 302 316 317 312 307 314 315 315 311 309 313 307 309 311 312 311 313 314 315 315 314 315 315 316 316 318 317 317 318 318
304 307 310 307 307 307 308 308 308 305 303 303 304 301 301 303 306 315 312 311 311 311 309 311 314 312 308 307 309 309 310 311 312 312 312 313 312 313 314 315 316 317 317 318 318
305 306 308 307 308 308 309 309 309 306 302 302 301 301 302 304 314 315 314 310 310 309 313 317 316 314 313 311 309 310 310 311 312 312 312 312 312 313 314 315 316 316 317 319 319
309 306 308 309 308 310 309 311 312 309 306 302 302 301 302 304 316 316 315 312 310 312 315 315 315 313 312 311 311 311 310 308 310 312 312 312 311 311 315 315 315 316 317 319 319
310 308 305 308 308 311 312 312 312 313 309 304 302 303 306 306 315 315 315 313 312 313 315 315 315 314 311 311 309 309 307 308 308 310 312 312 312 312 314 314 314 316 316 317 317
310 310 309 306 308 310 313 314 314 315 315 308 306 309 314 309 310 313 314 315 315 315 315 315 315 311 310 307 306 304 307 308 308 309 309 310 310 311 314 313 312 314 315 315 316
313 310 309 310 308 309 312 314 315 315 316 314 312 311 314 317 318 317 313 313 314 314 313 314 312 306 303 306 307 308 308 308 309 310 309 308 309 309 312 313 313 313 313 314 315
314 312 311 310 310 311 312 315 316 314 315 315 314 313 315 316 317 317 315 313 313 313 311 310 309 308 308 307 308 309 309 308 309 310 310 309 310 309 311 311 311 313 314 314 316
311 314 312 310 311 311 315 315 315 314 313 315 315 316 315 314 315 316 313 313 312 310 309 308 309 308 308 309 309 309 309 309 309 310 309 309 310 309 309 310 313 313 314 315 316
310 313 312 311 311 308 315 315 315 314 314 314 314 314 314 314 314 316 312 311 311 310 310 309 310 310 310 310 311 310 310 310 310 311 311 310 311 310 310 311 314 314 315 314 314
308 310 313 311 311 308 312 315 315 314 313 315 315 316 315 317 316 316 316 311 312 311 309 309 310 311 311 310 310 311 311 312 313 312 311 310 312 311 309 309 310 312 313 314 314
308 310 313 313 313 309 315 315 315 315 318 319 316 316 315 316 314 314 317 313 312 311 309 311 311 311 311 311 313 314 315 314 312 310 309 310 309 311 309 309 309 310 314 314 314
307 311 314 313 309 306 315 315 315 318 323 319 313 313 313 314 313 314 314 315 314 311 310 310 313 311 310 314 315 315 315 314 308 307 311 312 310 313 313 309 309 310 312 315 316
310 313 314 313 310 313 315 315 314 319 317 316 315 314 312 312 312 313 313 312 311 312 310 312 312 315 315 316 315 315 314 315 315 313 316 311 309 312 311 310 309 310 314 314 315
310 315 313 311 306 312 314 313 318 314 316 313 314 313 312 311 311 312 312 312 313 311 313 313 313 315 316 316 315 316 314 314 316 316 314 313 316 313 312 313 314 314 314 315 315
311 312 314 312 313 314 314 315 312 318 315 313 312 313 311 311 311 312 311 313 314 313 313 315 316 315 315 316 315 316 315 313 311 314 318 313 312 312 312 314 314 314 314 315 315
313 314 318 314 315 314 309 309 315 316 312 312 312 312 311 311 312 311 311 313 314 314 310 312 313 313 314 315 314 315 313 312 315 318 320 315 314 314 314 315 313 313 313 314 315
311 312 313 318 317 314 309 313 314 313 312 312 312 311 312 312 310 311 311 311 313 313 311 311 310 311 310 312 311 310 313 315 316 316 319 319 314 314 315 314 314 312 312 313 314
310 307 311 318 312 306 308 311 313 313 312 312 311 312 312 311 310 311 311 311 312 312 312 311 309 312 310 308 308 308 309 311 310 311 314 316 315 313 312 311 312 312 312 313 314
308 308 311 315 308 307 308 311 313 314 312 309 310 309 309 309 309 310 311 311 312 312 312 311 308 310 309 306 307 311 312 312 310 311 313 314 311 311 311 312 312 312 311 310 311
308 306 308 308 307 307 308 310 312 312 312 313 309 309 309 308 308 308 309 310 311 312 314 310 305 309 309 308 306 309 310 311 310 310 311 312 312 312 312 312 311 312 311 310 310
308 303 303 303 305 305 305 310 312 313 312 311 308 310 312 308 307 308 309 309 310 312 308 306 309 306 306 307 308 309 310 310 310 311 313 312 312 311 312 310 310 311 310 309 309
308 307 306 305 305 305 307 310 311 312 311 312 311 309 309 307 307 306 307 308 307 308 307 305 309 309 311 310 310 310 309 310 313 314 313 312 313 310 310 310 310 309 308 308 308
307 306 306 305 306 307 310 311 311 309 310 309 310 310 310 309 308 307 306 307 306 307 305 305 306 306 309 308 308 309 310 313 313 313 313 314 311 308 308 308 308 307 307 307 307

GFSSW_850_thetae_081.txt.gz
Theta_e
306 308 310 310 310 310 310 309 308 306 304 304 304 303 303 302 301 301 303 304 306 308 310 310 309 310 313 315 314 315 319 319 319 320 320 318 320 319 318 319 319 320 320 320 320
306 308 310 310 309 308 307 306 305 304 303 304 304 304 303 301 303 311 314 306 305 306 312 312 311 311 311 312 313 316 318 318 317 318 319 318 318 318 318 318 318 318 319 319 320
304 307 309 307 306 305 305 305 305 305 305 305 305 305 302 302 314 316 313 311 305 309 311 312 313 311 311 312 313 313 316 315 315 316 317 317 317 317 317 318 318 318 318 319 318
308 306 309 307 308 308 308 308 307 305 304 304 305 305 301 303 317 315 308 306 308 306 312 313 310 311 311 314 312 315 314 315 315 315 316 316 315 315 315 316 316 316 316 317 317
309 306 307 308 308 308 309 309 309 306 303 303 303 302 301 303 306 315 309 312 314 314 314 309 312 311 312 311 311 313 313 312 313 312 312 313 313 315 315 315 316 316 316 316 318
309 309 306 308 307 309 309 310 312 309 305 301 301 301 302 306 311 315 311 310 310 311 308 314 315 314 314 313 313 311 311 312 312 313 313 314 315 313 315 315 315 315 316 316 317
311 309 309 308 307 309 312 311 312 312 311 304 301 301 302 304 315 315 313 310 310 310 316 316 314 312 312 313 311 311 313 312 313 314 314 313 315 315 315 314 314 315 316 316 316
313 312 311 310 309 308 311 313 313 313 314 308 303 303 306 305 315 315 314 312 310 313 315 315 314 314 312 310 311 312 312 314 313 312 313 312 315 315 313 314 315 314 315 316 316
312 311 313 311 310 309 309 312 313 315 315 312 309 309 313 309 311 315 315 313 313 313 314 314 314 311 311 313 313 311 312 313 314 313 313 313 314 315 315 314 315 315 315 315 315
312 310 311 313 310 310 309 312 315 315 315 314 314 312 313 316 317 315 314 314 314 314 312 313 311 314 312 313 312 312 313 312 313 315 314 314 315 315 314 314 314 315 315 314 315
311 309 309 313 311 310 310 314 315 314 314 315 314 314 314 316 317 316 315 313 313 312 315 311 314 315 315 313 312 312 312 313 314 314 313 315 316 316 315 314 315 316 316 315 314
308 308 308 313 311 311 310 315 315 314 314 314 314 314 315 315 315 316 314 313 313 314 312 314 315 315 313 312 312 313 314 315 314 314 314 316 316 316 315 315 315 315 315 316 316
306 307 308 313 312 309 309 315 315 314 315 314 314 314 314 314 315 315 312 312 312 312 313 314 314 311 312 313 313 314 314 315 315 315 316 316 316 316 316 314 314 315 315 315 315
305 304 309 313 312 310 311 315 315 315 316 317 316 316 314 315 316 316 313 312 313 314 313 314 314 313 313 313 314 315 314 314 316 318 317 316 319 317 317 317 316 315 315 315 315
303 307 310 313 312 310 313 315 315 315 320 319 316 316 316 316 314 315 316 312 314 314 313 315 313 314 314 314 313 315 316 317 317 318 317 317 317 316 317 316 317 317 315 315 315
308 310 312 314 309 308 314 315 314 319 323 317 315 315 316 315 314 313 315 314 313 314 313 314 312 313 314 315 316 317 317 318 316 317 317 316 317 317 316 317 316 315 314 314 316
309 312 314 312 310 312 314 315 316 318 317 315 315 314 313 313 314 314 314 315 316 315 315 314 314 314 316 317 317 318 318 317 317 317 317 315 316 315 316 315 316 316 316 316 316
312 313 312 310 310 312 314 316 316 316 316 314 313 313 313 312 313 313 314 314 315 313 314 316 315 317 317 317 316 318 316 315 316 313 314 314 315 314 315 316 316 316 316 316 316
313 315 315 310 313 314 315 317 315 318 314 313 313 313 312 312 312 313 313 314 316 316 316 318 317 316 316 317 316 317 316 317 319 315 315 313 314 316 316 318 317 316 316 316 316
311 315 315 315 316 314 312 310 316 314 312 313 313 313 316 314 314 312 313 314 315 314 313 315 314 313 315 316 316 317 316 317 316 316 314 313 317 317 317 318 317 317 315 315 315
311 313 311 316 316 312 314 314 314 313 312 313 313 314 313 313 312 313 313 313 314 314 313 315 314 313 313 314 313 316 317 317 315 315 316 315 314 316 316 317 316 315 314 313 313
311 313 310 317 315 308 313 312 312 314 313 314 312 311 313 313 314 314 313 312 313 314 315 313 316 315 313 311 310 312 312 313 315 314 317 316 314 313 316 315 314 315 314 313 312
309 309 310 314 315 312 311 312 313 314 314 311 315 313 310 310 311 311 312 311 311 314 315 314 315 313 312 312 311 314 314 314 315 314 314 315 313 314 315 314 313 314 314 312 311
308 310 308 308 307 309 309 312 313 312 312 312 313 311 312 311 310 310 310 311 311 314 314 313 313 313 312 311 312 312 312 313 313 314 313 312 312 313 314 314 314 314 312 311 311
308 306 305 309 309 308 307 310 312 313 313 312 311 312 312 314 313 311 309 310 310 315 310 312 314 313 312 312 311 311 311 311 313 313 313 313 314 314 315 315 314 312 311 310 310
307 307 306 306 306 307 308 311 311 312 311 312 312 312 312 311 310 309 309 309 308 309 312 310 314 313 312 311 311 311 311 312 312 312 312 313 315 313 313 312 312 312 311 310 310
307 306 306 306 307 307 309 310 310 308 309 309 310 310 310 310 309 309 309 308 308 309 311 311 312 311 309 310 311 312 312 312 312 313 315 315 314 313 314 313 311 309 309 308 308

GFSSW_850_thetae_084.txt.gz
Theta_e
305 308 310 308 307 306 306 306 305 304 304 304 304 304 303 303 302 302 305 306 305 307 307 310 310 312 315 316 317 318 321 321 322 321 322 321 322 323 321 321 321 322 323 324 323
307 306 309 307 306 306 305 305 305 305 304 304 305 305 304 303 301 309 310 304 304 305 313 313 312 312 315 316 316 318 320 320 321 321 321 320 320 320 320 320 320 321 320 321 322
307 305 308 308 308 308 308 308 307 305 304 305 305 305 304 301 314 317 313 311 304 306 313 314 313 313 315 316 317 318 319 320 320 319 319 320 319 318 319 320 320 320 320 320 321
309 310 306 308 307 309 309 309 308 306 304 303 304 305 302 303 319 317 307 310 306 312 313 313 313 314 316 317 317 318 318 318 318 318 318 319 318 319 319 319 319 319 318 319 319
312 312 310 309 307 308 310 310 312 309 305 302 303 303 301 312 312 311 307 307 308 313 313 314 315 315 317 317 317 318 318 317 317 317 317 317 317 318 318 317 317 318 318 318 319
311 311 313 312 310 307 310 311 311 313 312 304 302 301 308 313 310 312 312 313 314 315 314 313 315 315 315 315 316 316 316 316 316 316 317 317 318 317 317 317 317 318 318 319 319
313 310 309 313 312 309 308 312 313 313 314 312 304 302 308 309 314 315 311 314 314 312 314 317 316 315 316 316 315 315 317 317 317 317 318 317 318 319 318 317 317 317 318 318 318
312 311 309 309 313 311 308 309 312 313 314 314 308 306 312 304 314 316 314 312 312 314 317 316 315 315 316 315 315 316 317 318 318 317 316 315 317 318 317 317 317 317 317 317 318
310 309 308 308 312 312 310 308 311 314 315 314 310 313 315 308 312 315 316 313 313 313 314 315 316 316 315 317 317 317 316 316 316 316 317 317 317 318 317 317 317 317 318 318 318
306 306 306 307 310 313 311 308 313 315 315 314 314 316 314 313 314 315 317 314 315 315 315 316 316 317 317 317 316 317 316 316 317 317 317 318 318 318 318 317 318 318 317 317 317
304 305 306 306 310 313 311 309 318 318 316 317 317 316 316 317 318 317 315 315 315 316 317 316 317 318 318 317 316 316 316 316 317 318 318 318 319 319 318 318 318 318 318 318 318
304 305 306 306 311 312 310 314 317 316 317 317 316 316 316 316 318 316 315 315 315 316 316 317 317 317 317 316 315 316 316 317 318 318 318 319 319 319 319 319 318 318 318 318 318
306 304 305 309 313 309 308 316 315 315 318 316 316 317 316 317 318 317 316 315 316 317 317 317 317 315 316 316 316 317 317 318 318 318 319 320 320 320 320 319 318 318 318 317 317
308 308 309 312 314 312 312 314 315 315 320 320 318 317 316 317 318 317 315 315 315 316 316 317 317 316 317 317 317 318 318 317 318 319 321 320 321 320 320 320 320 318 318 318 318
309 309 311 312 313 312 314 315 315 315 325 321 318 316 316 318 317 318 315 314 317 317 317 318 317 317 317 318 317 318 318 318 319 320 321 320 321 320 320 320 319 319 318 316 316
310 313 313 314 308 310 314 314 315 321 326 318 318 318 317 318 315 317 317 316 316 317 317 318 317 317 317 317 317 318 318 319 320 321 322 320 320 320 319 317 317 317 317 317 319
311 312 313 311 310 313 314 316 320 319 320 318 318 317 318 317 317 317 317 318 318 318 319 319 318 318 317 318 319 319 320 322 321 321 321 317 316 317 317 318 319 318 318 319 319
313 314 312 311 312 313 315 318 318 319 319 316 316 316 318 316 316 315 316 317 317 317 317 319 320 318 318 318 319 319 320 320 321 319 317 315 315 317 317 317 318 318 318 318 319
314 314 312 309 314 314 317 319 319 319 316 317 317 318 318 317 317 316 316 316 316 317 317 319 319 318 318 318 317 319 319 318 318 317 317 316 315 316 319 319 318 318 318 318 318
311 314 313 315 316 315 317 314 318 316 315 316 317 316 319 318 317 316 316 316 316 316 316 317 318 316 317 317 317 316 317 318 317 319 316 314 314 315 317 317 317 317 316 317 316
311 316 312 316 316 316 318 317 317 315 315 315 316 317 316 316 316 317 317 315 315 316 316 316 316 315 315 315 315 318 316 316 317 318 318 316 314 316 315 315 317 317 314 316 316
312 318 312 318 320 315 317 315 313 316 316 316 317 314 315 317 317 316 317 317 314 315 316 316 316 317 315 315 314 314 314 316 320 317 317 318 317 315 316 317 317 315 315 316 316
312 313 312 316 321 318 316 316 315 316 316 316 317 317 316 315 315 316 316 314 313 314 315 316 316 318 316 315 315 314 314 314 315 316 318 318 316 315 315 315 315 316 316 316 315
311 316 313 312 312 315 315 316 316 314 315 314 316 315 315 316 316 314 314 313 312 313 315 315 316 316 316 314 315 314 314 314 316 318 316 316 315 315 315 316 316 316 316 315 315
310 313 310 315 314 313 313 314 315 315 314 314 315 314 314 316 315 315 314 312 311 311 313 314 318 316 315 314 314 313 314 313 313 314 315 315 315 315 315 316 316 315 315 314 314
311 311 310 311 310 310 310 314 313 313 312 314 314 313 313 314 314 315 314 314 313 311 312 314 314 313 315 314 314 313 312 312 313 313 314 314 315 315 315 315 314 314 314 313 312
308 308 309 309 310 310 311 310 311 309 310 311 311 310 311 311 310 311 311 311 313 313 312 313 314 315 315 312 312 313 315 314 314 314 314 315 316 316 316 315 313 312 311 311 311

GFSSW_850_thetae_087.txt.gz
Theta_e
306 306 308 307 308 307 306 305 305 305 304 303 304 304 304 303 303 303 310 309 310 307 307 315 312 314 315 317 318 319 323 325 325 328 328 327 328 325 326 325 326 325 326 328 326
310 309 307 308 308 308 308 309 307 305 305 305 305 305 305 304 303 311 310 308 307 307 310 315 313 314 316 318 318 321 321 322 323 324 325 324 324 325 326 326 325 325 324 324 324
312 312 311 310 308 308 309 309 309 307 305 304 305 305 305 302 316 320 316 310 304 306 316 315 315 315 317 318 319 319 321 321 321 321 322 323 322 321 322 323 323 324 324 324 323
311 310 310 312 310 308 309 309 312 310 306 302 304 305 303 306 321 321 309 312 304 310 316 316 316 316 319 320 319 320 320 320 321 321 320 320 320 320 320 321 321 321 321 321 322
313 312 311 309 312 311 308 311 311 313 313 306 302 302 302 316 317 313 308 307 306 313 315 316 316 317 319 320 319 320 321 320 320 320 319 319 320 320 320 320 320 319 320 320 320
312 311 311 309 308 312 311 308 312 313 313 313 303 302 309 317 316 311 313 309 315 315 316 316 317 317 318 319 320 320 320 320 320 319 319 319 319 319 319 319 319 319 320 320 321
310 309 309 308 307 309 312 310 310 313 313 314 308 303 313 315 316 315 314 316 315 316 316 315 317 317 318 319 318 319 319 319 320 319 320 319 320 320 320 320 320 320 320 320 320
306 306 306 306 306 307 313 311 308 311 314 314 311 312 316 310 315 318 316 314 315 314 317 318 317 317 318 319 318 319 319 320 321 320 320 318 319 321 320 319 319 319 319 319 319
302 303 304 305 305 306 312 312 309 311 315 315 313 316 319 311 315 318 316 314 315 317 317 317 317 318 318 319 319 319 320 320 321 320 319 319 320 320 319 319 319 319 319 319 320
302 303 305 306 307 308 312 311 309 314 315 315 316 319 318 313 315 316 317 315 315 316 317 316 318 319 319 319 320 320 320 319 319 320 319 319 320 320 320 320 320 320 320 320 319
309 309 307 308 308 310 312 312 321 321 318 321 320 319 316 316 316 316 317 315 316 318 319 318 319 320 319 319 319 319 319 319 320 320 320 320 320 321 320 320 320 320 320 320 320
309 309 309 310 310 312 308 316 319 318 319 320 318 318 317 318 317 317 317 317 318 320 319 320 319 319 320 320 319 319 319 319 319 320 320 320 321 321 322 321 321 320 320 320 320
308 308 309 311 312 313 315 315 318 318 321 319 317 317 317 318 319 319 316 317 319 319 319 320 320 318 318 318 318 318 318 319 320 320 320 321 322 324 324 322 321 320 320 320 320
311 310 312 312 315 316 315 314 317 318 324 321 320 319 317 318 319 319 317 317 318 319 319 319 319 317 318 318 319 320 320 320 320 321 322 323 324 324 323 323 323 321 321 321 320
311 312 313 313 314 316 317 315 316 318 331 322 320 317 318 319 319 318 317 317 318 318 319 319 319 319 319 320 320 320 320 320 321 322 323 323 324 324 324 323 322 321 319 319 319
311 312 313 312 309 315 315 315 318 325 330 321 320 320 319 319 317 318 318 316 317 318 319 320 319 319 320 320 319 320 320 321 321 322 324 324 325 324 323 321 320 320 320 319 320
312 313 311 314 315 314 316 319 326 324 322 321 320 320 319 320 318 319 319 319 319 319 318 319 319 320 319 320 321 321 323 324 324 325 325 323 320 321 320 320 320 320 319 320 320
314 312 311 314 315 315 318 323 325 321 322 319 319 319 320 320 319 319 319 320 320 320 320 320 322 321 320 320 321 321 322 325 326 324 324 323 320 319 319 319 319 319 320 319 319
314 317 316 315 316 318 320 325 323 322 319 319 320 320 321 320 319 319 320 320 319 319 318 319 320 320 319 319 319 320 320 321 323 321 320 319 319 319 320 320 319 318 317 317 318
313 318 316 314 317 319 322 318 321 318 317 318 320 320 321 322 321 321 321 320 319 318 318 320 322 321 320 319 319 319 318 321 321 322 323 318 317 317 320 319 317 317 317 316 315
316 319 316 317 319 320 322 321 319 317 317 318 319 320 320 320 320 320 321 319 318 319 318 319 320 321 318 318 318 319 320 318 318 320 323 321 318 318 318 318 317 318 317 316 317
317 322 316 318 322 321 321 320 315 317 318 319 319 320 320 319 319 320 319 319 318 317 318 319 319 321 319 319 317 317 317 318 322 322 319 320 319 318 317 317 317 316 316 316 316
316 317 316 317 323 322 320 319 317 318 319 319 319 319 319 320 320 319 318 318 318 318 317 318 320 320 320 319 318 317 315 315 317 318 319 322 319 317 317 317 316 316 316 316 317
315 319 317 316 317 320 319 319 319 317 317 317 318 318 318 319 318 319 317 316 315 315 315 315 320 321 322 321 320 318 316 316 317 319 319 319 318 317 317 317 316 316 317 316 316
315 318 315 320 319 317 317 318 318 318 316 316 317 316 316 318 318 317 317 318 315 314 314 316 320 319 318 319 318 317 315 315 316 316 317 316 316 316 316 316 317 316 316 316 315
313 314 315 315 315 316 313 318 317 315 315 316 315 314 315 316 316 317 316 317 318 317 315 315 319 317 319 317 316 315 315 315 315 315 315 315 315 316 317 317 316 316 315 314 313
312 311 312 313 315 314 316 314 314 312 313 313 313 313 314 314 312 313 313 314 315 316 316 316 318 318 317 316 316 315 314 315 314 315 316 316 317 317 317 317 315 314 313 313 312

GFSSW_850_thetae_090.txt.gz
Theta_e
311 311 312 311 308 308 309 309 308 307 305 305 304 305 304 304 304 303 306 307 311 309 308 312 312 311 314 317 318 320 324 325 326 328 329 330 331 330 328 327 328 328 328 327 327
312 311 310 311 312 309 308 309 310 308 306 305 305 305 305 304 303 306 315 309 309 310 308 312 314 313 315 317 318 321 322 323 324 325 326 325 326 329 327 327 329 328 327 326 325
313 312 312 310 309 312 310 308 310 312 309 304 303 304 305 302 316 322 319 314 306 308 308 315 316 314 316 317 318 319 321 321 322 323 323 323 323 324 324 325 327 327 326 326 325
312 312 312 311 309 309 312 310 310 311 313 311 302 303 304 304 323 322 313 308 308 306 309 314 318 316 317 318 319 320 320 320 321 321 322 322 322 321 322 322 322 323 322 323 323
311 311 310 309 308 307 310 312 308 312 313 313 307 302 302 319 319 318 309 309 307 307 312 318 317 317 318 319 320 321 321 321 320 321 321 321 321 320 320 321 321 321 321 321 321
306 306 306 306 306 306 307 313 311 309 313 313 313 303 307 319 317 316 313 306 309 312 316 318 318 317 318 320 321 321 321 321 321 321 321 321 320 320 320 319 320 320 320 320 321
302 302 303 304 305 306 307 311 312 309 311 313 313 306 313 316 315 316 315 314 315 316 317 317 318 318 319 320 320 321 320 321 321 321 321 320 320 320 320 320 320 320 320 320 321
303 303 303 304 305 307 309 310 312 309 310 314 314 308 317 314 314 319 316 317 317 317 318 317 319 319 319 320 320 320 320 320 321 321 321 320 320 322 321 321 321 321 320 320 320
311 309 309 309 308 308 310 311 312 309 312 315 314 316 320 313 312 319 317 315 315 316 319 319 319 319 319 321 320 320 319 320 320 322 321 321 320 321 321 320 320 320 320 320 320
312 310 309 309 310 310 311 312 311 310 316 315 317 318 320 319 312 318 318 316 316 317 318 317 318 319 320 319 321 320 320 320 321 322 321 320 319 320 320 320 320 321 320 321 320
312 308 307 310 310 311 312 313 322 322 320 320 322 319 316 315 316 316 318 316 317 317 319 318 319 320 321 321 320 321 320 321 321 321 320 320 321 321 321 321 321 321 321 321 321
313 311 310 311 311 312 312 315 320 319 320 321 319 319 319 319 318 317 318 317 317 319 320 321 319 320 321 320 320 320 319 320 321 320 320 320 321 321 322 322 321 322 322 322 321
313 311 311 313 313 314 314 317 318 319 320 322 321 319 318 318 319 318 318 318 319 320 321 320 321 320 319 320 320 320 320 319 319 320 321 321 321 323 323 323 323 323 322 321 321
312 311 312 313 319 319 318 317 316 319 323 322 319 319 318 317 319 320 319 318 319 320 320 320 320 320 319 319 319 319 320 320 321 321 321 322 323 324 324 324 324 323 323 321 321
311 312 313 313 316 318 318 317 317 319 333 323 321 320 319 318 320 319 319 317 318 319 318 320 320 319 319 319 320 320 321 321 321 322 322 322 323 324 325 325 324 323 321 321 320
311 313 314 318 315 316 316 317 319 325 332 323 321 319 320 319 320 319 318 317 318 317 318 319 319 320 320 320 321 321 321 321 322 322 323 323 324 324 324 323 322 322 321 320 320
311 314 311 317 318 316 317 320 326 328 325 323 322 320 320 320 320 320 319 318 317 319 319 319 319 320 320 320 320 321 322 324 326 325 325 325 325 325 323 321 321 321 320 320 320
312 313 312 315 318 318 319 324 328 324 323 321 320 321 321 321 321 320 321 321 320 319 320 322 322 322 322 321 321 322 322 324 328 327 325 324 326 324 321 320 320 320 320 320 319
313 319 319 318 318 320 322 327 325 324 321 320 320 321 321 321 320 321 321 321 321 321 323 321 321 320 321 321 320 320 321 322 324 323 324 323 322 321 321 321 321 320 319 318 318
313 319 321 318 319 321 324 325 321 320 320 320 321 322 322 323 323 322 322 323 322 321 320 320 322 321 322 321 320 320 320 322 321 325 324 322 321 320 321 320 319 318 317 317 317
316 322 320 320 320 322 326 323 321 319 318 320 321 321 321 321 321 323 323 322 321 321 320 320 322 323 322 322 320 319 320 320 320 325 324 321 320 320 319 319 318 317 316 316 317
317 323 319 319 323 325 322 322 318 318 318 320 320 320 320 321 323 321 321 321 320 319 320 320 322 323 322 321 320 319 319 322 325 321 321 322 321 321 319 318 317 317 317 316 317
315 317 319 317 324 325 323 320 319 319 319 320 320 320 320 320 320 321 321 319 319 320 320 319 321 323 322 321 320 320 318 318 319 322 323 325 321 318 319 320 317 317 316 316 317
315 320 320 318 318 320 321 320 319 319 318 318 319 319 319 319 319 320 320 319 317 318 317 317 320 323 325 324 322 321 320 318 318 320 318 318 318 319 320 318 317 316 317 317 317
316 318 318 318 321 321 319 319 319 319 319 318 318 318 319 319 319 319 318 319 319 317 316 317 319 319 319 320 320 321 321 320 318 317 318 317 317 317 317 318 318 318 317 316 315
316 314 315 316 316 318 315 318 319 319 317 318 317 316 316 317 317 318 317 317 318 319 318 318 319 318 320 319 319 319 319 319 317 317 316 316 316 316 317 317 317 316 315 315 314
313 313 314 314 317 317 317 318 317 315 314 315 315 315 314 314 313 314 314 315 315 317 318 319 319 319 320 318 318 318 318 318 317 316 315 315 316 317 318 318 316 315 314 313 313

GFSSW_850_thetae_093.txt.gz
Theta_e
313 313 313 312 310 311 311 308 309 310 308 305 305 305 305 305 304 304 304 306 306 306 309 311 311 312 312 313 315 318 316 319 320 323 325 327 329 331 330 328 327 327 328 327 326
312 312 312 312 311 309 310 312 308 310 312 309 303 304 305 305 304 307 320 318 307 308 309 309 312 313 311 313 314 315 316 318 320 322 323 324 324 328 326 327 326 327 328 327 325
311 311 310 310 309 308 307 311 312 309 312 313 308 302 304 303 315 322 320 312 311 308 309 309 312 313 311 313 314 316 315 317 320 322 322 322 323 323 321 323 325 323 325 325 324
306 307 307 306 306 306 306 307 312 311 311 313 313 304 302 301 321 323 317 308 308 307 308 309 311 314 311 311 316 314 317 317 319 320 321 320 323 324 321 320 321 321 321 322 322
302 302 302 303 303 304 305 306 309 312 309 313 312 311 301 314 316 319 315 308 310 306 307 309 312 316 312 313 315 315 316 318 319 319 319 321 320 321 320 320 320 320 321 321 321
305 305 304 304 304 304 306 307 308 312 310 312 312 312 305 316 318 318 312 308 307 308 312 312 316 318 316 314 313 318 317 318 319 319 319 319 319 320 320 320 320 320 320 320 320
309 311 311 310 308 307 307 308 310 312 309 310 313 312 309 307 316 317 314 310 309 315 315 317 317 317 317 314 317 318 317 317 317 319 319 320 318 318 320 320 319 319 319 319 320
313 313 312 311 310 310 310 309 310 312 309 310 314 310 313 316 314 316 316 316 317 316 316 317 317 319 319 319 319 318 317 316 316 318 319 319 316 319 320 320 320 319 319 320 320
313 313 311 310 310 310 311 310 311 311 309 312 314 316 317 316 313 314 317 317 316 316 317 319 319 319 319 316 315 318 315 316 316 316 318 316 317 318 320 320 320 320 320 320 320
312 313 313 312 311 312 311 311 312 309 316 314 316 316 317 318 313 315 319 317 315 316 318 318 318 316 314 315 315 317 315 316 317 318 318 316 316 317 320 320 320 320 320 320 320
311 312 312 311 312 312 313 312 322 319 318 316 317 316 318 318 314 316 319 317 316 317 316 317 314 315 315 316 317 317 317 317 319 318 318 316 317 317 320 320 320 320 320 320 320
312 311 311 312 312 312 313 312 319 319 320 320 321 320 320 319 316 317 318 317 317 316 316 317 315 317 319 319 319 318 318 317 318 320 318 319 319 320 320 319 320 321 321 321 322
311 311 311 313 314 315 316 315 318 318 318 319 320 320 320 318 319 317 318 318 317 316 318 317 319 319 319 318 319 319 319 318 318 318 318 320 318 319 319 320 321 321 321 321 321
311 310 312 313 318 319 319 318 317 317 319 323 322 321 318 318 318 319 317 318 318 318 318 318 319 320 319 319 318 318 318 318 318 319 318 319 318 319 319 320 320 321 321 321 321
310 310 312 314 313 318 316 317 317 319 333 322 320 319 318 317 319 320 319 318 318 318 318 317 318 319 318 318 318 317 320 320 320 318 318 319 318 318 319 320 320 319 320 320 320
308 310 313 315 318 316 317 316 318 322 331 324 320 320 318 318 319 319 319 318 318 318 317 317 318 319 319 319 319 320 319 319 320 318 318 319 319 319 320 321 320 319 320 320 320
308 312 313 313 319 318 318 318 324 328 326 324 320 319 319 319 319 319 319 317 316 316 317 318 317 318 319 320 319 319 317 318 320 321 321 322 323 321 322 320 319 317 320 320 320
308 313 316 313 317 319 320 321 329 327 324 321 321 320 320 319 319 319 319 318 316 316 317 320 321 320 321 321 320 321 320 324 327 324 322 322 325 325 320 319 320 320 320 319 319
308 314 318 318 318 319 321 325 328 324 321 320 320 321 320 321 321 321 319 319 320 318 322 322 322 321 321 321 319 320 319 320 320 322 321 320 320 321 321 319 319 320 319 319 318
308 315 320 322 318 319 322 325 326 320 319 320 320 322 322 323 322 322 323 322 323 321 318 320 321 320 321 321 320 320 319 322 320 324 323 321 320 322 320 318 317 316 317 317 317
309 320 321 319 318 321 323 325 323 319 318 319 320 321 321 321 322 323 324 322 322 321 318 319 320 321 320 322 321 321 318 318 320 324 319 320 320 319 318 316 316 316 316 316 316
312 320 320 319 322 323 324 324 319 319 318 319 320 320 320 320 320 322 322 322 320 320 320 321 320 322 321 319 321 320 318 319 321 322 320 319 320 319 319 316 316 315 316 317 317
311 315 319 318 319 321 324 323 320 319 319 319 319 320 320 320 320 320 321 319 319 320 320 320 319 320 320 319 319 321 320 318 320 320 321 321 322 319 317 316 318 317 317 317 316
311 319 319 318 317 319 320 321 320 319 319 318 319 318 319 319 318 320 320 319 318 318 319 318 319 320 321 325 322 323 322 320 316 315 316 316 316 316 316 317 317 316 315 315 314
313 319 315 318 317 318 319 318 318 319 319 318 318 318 317 318 317 317 319 318 318 318 317 316 317 318 317 318 320 321 321 321 321 319 317 316 317 316 315 315 314 315 314 314 314
313 314 314 314 314 317 318 318 318 318 317 318 317 316 315 316 316 316 316 316 316 317 319 316 316 317 318 318 318 318 319 321 321 320 319 317 316 315 316 315 314 313 313 313 312
312 312 313 314 315 315 317 317 316 315 315 315 314 313 313 313 313 313 313 314 315 315 316 317 318 317 318 318 318 320 318 318 318 318 317 315 316 314 313 313 312 312 312 311 310

GFSSW_850_thetae_096.txt.gz
Theta_e
312 313 313 312 312 310 308 307 312 309 311 313 307 304 305 305 305 305 305 310 311 305 310 311 309 309 314 313 314 316 312 315 316 318 320 325 327 331 330 329 327 329 328 329 328
308 309 309 309 308 308 307 306 307 312 309 312 313 307 303 305 305 306 317 319 317 307 306 310 310 311 312 311 312 310 312 314 315 317 320 322 324 326 325 323 325 327 326 326 326
302 303 303 304 304 305 305 306 306 309 312 310 312 313 303 302 305 321 320 314 314 308 306 309 310 312 312 311 311 312 312 314 317 317 319 320 321 324 322 321 322 320 323 325 325
302 303 304 305 304 303 304 306 306 307 311 309 312 312 309 302 316 323 319 316 311 308 309 309 309 311 308 308 311 310 313 314 316 318 319 320 320 322 325 323 322 320 320 321 322
308 309 311 311 310 308 306 306 307 308 310 311 311 311 311 306 306 316 316 309 308 308 309 309 310 312 314 310 311 310 312 315 317 317 316 319 322 323 323 326 325 321 320 320 321
312 313 313 312 310 311 310 309 308 308 310 311 309 311 310 309 317 317 312 308 309 307 307 308 314 314 315 314 310 313 313 314 316 316 316 316 317 319 321 322 320 320 320 320 320
313 313 313 312 311 309 310 311 310 309 311 309 308 311 311 313 316 316 315 308 307 307 307 311 315 316 316 312 317 313 312 313 314 315 314 318 316 316 320 320 320 320 320 319 319
313 312 311 312 312 312 311 311 311 310 311 308 309 312 313 314 313 315 315 315 311 311 315 316 316 315 314 316 315 313 312 313 314 315 317 317 316 317 320 319 319 320 319 319 319
313 313 311 311 311 311 312 312 312 311 310 309 312 312 315 316 314 314 317 316 316 316 316 317 315 315 316 314 312 313 313 314 315 314 316 316 315 316 319 319 319 319 319 319 320
312 312 311 311 311 311 312 313 312 311 312 313 315 315 316 317 315 314 317 317 316 316 316 317 317 314 311 312 314 315 315 315 316 316 315 315 315 315 319 319 319 318 319 319 320
312 312 310 311 312 312 313 312 319 319 316 317 314 314 316 319 316 314 318 318 317 314 315 316 312 313 313 314 315 316 316 316 315 316 315 315 315 315 316 318 318 318 319 320 320
311 311 310 311 312 314 313 313 315 318 317 318 319 318 319 320 317 316 319 318 316 314 315 314 313 314 315 316 317 317 316 316 316 317 316 314 314 315 316 317 318 319 319 319 319
309 310 310 312 316 318 318 317 316 316 315 318 319 319 319 319 318 316 318 318 315 315 315 314 316 317 316 316 317 316 316 317 317 317 316 316 316 318 318 319 320 319 319 319 321
308 307 309 311 318 315 317 317 317 318 316 321 321 321 320 318 317 318 316 318 316 316 315 315 317 318 318 318 316 316 317 318 319 316 316 317 317 317 318 318 318 318 321 321 321
307 307 310 311 313 316 316 316 316 319 329 325 321 321 318 318 318 317 318 318 317 317 317 316 317 316 317 317 316 315 319 319 319 316 316 317 316 316 317 319 318 316 319 320 320
307 306 309 312 314 317 318 317 317 321 327 325 319 318 317 317 317 319 319 318 317 316 316 315 316 317 318 318 317 318 317 315 315 314 316 317 316 316 317 318 318 317 319 320 320
307 306 310 312 317 318 319 319 320 324 326 323 319 317 317 317 318 317 318 316 315 315 315 316 316 316 319 320 318 315 314 315 317 318 319 321 320 317 319 317 317 316 319 319 319
306 306 312 312 314 319 320 318 326 327 326 324 319 318 318 317 318 318 317 316 315 315 316 316 319 320 320 320 319 318 316 317 321 322 321 319 323 322 317 317 318 319 319 319 319
306 307 312 315 317 318 320 321 324 327 320 320 320 319 319 319 319 319 317 317 316 314 315 321 322 319 320 320 318 319 317 317 319 319 319 318 320 319 319 319 318 318 319 318 318
306 308 317 318 319 320 319 322 324 320 319 319 320 320 320 320 321 323 320 321 323 319 317 318 319 320 321 320 319 319 318 319 318 322 322 321 321 321 319 318 317 316 317 317 318
307 313 321 320 319 321 320 322 324 318 318 319 319 320 319 320 321 322 324 323 321 319 317 317 317 319 319 320 320 320 319 317 318 321 319 319 319 317 316 314 313 313 316 315 314
308 311 321 318 318 318 320 322 323 320 318 318 318 319 319 319 320 321 320 319 320 319 320 318 317 319 319 318 318 318 318 316 319 319 318 316 316 318 317 316 314 312 315 315 314
308 310 317 320 317 317 318 323 322 320 317 317 318 318 317 318 319 320 320 318 318 319 318 317 317 318 317 315 317 320 320 317 316 315 318 320 317 318 317 316 314 313 313 313 313
308 312 317 318 317 316 319 320 319 318 318 317 317 316 316 317 314 318 319 318 317 318 318 317 316 316 316 320 319 322 322 320 319 316 317 317 317 315 315 315 313 312 313 313 312
309 313 313 314 315 312 314 317 317 318 317 316 316 316 316 316 315 317 316 315 317 318 316 313 316 317 317 316 318 321 321 320 322 321 317 316 313 313 313 312 312 312 312 312 311
310 313 312 312 313 314 316 317 317 317 316 316 315 314 313 314 314 315 313 313 315 313 316 313 314 316 316 316 316 317 318 319 321 321 321 319 318 313 313 312 311 311 310 310 310
310 310 312 311 312 313 313 314 316 313 314 314 312 312 312 312 312 312 311 312 311 314 313 314 315 316 316 317 318 317 317 317 317 320 320 320 315 312 311 310 310 310 310 310 310

GFSSW_850_thetae_099.txt.gz
Theta_e
304 304 304 304 304 305 305 306 306 306 311 309 312 313 307 303 305 305 305 307 311 306 306 309 309 306 311 314 315 316 312 313 315 317 318 321 322 330 329 329 328 327 339 345 347
302 302 303 303 303 303 303 304 305 306 308 311 310 312 313 306 303 305 309 317 317 312 305 308 309 307 311 313 313 309 309 312 313 316 317 319 319 323 326 327 327 325 327 334 346
306 307 309 309 310 309 307 304 304 306 307 310 310 311 312 311 303 310 320 319 314 314 306 309 310 311 311 309 311 309 311 312 314 317 317 317 318 320 326 324 328 320 321 324 328
311 312 313 313 312 311 311 310 308 307 307 308 311 310 312 311 303 322 319 317 313 313 306 307 309 310 308 308 310 309 310 313 314 316 317 316 318 321 325 328 327 320 321 321 322
313 313 313 313 313 312 310 309 309 309 309 309 311 309 311 309 311 310 314 316 310 312 307 308 309 310 310 308 308 309 309 312 314 315 316 316 320 321 322 324 325 324 321 320 321
313 313 312 311 311 312 312 312 311 310 310 309 311 308 310 311 310 317 314 310 309 310 308 309 309 311 313 313 308 309 310 311 312 313 315 313 314 320 323 324 323 324 324 320 320
314 314 313 312 310 311 311 311 312 311 311 310 310 307 311 313 312 316 314 308 309 307 308 308 312 314 314 314 315 312 310 310 311 312 312 314 313 316 318 325 322 325 327 320 319
312 312 312 311 310 311 311 312 312 312 311 310 307 308 312 313 313 316 315 313 309 308 308 310 310 314 313 315 315 311 310 310 312 311 313 315 313 314 318 319 322 322 321 321 319
311 311 311 311 310 311 312 312 312 312 311 309 308 311 312 314 313 314 316 315 314 309 308 309 308 311 313 312 311 311 311 310 312 311 313 313 314 315 318 318 318 319 319 319 319
309 309 311 311 310 311 312 311 311 311 311 311 313 313 315 316 316 313 314 315 314 314 311 309 310 311 309 311 314 313 313 313 314 314 313 313 314 314 317 317 317 319 318 319 319
308 308 309 309 310 311 313 312 316 317 313 317 315 313 314 316 319 314 315 315 314 314 313 315 312 312 312 312 314 315 315 314 314 314 316 313 313 314 314 316 316 317 318 318 318
309 307 307 308 311 316 316 312 315 317 316 317 317 317 319 319 318 313 314 314 316 312 313 313 312 313 313 314 315 315 316 315 314 315 314 313 313 312 313 315 317 318 318 319 317
309 307 307 309 313 317 316 317 317 316 315 316 317 318 318 319 319 317 314 316 314 314 313 313 314 315 315 315 315 315 315 315 316 316 315 315 314 315 316 317 317 317 317 317 318
308 308 307 309 315 316 316 316 316 317 316 319 321 320 318 319 317 317 315 318 315 314 313 313 314 315 316 316 315 315 314 316 317 315 315 315 315 315 317 316 316 317 318 319 321
305 308 307 307 311 313 316 317 317 318 322 324 320 320 319 318 317 317 317 318 316 315 314 315 316 315 316 316 315 316 316 317 316 314 314 315 314 314 315 318 318 316 319 320 320
303 305 307 307 311 315 318 318 317 319 325 325 320 317 316 316 317 317 317 317 317 315 315 314 316 315 315 316 316 316 315 313 313 312 315 316 314 314 315 316 317 316 318 320 320
302 304 306 306 311 317 317 319 319 323 324 326 319 316 316 316 317 316 316 316 315 316 315 315 315 315 317 318 317 314 312 314 315 315 315 317 317 315 317 316 316 315 317 319 320
302 303 306 306 312 314 316 318 323 324 327 324 318 316 316 315 316 317 316 315 314 314 315 314 316 319 320 319 318 317 314 314 318 319 318 317 320 320 316 315 317 318 319 319 319
302 304 305 308 312 313 317 321 322 325 324 319 319 317 317 317 317 317 316 316 315 313 315 316 320 319 320 319 318 318 318 317 318 318 318 317 318 317 317 316 316 318 318 319 319
303 306 307 312 314 316 317 321 322 323 319 319 320 319 319 319 317 317 317 318 319 315 313 316 320 319 320 319 319 318 317 319 317 321 322 319 320 319 318 317 316 316 317 317 316
305 307 314 319 318 319 319 320 322 323 318 319 318 319 319 319 321 321 323 323 321 318 315 316 316 318 318 319 319 319 318 316 317 318 320 320 320 316 317 316 315 310 312 313 313
307 307 318 317 317 315 318 319 320 322 320 318 317 318 318 317 319 320 320 321 318 319 319 318 315 317 317 317 317 318 319 316 319 320 316 316 318 316 314 315 313 312 313 313 313
308 308 311 314 318 317 316 319 322 321 320 318 318 318 316 317 318 319 318 317 318 318 318 317 315 317 316 313 317 319 319 315 314 314 317 317 317 315 315 313 312 312 312 312 312
308 310 315 315 314 314 314 318 320 319 319 317 316 316 316 316 313 317 318 317 317 319 318 316 315 316 318 315 317 320 321 319 317 317 316 316 316 316 315 312 310 311 311 312 311
307 311 312 313 314 314 314 316 317 319 317 315 316 316 316 316 315 315 314 314 315 315 315 312 316 317 317 317 318 318 319 319 321 320 321 317 313 312 311 310 310 311 311 310 310
308 312 311 311 312 315 316 316 317 317 316 316 316 314 313 314 313 314 313 313 314 312 315 311 313 315 316 315 316 316 316 318 318 318 320 319 320 311 310 311 310 310 310 310 310
308 308 310 311 310 312 314 314 314 316 313 314 313 311 312 312 312 312 312 312 311 312 312 312 312 313 316 315 316 317 316 316 316 317 318 320 318 310 310 310 309 309 310 309 309

GFSSW_850_thetae_102.txt.gz
Theta_e
303 304 304 306 307 307 306 304 304 304 306 307 311 310 312 313 309 304 306 306 307 306 305 307 305 306 310 314 314 315 311 310 314 316 318 319 318 321 324 328 329 329 324 337 351
310 310 311 312 312 312 311 311 309 305 305 306 308 311 310 312 312 309 308 307 311 314 309 306 309 308 308 313 313 311 308 310 311 315 316 318 317 319 323 325 328 328 321 337 348
313 313 313 313 313 312 312 311 310 310 307 307 308 311 310 312 312 308 313 318 315 314 308 308 309 307 310 309 311 308 309 311 313 317 318 315 316 318 324 325 328 328 319 323 346
313 313 312 312 311 311 312 312 311 310 311 309 308 310 310 311 308 321 320 318 314 313 310 309 309 310 307 307 309 309 308 312 313 315 315 314 317 317 323 324 329 328 322 323 322
313 313 313 312 312 311 310 311 311 311 311 310 309 310 309 310 313 312 309 318 314 313 311 307 309 310 307 307 308 307 307 310 313 314 314 314 314 315 319 320 325 326 326 326 320
311 312 312 312 311 311 310 310 311 311 311 311 310 310 308 311 312 310 317 313 311 312 309 305 308 310 311 311 307 309 309 310 311 311 311 311 312 314 318 320 323 326 327 325 322
310 311 310 310 310 310 310 310 311 311 311 311 310 309 308 311 312 314 315 312 308 310 310 306 308 310 311 312 313 313 309 308 308 311 308 312 310 313 315 317 322 324 328 326 324
311 308 308 309 311 310 310 311 311 311 311 311 310 309 308 311 312 313 315 313 308 310 308 307 308 309 311 313 313 310 308 309 309 308 310 312 312 313 316 316 319 323 325 325 326
308 308 307 308 309 309 310 311 311 311 311 310 308 309 311 312 312 312 315 314 311 310 308 308 308 308 310 311 310 309 311 309 310 308 310 311 312 314 317 315 319 320 325 326 326
306 308 307 307 307 309 311 312 311 311 311 310 312 312 312 314 316 312 315 315 313 310 310 309 307 308 306 308 312 313 311 311 311 312 310 310 313 316 318 315 318 321 322 326 321
306 308 308 307 307 309 312 312 314 316 313 314 316 314 315 315 318 316 312 314 313 311 309 308 307 309 309 310 312 314 314 314 313 312 311 310 312 313 313 314 314 318 317 321 318
306 305 308 307 306 310 315 314 313 316 315 316 316 316 317 317 317 314 313 314 313 311 311 311 310 311 311 311 312 313 314 313 313 314 312 311 311 311 311 312 315 316 317 317 316
305 304 305 307 306 313 316 316 317 314 313 316 316 316 317 317 318 318 312 313 313 312 311 311 313 313 313 314 314 313 313 314 315 315 314 314 313 313 312 315 315 315 316 316 317
304 303 303 305 308 314 315 316 317 316 315 317 318 318 318 319 317 318 314 314 313 313 311 312 312 314 313 314 314 314 313 314 314 314 313 313 313 315 315 316 316 317 317 317 318
304 303 302 304 306 308 313 317 317 316 322 320 320 319 318 318 316 317 317 315 315 314 313 314 315 315 314 314 314 315 315 316 315 313 314 314 313 312 314 317 317 316 317 318 320
303 302 303 303 306 308 312 314 316 318 324 323 319 317 316 316 316 316 316 315 317 314 314 313 315 315 314 315 315 315 313 311 311 310 314 315 313 313 314 316 316 315 317 319 320
304 303 303 303 305 307 313 317 317 322 321 326 318 316 315 315 316 315 315 314 314 315 314 314 314 314 314 315 316 312 312 312 315 314 314 314 315 313 315 315 315 314 317 319 321
302 302 302 303 304 306 314 316 321 322 323 324 318 316 317 315 315 315 315 315 313 314 313 314 315 316 318 317 315 315 313 313 317 317 315 316 319 318 315 314 316 317 318 319 320
302 302 303 304 307 307 313 319 320 322 324 323 318 317 316 316 316 316 314 316 314 313 316 314 316 318 319 318 316 316 317 313 315 315 316 315 316 316 316 315 315 316 317 318 317
303 303 305 316 311 311 315 319 320 321 323 320 321 318 317 317 316 315 315 316 316 313 312 314 319 319 319 319 318 316 315 317 314 320 321 317 318 318 318 316 315 313 313 315 315
303 306 310 318 311 314 317 319 320 319 321 321 321 321 319 318 316 316 316 322 319 316 312 314 316 317 317 318 319 319 317 315 315 315 317 317 318 314 315 314 312 311 311 312 313
306 305 312 314 315 315 318 318 319 321 321 320 319 319 320 318 320 320 320 319 318 318 318 316 314 317 318 316 316 317 317 315 318 320 316 315 316 314 313 312 310 310 311 312 313
304 306 308 314 316 317 317 318 319 321 321 320 319 318 317 316 319 320 319 317 318 319 320 318 316 318 319 315 316 318 316 313 312 312 316 317 317 314 311 310 310 310 311 312 312
305 306 312 313 313 314 315 316 318 319 319 318 317 317 316 315 314 317 318 317 317 319 318 315 314 316 318 315 315 320 319 317 315 314 316 315 316 315 313 312 310 309 311 311 311
305 306 311 311 313 313 315 315 317 318 318 316 318 317 316 316 314 315 314 314 314 315 314 312 317 317 316 317 317 317 318 318 319 319 319 318 314 313 312 311 308 310 311 310 310
306 309 309 309 311 313 314 314 315 317 315 317 318 315 314 315 314 314 313 313 315 312 313 310 314 314 316 315 315 316 315 316 317 318 317 318 316 312 309 310 310 310 310 310 309
306 306 307 309 308 309 313 313 313 313 315 313 315 315 314 312 311 311 311 310 311 312 311 311 311 312 316 315 315 315 315 314 315 315 317 319 317 309 309 309 309 309 309 309 308

GFSSW_850_thetae_105.txt.gz
Theta_e
312 312 312 312 313 313 312 312 311 310 308 305 306 307 311 309 311 312 312 309 306 306 305 306 305 305 313 314 315 314 315 315 315 317 318 319 320 321 322 327 328 327 323 327 337
313 313 313 312 312 312 312 312 312 311 310 309 307 307 309 310 310 312 312 309 306 311 308 306 305 305 311 313 312 316 315 314 315 316 317 318 319 320 321 323 326 326 323 336 342
313 312 312 312 312 311 310 310 311 311 311 311 310 308 308 310 311 309 314 308 309 311 308 307 309 307 309 311 312 311 315 315 315 316 317 317 318 318 320 323 324 327 323 323 331
312 311 311 312 312 312 311 311 310 311 311 311 311 310 309 310 314 320 317 315 314 311 309 308 308 309 310 310 311 312 312 313 314 315 316 317 317 317 319 321 322 324 322 322 321
310 309 310 310 310 310 310 310 310 310 311 311 311 311 309 309 310 311 314 319 316 312 310 309 309 309 310 310 310 312 312 311 313 313 314 314 315 315 316 318 320 321 325 324 326
309 310 309 308 308 310 310 310 310 310 311 311 311 310 310 311 310 312 310 311 314 313 311 308 309 310 311 312 311 311 311 311 311 312 313 314 314 314 314 315 316 319 321 326 326
308 308 308 307 307 309 309 309 310 311 311 311 311 310 309 312 311 312 316 313 308 312 311 308 308 310 311 314 313 313 314 315 313 311 312 312 314 314 314 315 316 322 324 326 326
306 306 307 308 307 307 307 309 312 311 311 311 310 311 310 311 310 311 314 311 310 311 309 307 308 310 313 312 314 315 313 317 318 313 312 312 312 314 315 315 316 318 319 323 327
305 305 305 307 307 307 307 309 312 311 311 311 310 309 311 311 311 311 312 313 310 309 308 308 309 310 311 314 315 314 318 316 317 314 314 313 314 316 315 315 317 318 321 323 326
304 304 304 305 307 307 307 310 312 312 311 310 311 310 311 313 314 313 312 313 310 309 310 309 308 311 311 313 317 318 315 315 316 316 314 314 315 317 316 316 317 320 320 321 324
304 303 304 303 305 306 307 313 314 314 313 312 314 312 314 315 316 315 312 312 311 310 310 309 310 313 315 315 316 316 317 318 318 317 315 316 316 316 317 318 319 320 319 321 322
305 304 303 302 303 305 308 315 314 314 315 315 315 314 316 316 317 314 313 314 313 315 312 311 312 313 314 315 315 316 317 318 318 317 316 317 317 317 317 318 320 318 319 321 323
305 305 304 304 302 305 314 315 315 315 314 315 315 315 316 316 317 317 314 314 315 315 314 315 315 315 314 316 316 317 317 318 317 318 317 317 318 317 317 315 316 316 319 320 321
305 305 305 304 304 308 309 312 315 315 319 318 317 317 316 317 318 318 313 314 315 316 315 316 315 314 315 316 317 318 317 318 318 318 320 318 319 320 319 318 317 317 317 318 318
303 303 303 303 303 303 305 314 314 314 322 318 320 318 317 318 317 318 315 313 316 316 315 316 316 316 316 317 317 318 317 318 319 319 319 320 319 320 319 319 320 320 319 319 321
301 303 303 303 302 303 305 310 313 319 321 322 319 319 319 318 316 315 313 314 316 317 316 316 315 316 317 317 316 317 318 318 318 319 320 319 319 320 320 320 322 320 319 319 321
302 301 301 303 303 303 307 307 319 320 318 325 321 319 319 318 318 318 317 316 318 318 318 317 317 317 316 318 317 317 320 320 320 320 320 319 320 320 320 320 320 322 320 321 322
302 301 302 302 303 303 308 317 321 318 317 319 319 319 319 317 318 317 317 317 317 317 317 317 317 317 317 317 318 318 320 320 320 320 320 320 321 321 320 319 318 320 320 321 321
301 302 303 304 311 306 310 320 319 318 318 322 319 320 320 318 318 318 318 318 317 317 318 318 317 318 319 319 319 319 319 318 321 319 320 321 321 321 320 319 319 319 320 320 318
303 302 305 312 314 307 310 315 318 319 320 321 322 321 321 319 318 319 318 318 318 317 318 318 320 320 320 320 319 320 319 323 321 323 321 321 322 320 322 321 321 320 319 317 315
303 304 307 313 309 309 311 313 316 318 318 319 320 322 321 319 318 318 319 320 318 317 317 318 319 320 319 321 321 320 321 321 322 323 324 322 322 321 323 322 321 319 317 316 315
304 305 307 310 315 314 314 314 316 318 316 320 321 321 321 321 322 321 320 322 319 316 317 317 319 320 321 318 318 320 321 322 324 324 322 323 322 318 319 320 318 316 314 314 314
304 304 307 311 315 317 316 316 316 317 318 319 320 319 319 322 321 320 320 318 319 320 320 321 322 323 321 319 319 321 319 319 321 322 324 325 322 317 316 316 315 314 313 312 312
304 306 308 312 312 313 315 316 316 314 316 318 319 318 318 319 318 321 320 317 319 320 321 321 321 323 324 322 321 323 321 319 320 322 321 321 321 319 318 318 315 313 312 312 311
305 306 309 310 310 310 313 315 316 317 316 317 319 319 318 318 317 318 317 317 316 317 315 320 322 322 319 320 319 321 321 320 321 321 321 319 320 320 319 318 315 313 313 312 311
306 307 306 306 308 311 312 314 314 315 315 315 318 317 316 315 316 317 317 317 319 317 317 315 320 318 319 317 317 319 318 319 319 320 320 319 320 318 315 314 312 312 312 312 311
304 305 305 306 307 309 312 311 312 311 314 313 315 315 315 313 312 311 312 312 314 317 317 318 318 319 318 317 317 317 318 318 317 317 318 319 318 316 314 315 313 312 311 311 310

GFSSW_850_thetae_108.txt.gz
Theta_e
313 313 313 313 312 312 312 311 311 312 312 312 312 308 308 308 311 310 313 313 309 307 305 306 308 312 313 315 315 316 319 318 319 319 320 320 322 322 323 325 327 331 329 330 350
313 312 312 312 312 312 311 311 310 310 311 312 312 312 308 309 310 312 312 312 310 306 306 309 308 310 313 314 315 316 317 317 318 319 319 319 320 320 322 324 326 329 327 342 349
311 310 310 309 310 311 311 311 310 311 310 311 311 312 312 309 313 314 314 314 308 307 311 310 308 309 313 314 315 316 317 318 317 317 316 317 317 318 319 321 324 327 328 332 350
309 308 309 310 309 308 309 310 310 310 310 310 311 311 312 310 318 316 316 311 306 311 311 311 309 310 312 315 315 315 316 316 317 316 316 317 317 317 318 319 321 325 327 326 332
307 307 309 308 307 307 308 310 310 310 310 311 311 311 311 314 314 313 314 308 309 312 312 312 312 312 314 313 314 315 315 315 314 315 315 315 316 316 317 317 318 320 323 325 327
304 305 306 306 307 306 306 308 308 309 310 311 311 311 312 315 314 311 311 312 314 313 313 313 313 312 313 313 314 314 314 314 314 314 314 315 316 315 315 315 316 316 319 322 326
305 305 305 305 306 307 306 307 308 310 312 311 311 311 312 316 315 316 315 315 316 314 313 313 311 311 313 315 313 314 316 316 317 316 316 315 315 316 315 315 315 316 317 322 324
305 305 305 305 305 306 307 306 307 312 311 311 310 312 314 315 313 315 320 320 317 314 312 311 310 311 313 316 317 318 318 318 319 319 317 315 316 317 315 315 316 316 317 321 323
305 304 304 304 304 304 305 306 307 312 311 310 311 312 317 313 312 312 318 317 315 311 311 309 309 312 314 318 319 319 319 318 319 320 319 317 318 318 316 315 316 316 317 320 322
306 305 305 304 303 303 303 305 310 312 312 313 312 312 314 314 314 314 314 316 312 311 310 310 311 315 317 319 319 319 318 319 319 320 319 319 319 320 318 317 316 316 317 321 324
305 305 305 305 303 303 302 304 314 314 311 316 317 317 316 316 316 314 314 315 313 311 313 311 314 316 318 319 319 319 319 320 321 321 321 321 321 321 320 318 318 317 319 322 324
305 304 304 303 302 302 302 310 316 315 317 317 317 316 316 317 318 316 314 315 313 314 315 314 315 317 318 319 319 319 320 321 320 321 320 321 322 322 320 319 319 319 322 323 323
306 304 303 302 301 304 308 311 314 314 318 318 317 318 317 317 318 317 314 315 315 315 316 317 317 317 317 318 319 319 320 320 320 321 321 321 322 321 321 320 321 322 322 322 322
303 302 303 302 306 308 306 309 313 314 320 318 318 318 318 317 319 319 315 316 317 317 318 318 318 318 318 318 319 319 319 319 319 321 322 322 322 322 322 322 322 322 322 321 321
302 302 302 304 302 306 308 310 313 316 319 319 320 319 319 318 319 320 317 315 317 317 318 318 318 318 318 318 319 319 319 320 320 321 322 322 322 323 322 322 322 323 321 321 322
302 301 302 303 306 304 306 308 313 321 320 318 322 322 320 319 319 319 318 316 315 317 318 318 317 318 318 318 318 319 320 320 320 321 323 322 322 322 323 322 323 323 323 323 324
301 301 301 302 306 307 307 310 316 317 316 318 323 323 322 321 320 320 319 318 317 318 319 318 318 317 318 318 319 319 321 322 321 321 322 323 322 322 323 323 324 324 324 324 324
301 301 305 306 307 307 311 314 314 312 316 319 317 321 323 321 320 319 319 318 317 318 319 319 318 317 318 319 319 320 321 322 321 322 322 323 321 322 324 324 324 324 325 326 327
301 306 307 309 311 309 309 314 314 313 314 318 320 322 322 321 320 319 319 318 317 319 319 319 319 318 318 319 320 321 321 321 323 323 323 323 322 323 324 325 324 325 325 326 326
303 307 308 310 310 310 311 310 311 313 313 319 320 320 321 323 322 321 320 319 318 318 319 320 320 318 318 319 320 321 321 322 322 323 323 321 322 322 324 324 325 326 326 324 323
306 307 310 311 310 311 315 312 311 310 312 317 318 319 322 322 321 322 321 320 319 319 319 320 322 322 322 321 321 322 322 322 323 324 326 324 323 324 324 325 326 326 325 323 322
306 309 309 309 314 314 316 315 313 314 314 317 318 318 319 321 320 323 323 320 320 320 320 320 321 323 322 322 322 323 322 323 324 325 323 323 324 324 324 325 325 324 323 322 321
306 306 307 312 315 315 315 315 315 317 316 318 318 318 319 320 320 317 322 320 321 320 320 322 323 324 324 323 322 323 323 323 325 325 326 328 324 322 323 323 323 322 320 320 319
306 308 308 312 312 312 313 314 316 315 315 317 318 319 319 321 321 322 320 320 321 322 322 321 324 324 324 324 324 323 323 323 323 324 323 323 323 323 323 323 321 320 319 317 317
306 307 308 311 311 310 312 313 314 315 316 317 318 320 320 320 321 321 317 317 319 320 322 324 326 325 323 323 323 323 323 323 323 323 323 323 322 321 322 322 321 319 318 317 316
306 308 304 306 308 310 310 312 313 312 313 314 316 319 320 320 318 319 318 318 320 319 321 322 326 324 323 323 322 322 322 322 322 321 322 322 322 321 320 321 320 319 318 317 316
304 304 303 306 308 310 311 311 312 312 314 314 316 316 318 316 314 314 315 316 320 321 322 322 325 326 324 321 321 321 320 321 321 321 321 322 321 320 320 320 319 318 317 316 315

GFSSW_850_thetae_111.txt.gz
Theta_e
313 313 312 312 311 311 311 311 310 310 309 310 312 312 313 312 308 311 316 316 316 310 307 314 311 311 314 316 317 317 320 320 321 322 323 323 324 324 324 324 327 329 332 333 343
309 310 310 309 309 310 310 310 310 310 310 311 311 311 312 313 311 314 316 315 312 311 307 313 312 312 315 316 317 320 320 321 322 323 323 323 323 322 324 324 325 328 331 331 338
308 308 308 309 310 309 307 308 309 310 310 310 310 311 312 312 316 319 317 314 312 312 310 311 312 313 315 316 318 318 319 320 320 320 320 321 321 321 322 323 324 325 328 331 341
306 306 307 307 307 307 307 306 308 310 310 310 310 311 312 312 322 319 318 315 314 310 312 312 312 312 316 318 318 319 319 319 320 319 319 320 319 319 320 321 321 322 327 331 330
306 305 305 305 306 306 307 307 307 308 308 309 310 310 312 316 318 318 316 310 311 308 316 315 315 313 316 317 317 319 319 318 318 318 318 318 318 319 319 319 320 320 325 329 329
305 305 305 305 306 305 305 307 307 306 308 309 311 311 312 318 319 319 316 311 312 316 315 315 316 315 316 317 317 317 317 318 317 317 317 318 318 318 318 318 318 319 320 323 327
307 306 305 304 304 305 304 304 306 306 307 311 312 311 313 317 318 318 318 317 318 318 316 316 316 315 315 317 316 316 317 318 318 317 318 317 318 318 317 317 318 317 318 319 322
307 306 305 305 304 303 303 303 303 305 307 313 311 311 315 318 318 319 318 318 318 318 317 316 316 314 315 316 317 317 318 318 320 319 319 318 318 320 318 318 317 318 318 318 320
305 305 305 304 304 304 303 302 302 304 311 312 312 312 319 319 317 319 320 319 318 319 317 314 314 313 315 317 319 320 319 320 320 321 321 320 320 321 320 319 318 317 317 318 319
305 304 303 303 303 303 303 303 306 311 313 312 314 315 317 318 319 317 320 320 319 317 314 312 313 315 317 318 319 320 319 320 320 322 322 322 321 321 321 321 319 318 317 318 318
304 302 301 302 301 301 302 308 315 315 312 319 318 318 319 319 317 316 319 318 317 314 316 313 314 315 317 318 319 321 322 320 321 322 322 323 323 323 323 322 321 320 318 318 318
304 304 303 301 301 301 302 311 313 316 317 318 318 319 319 319 319 317 317 318 317 316 316 315 315 316 318 319 319 320 321 321 322 322 323 323 323 324 324 323 321 320 320 319 318
305 304 303 301 301 311 312 311 310 314 319 317 317 319 319 319 319 320 316 317 319 317 316 316 316 316 318 319 320 320 321 321 321 323 323 323 323 323 324 322 321 320 320 320 320
304 304 303 302 308 311 308 311 312 316 320 317 319 319 319 319 321 319 317 317 318 318 316 316 317 317 319 320 320 321 320 320 321 322 323 325 325 325 325 323 322 322 323 323 323
302 302 302 302 304 307 309 309 311 318 320 317 321 320 319 320 320 319 318 317 319 317 316 317 318 319 319 319 320 320 320 320 320 322 322 323 325 324 325 324 323 323 323 324 323
301 301 300 305 308 308 310 309 311 318 317 317 321 323 322 321 321 320 319 317 317 319 319 319 319 320 320 320 320 320 320 321 321 321 323 323 325 324 325 325 324 324 323 323 323
303 302 302 307 309 309 311 309 312 314 314 316 317 321 324 323 322 321 322 322 319 320 320 319 320 320 320 320 320 320 321 323 322 322 322 323 324 324 326 324 325 325 323 323 325
304 304 308 310 310 310 311 313 313 311 313 315 316 323 323 324 323 321 324 323 319 319 318 319 320 320 319 320 320 320 321 323 322 322 321 322 325 324 325 325 324 325 325 325 326
302 308 309 311 312 311 312 315 314 313 313 313 314 316 317 320 323 322 323 323 322 319 319 321 321 319 320 319 321 321 322 322 323 323 324 325 324 327 326 325 324 326 326 328 328
305 309 309 311 312 312 314 313 312 312 312 313 315 318 321 319 323 322 323 322 321 320 319 320 322 320 319 319 320 321 322 324 322 325 328 327 327 326 326 325 324 325 326 328 329
307 308 314 313 312 312 316 313 313 313 312 312 314 316 318 322 320 320 323 322 320 319 318 320 322 321 320 320 320 321 322 323 323 323 326 329 326 326 328 325 325 325 326 327 327
306 310 310 311 313 314 316 314 314 317 315 316 316 315 319 320 321 319 321 323 322 321 318 320 322 324 321 320 320 322 322 324 326 327 327 325 326 325 325 326 326 325 327 326 325
306 307 309 310 314 316 315 314 314 317 316 317 319 319 318 320 322 320 320 318 320 324 322 323 322 330 327 325 323 323 324 322 324 328 327 330 327 325 325 325 325 325 325 325 324
306 310 309 311 312 311 313 313 314 314 314 313 317 318 320 322 320 321 320 315 318 324 323 325 322 324 329 327 325 323 326 326 326 327 328 325 324 325 324 324 324 324 324 324 323
306 309 308 311 310 311 311 313 313 316 312 312 317 318 319 320 320 320 320 320 319 324 323 324 324 325 325 325 326 325 322 323 325 324 326 325 326 325 326 325 324 323 323 322 321
305 305 304 305 308 310 311 314 314 313 313 315 315 317 318 316 320 316 320 320 321 324 325 325 327 328 328 325 324 325 325 325 325 325 324 323 324 324 323 323 322 322 322 321 320
302 303 303 305 308 309 311 309 311 312 313 313 314 317 316 314 318 318 317 318 318 322 326 327 328 329 327 323 323 328 323 322 324 324 322 322 321 323 322 322 322 322 321 320 320

GFSSW_850_thetae_114.txt.gz
Theta_e
310 310 309 309 309 309 310 310 309 309 310 310 310 310 311 311 312 313 315 313 317 315 312 310 312 311 313 317 317 318 320 320 320 321 322 323 324 325 328 327 327 329 331 333 342
306 307 307 307 308 310 309 307 307 307 309 310 310 310 311 311 312 313 315 317 316 317 313 312 315 312 313 315 317 319 319 319 321 322 322 323 324 324 325 324 325 325 329 331 333
305 305 305 305 306 306 307 307 307 306 307 309 310 310 311 312 315 319 321 319 318 316 314 313 314 314 313 315 317 318 320 320 320 321 322 323 322 323 323 324 325 325 326 329 331
306 305 305 305 304 304 305 305 306 306 306 306 308 309 311 311 322 321 317 317 314 316 314 312 314 314 315 316 317 318 319 319 320 320 321 321 321 322 322 322 323 323 324 326 332
308 307 306 305 304 304 304 304 304 305 306 306 307 309 312 316 316 319 319 319 314 314 314 313 315 314 315 316 317 319 319 320 320 320 320 320 321 320 320 320 320 321 322 323 331
309 307 307 306 305 304 304 303 303 303 304 306 306 311 312 316 317 319 321 320 314 313 314 314 316 314 315 316 317 318 319 319 319 320 319 320 319 319 319 319 320 320 321 321 324
307 306 305 305 305 304 304 304 303 303 303 304 307 313 313 317 319 321 321 319 316 314 314 316 316 317 316 317 317 317 318 319 319 319 319 319 318 319 318 318 319 319 320 320 321
305 305 305 305 303 303 303 303 303 303 302 303 312 313 314 316 319 319 320 319 317 315 318 317 317 317 317 317 317 318 318 317 319 319 319 318 318 319 319 319 319 318 319 319 320
304 304 304 303 303 301 301 301 302 303 305 309 312 313 316 319 318 319 320 320 318 319 319 318 317 317 318 317 317 319 317 317 318 319 319 319 318 320 319 320 320 319 319 319 319
302 302 302 302 302 301 301 302 303 311 313 312 315 315 315 318 320 320 320 322 319 319 320 319 318 318 318 317 317 319 320 320 320 321 321 321 321 321 321 321 321 320 319 319 319
301 302 302 302 302 302 302 305 313 315 313 317 317 317 318 321 321 320 320 321 321 319 321 319 317 317 317 316 317 318 320 321 320 321 322 322 322 323 323 321 323 322 321 319 319
301 302 302 302 302 302 308 311 311 313 313 316 317 318 319 319 320 319 320 322 322 323 320 318 317 316 317 317 317 318 320 321 322 322 322 323 323 324 324 324 324 323 322 321 319
302 302 301 301 302 310 314 314 312 311 312 312 313 317 317 318 320 320 318 322 322 322 319 317 317 316 316 316 318 318 319 321 323 322 322 323 323 325 324 324 323 322 321 321 321
303 302 301 301 304 310 307 309 311 313 318 316 317 317 316 319 319 320 318 320 321 321 319 318 318 317 316 317 318 319 320 321 322 322 323 323 324 328 326 325 324 322 322 321 321
304 304 303 302 304 306 309 311 311 312 316 316 321 319 318 318 320 320 320 319 321 320 320 319 317 317 317 316 318 319 321 321 321 322 322 323 323 325 326 325 324 325 323 323 324
302 302 302 303 307 308 310 311 311 314 313 316 319 322 322 321 320 321 320 319 319 320 320 320 318 318 318 318 319 321 321 321 321 321 322 322 323 324 326 326 325 325 323 323 324
300 301 301 304 307 310 312 313 314 314 313 315 316 320 320 323 322 321 321 322 322 321 321 319 318 318 319 320 320 320 322 322 322 322 322 322 323 325 327 326 325 325 323 323 325
300 300 302 308 311 312 313 312 315 312 313 313 313 314 318 320 320 320 322 323 321 320 321 322 320 319 320 321 320 321 323 322 323 322 321 322 323 324 327 326 325 324 324 323 326
299 302 308 310 311 312 311 315 314 313 313 314 314 314 315 319 320 318 321 325 322 322 322 322 322 319 321 320 321 321 322 321 323 324 324 323 323 326 326 325 325 325 325 326 327
304 307 309 312 313 313 313 313 311 311 312 313 313 314 314 317 321 320 322 323 324 322 321 321 322 320 320 320 320 322 322 323 323 326 325 325 325 327 327 327 325 327 327 327 329
305 306 307 315 315 313 313 310 311 313 314 317 319 315 314 316 320 321 320 321 321 322 320 321 323 323 322 321 320 319 321 322 325 326 330 331 331 327 328 328 327 327 328 329 330
303 307 308 310 315 313 314 314 311 315 314 317 318 317 319 318 318 322 321 319 320 322 324 321 321 325 324 322 321 322 322 324 326 327 324 327 329 327 328 328 326 327 328 329 329
303 305 309 310 313 313 311 312 312 316 316 316 318 318 319 320 320 320 320 319 319 321 323 322 323 326 327 324 324 321 321 325 329 328 327 331 331 326 326 326 324 326 326 327 327
304 308 308 307 308 310 310 312 314 314 315 315 315 317 318 319 317 320 320 318 318 319 319 322 324 325 328 325 324 323 321 322 326 332 327 328 327 326 325 325 326 327 326 326 326
304 307 306 308 307 308 310 311 313 312 313 313 313 313 315 317 317 321 321 320 318 319 320 325 324 324 323 326 326 325 321 325 326 326 327 325 324 325 325 326 326 326 325 324 323
304 304 304 304 306 308 309 311 313 312 313 314 314 314 315 320 319 320 320 320 320 320 321 326 326 326 329 326 326 327 324 326 325 324 326 326 324 322 324 322 323 325 325 324 322
303 303 304 303 307 307 310 309 310 311 312 313 313 315 316 314 314 315 316 317 320 322 328 329 328 329 329 326 327 327 326 326 327 327 327 326 327 325 324 323 324 323 323 322 320

GFSSW_850_thetae_117.txt.gz
Theta_e
306 305 305 305 305 306 308 309 308 307 306 306 308 309 310 310 311 312 312 314 316 315 314 312 316 312 309 312 316 317 315 314 315 316 316 320 319 323 325 326 329 331 331 341 353
306 306 305 305 305 305 305 305 305 306 306 306 306 309 310 310 311 313 315 316 316 316 317 314 312 313 311 313 314 315 313 315 316 316 316 318 319 320 322 326 325 326 327 340 339
309 308 307 306 305 305 304 304 304 304 305 305 306 306 307 309 312 315 319 319 319 316 316 315 313 314 310 312 313 315 315 315 317 318 318 318 319 320 320 320 324 324 325 337 339
310 309 308 307 306 306 305 304 304 303 304 304 305 306 307 309 315 319 319 317 317 316 315 316 314 313 311 309 313 312 316 316 317 318 319 317 319 318 320 320 320 320 321 323 329
304 305 305 305 305 305 305 304 304 304 303 303 303 305 309 313 315 316 319 318 319 316 316 317 315 313 312 311 312 313 314 317 318 318 318 319 317 318 319 320 320 320 320 321 321
302 302 302 302 302 303 302 302 303 303 303 303 302 303 310 313 311 317 317 319 320 316 316 316 314 313 314 312 311 315 315 316 317 318 318 317 317 319 319 319 319 319 319 320 320
302 302 302 302 302 302 301 301 301 301 302 303 303 306 311 309 310 319 319 319 321 320 313 314 313 315 315 311 314 314 313 314 316 317 316 319 315 317 319 318 318 318 319 319 319
302 302 302 302 302 302 302 302 302 302 301 302 304 311 312 306 307 312 320 320 320 318 315 314 313 313 315 315 315 313 313 313 313 315 316 317 316 316 318 318 318 318 318 319 319
301 301 301 302 302 302 302 302 303 303 303 308 311 311 313 311 317 314 319 320 319 316 313 314 314 315 316 315 314 313 314 313 314 314 315 315 316 316 318 318 317 318 318 318 319
301 301 302 302 302 302 302 303 305 307 309 312 312 314 313 312 315 320 319 320 320 318 315 316 318 315 314 314 315 314 314 315 315 315 315 315 315 316 318 318 318 319 318 318 318
302 302 303 303 302 302 301 303 311 312 312 315 315 315 314 317 319 320 319 320 321 319 319 319 317 317 316 316 316 315 315 316 318 318 317 316 316 316 318 319 319 320 320 319 319
304 304 304 304 305 304 305 309 312 311 313 313 312 315 316 312 317 319 320 320 321 320 319 318 319 318 317 317 317 316 315 315 317 320 318 318 318 320 320 319 320 320 321 320 319
302 302 302 302 303 308 310 310 307 310 313 312 312 314 313 316 318 318 320 320 321 322 320 319 320 319 318 316 316 315 314 315 317 319 320 321 320 322 323 322 323 322 323 321 320
299 300 300 301 303 305 303 307 310 311 309 310 312 314 315 314 317 317 318 321 321 323 322 320 320 319 317 315 315 315 315 317 318 319 320 320 318 321 321 321 322 322 321 321 321
298 298 298 299 301 302 303 309 311 311 312 312 314 318 317 316 318 318 318 320 321 323 323 323 320 319 316 315 315 315 317 317 317 319 320 319 317 319 321 322 321 319 321 321 321
297 297 298 298 300 300 306 310 309 313 313 311 313 313 319 315 316 319 318 319 320 322 321 321 319 317 317 316 315 316 317 318 318 317 317 319 320 319 322 322 321 320 322 322 322
296 297 297 299 301 305 309 312 314 316 311 311 312 313 313 319 320 322 321 319 320 322 322 321 319 319 318 317 316 315 315 319 320 317 318 319 319 318 323 324 323 321 322 323 326
296 297 298 302 307 308 311 312 313 311 312 312 312 312 313 315 318 319 317 323 320 319 319 321 321 319 319 317 316 315 317 318 320 320 319 319 319 319 321 323 325 324 323 326 329
297 298 302 311 310 310 311 315 313 310 311 312 311 312 313 314 321 320 317 321 320 321 319 320 320 319 319 318 317 318 318 318 320 323 322 320 319 325 324 324 323 325 326 329 330
299 302 304 310 312 312 312 313 311 311 311 313 316 313 314 317 317 320 320 320 321 320 320 319 321 320 319 318 320 319 318 319 318 323 325 323 324 326 327 325 326 323 325 331 331
301 303 303 307 309 307 313 311 311 311 311 313 315 316 316 316 318 319 320 320 322 323 322 321 323 322 321 321 320 319 320 319 318 320 322 324 331 327 327 324 325 325 327 331 331
302 303 307 309 308 309 312 308 309 312 312 315 315 317 315 318 318 320 321 320 320 321 323 321 322 323 321 321 321 322 318 319 322 323 322 322 330 326 325 326 325 325 327 327 326
302 303 307 306 306 307 308 309 311 312 313 312 315 316 315 317 320 318 319 319 319 320 320 323 323 323 324 320 320 323 322 319 319 324 326 326 327 325 326 325 326 326 324 324 326
303 306 305 305 304 307 308 309 310 310 312 312 314 314 314 317 319 319 320 320 319 319 318 321 322 321 322 321 323 323 322 319 320 323 324 326 327 326 326 326 325 325 325 325 325
304 305 304 304 304 305 308 309 309 311 311 311 313 313 314 315 317 318 318 316 318 318 320 323 325 324 324 325 325 324 323 319 321 325 326 327 327 325 324 326 324 324 324 324 322
303 303 303 302 304 305 308 307 310 310 311 313 314 313 313 316 316 319 317 313 318 319 321 321 324 323 324 322 326 326 324 323 326 325 326 326 326 323 323 325 325 325 323 323 323
301 302 303 303 304 305 307 307 308 309 309 308 313 313 314 313 312 313 314 315 318 320 319 321 324 323 327 324 323 325 324 326 326 324 325 326 325 322 324 323 324 325 323 322 319